GFSNGP_sfc_temp_000.txt.gz
Temp
52 54 53 51 50 52 50 49 42 48 51 56 59 59 60 60 61 61 60 59 59 58 57 58 57 57 57 56 55 55 54 54 51 52 52 52 51 51 51 50 50 50 49 48
43 49 51 47 51 52 52 52 51 51 50 59 60 60 58 58 57 57 56 56 55 51 53 57 57 57 55 55 55 53 53 50 51 52 52 51 50 50 50 49 49 48 47 47
37 44 43 37 46 51 52 53 52 45 54 57 56 55 56 57 56 53 51 51 48 50 57 57 57 56 56 56 54 52 51 51 51 51 50 49 50 49 48 47 47 46 45 45
35 37 32 48 57 56 52 54 57 56 55 55 56 57 60 55 51 45 46 50 52 55 56 58 59 58 57 56 54 52 51 51 51 50 48 49 48 47 47 47 45 45 44 43
32 36 44 49 52 51 48 49 55 53 54 55 57 57 55 48 45 49 49 53 55 57 58 58 58 57 55 54 53 52 50 49 49 49 47 47 47 46 46 45 44 43 42 41
36 30 30 48 53 56 55 43 53 51 48 46 53 41 41 50 47 48 55 56 56 57 58 57 57 56 54 53 52 50 49 48 50 49 47 46 46 46 46 45 43 42 39 39
35 32 41 54 54 55 36 41 50 46 45 45 42 41 46 47 50 56 56 56 56 57 56 56 57 55 52 52 49 51 51 50 50 49 47 47 46 46 45 44 40 35 32 34
35 31 30 54 53 41 50 48 45 46 48 48 47 47 50 52 53 55 55 55 56 54 54 55 56 54 51 50 52 52 51 50 48 48 47 47 46 46 44 42 37 32 32 33
43 45 57 58 54 55 50 47 50 48 50 48 48 49 51 52 53 54 54 55 55 53 51 53 55 54 50 51 51 49 48 47 47 46 46 46 45 43 41 39 33 32 33 32
45 51 54 55 58 55 51 47 47 47 51 50 49 50 51 52 53 52 53 52 52 50 50 49 52 50 50 50 49 47 46 46 46 45 44 45 44 42 40 35 32 32 32 31
44 50 53 55 53 49 48 47 46 52 51 50 51 51 51 51 51 51 51 51 50 49 48 48 50 46 47 46 47 46 45 45 43 42 42 42 42 41 37 36 32 30 30 30
37 49 49 49 49 50 47 49 51 50 50 52 52 51 51 50 50 50 49 49 48 48 47 48 47 46 45 45 43 41 40 41 41 39 40 39 40 39 31 29 28 28 27 27
48 52 52 50 49 52 51 51 51 51 52 51 53 52 50 49 49 46 49 49 48 46 46 46 43 41 43 39 37 35 37 36 39 36 38 37 36 35 32 34 28 27 26 26
49 48 46 50 49 50 50 51 51 53 53 52 52 51 50 48 49 48 47 48 47 45 44 42 41 40 41 40 37 34 35 31 37 38 38 36 34 32 32 30 29 29 29 26
49 51 51 50 50 50 52 52 49 49 50 50 51 49 48 46 46 45 45 44 43 42 43 43 40 39 41 38 37 36 36 36 34 35 34 32 32 32 31 30 30 29 29 28
49 50 50 48 49 49 49 49 47 46 47 47 46 45 45 45 44 42 39 37 34 35 37 33 32 37 37 39 39 39 36 32 32 34 34 33 32 31 31 30 30 28 27 25
44 42 45 45 46 46 46 47 46 45 43 43 41 39 40 37 34 36 37 34 33 31 32 32 32 39 36 38 38 38 36 35 29 34 33 32 31 30 30 29 28 28 27 24
49 48 48 47 45 44 43 43 41 40 40 40 35 33 32 32 33 34 34 34 32 31 33 33 34 36 35 38 36 36 35 34 34 32 32 31 31 30 29 29 28 27 27 26
48 47 46 45 45 43 42 41 40 37 34 34 33 32 32 32 33 34 34 32 31 30 36 34 32 33 36 34 34 35 33 32 32 32 31 30 29 30 29 28 28 27 27 27
46 46 46 45 43 38 36 37 34 36 37 35 33 32 32 32 33 33 33 32 33 37 35 35 34 34 33 34 32 35 33 31 32 31 30 29 29 28 28 27 27 27 27 26
42 43 39 36 36 35 33 33 32 33 35 33 31 31 31 33 33 33 32 33 37 34 34 33 35 38 38 36 35 33 32 31 31 31 30 29 29 28 28 28 27 27 27 27
42 38 34 34 34 35 36 35 35 33 32 32 32 32 32 33 34 34 34 33 37 32 37 38 39 35 37 31 36 32 32 32 31 31 30 30 29 28 28 28 27 27 27 27
40 39 38 34 33 37 36 34 33 33 32 32 32 32 32 34 34 33 33 36 37 35 37 36 34 32 32 32 32 31 31 31 31 31 31 30 29 28 28 28 28 27 27 27
40 39 39 37 34 33 33 39 37 36 33 34 34 34 33 33 34 38 37 34 32 32 34 34 32 32 31 32 31 31 31 31 31 31 31 29 30 29 28 28 28 28 28 26
37 37 37 33 34 40 39 39 36 36 36 36 35 36 36 36 33 34 34 33 32 32 34 32 31 32 31 32 31 31 31 30 30 30 31 30 30 29 29 29 28 28 28 27
39 41 42 40 39 40 40 39 34 36 36 33 34 34 34 34 34 33 33 32 34 33 34 33 32 32 32 32 31 30 30 30 30 30 29 29 30 30 29 29 29 29 28 28
40 35 38 39 42 41 39 38 34 33 34 32 32 34 34 34 33 33 32 33 32 32 33 33 33 32 32 32 31 31 30 30 29 29 29 28 28 28 28 29 29 29 29 28

GFSNGP_sfc_temp_006.txt.gz
Temp
56 58 58 56 56 57 55 55 44 49 53 58 60 61 58 59 60 60 58 58 58 57 58 59 58 59 60 59 59 57 55 55 53 53 52 51 49 48 48 47 47 46 46 44
47 57 56 51 55 56 57 57 56 55 54 63 60 61 58 56 57 56 56 55 56 57 57 58 58 59 59 58 59 58 57 54 55 53 52 49 48 47 46 46 46 44 43 43
40 47 45 38 48 56 57 59 56 47 56 60 56 56 57 56 56 54 54 55 54 56 58 58 58 58 57 58 59 57 56 56 53 47 47 47 48 48 47 43 43 42 41 42
37 37 33 53 62 61 56 59 60 60 59 58 56 57 59 56 53 53 53 54 56 58 58 58 58 58 57 58 57 56 56 54 50 48 48 48 47 46 45 43 41 40 40 40
35 38 45 51 56 53 50 49 60 57 56 56 56 56 54 56 56 55 55 57 58 59 58 58 57 57 56 55 55 55 55 50 49 46 48 46 45 44 43 42 40 39 40 37
35 32 31 49 59 61 59 41 57 55 52 51 53 41 48 55 56 56 58 59 59 59 59 57 56 56 54 53 52 51 48 49 49 49 47 46 44 43 42 42 41 37 35 34
36 34 40 56 60 60 40 42 54 53 52 51 47 47 51 56 56 58 59 59 58 58 56 55 56 55 52 52 50 51 50 49 47 46 46 47 45 44 41 39 36 32 31 32
38 33 32 60 58 44 52 55 55 54 53 50 50 51 54 56 56 57 57 58 58 55 54 54 55 53 51 50 51 50 48 47 46 46 47 48 43 40 40 37 33 31 28 29
45 43 57 61 56 58 54 54 51 51 53 52 51 52 54 54 55 56 56 56 56 54 53 53 54 54 50 50 50 47 46 45 45 46 46 45 40 38 37 35 30 29 29 27
49 56 58 59 60 56 57 55 55 55 53 54 52 53 53 54 55 55 55 54 54 52 51 51 53 53 50 49 49 46 44 43 43 42 41 41 42 39 36 30 28 29 27 25
51 57 59 59 55 56 54 55 54 55 56 55 54 53 54 53 53 54 54 53 53 51 50 49 51 50 49 47 46 44 42 41 38 37 37 38 40 34 32 30 29 26 25 24
44 56 54 53 54 55 53 53 55 55 54 55 55 53 54 52 52 52 50 51 51 50 49 49 49 47 47 47 44 38 35 36 35 34 34 35 35 35 33 31 32 31 29 23
56 58 55 54 56 56 55 56 56 54 55 53 55 53 52 50 51 47 50 49 48 47 47 46 44 44 46 42 38 36 34 34 34 33 34 32 31 31 28 31 32 31 29 29
59 56 52 53 51 56 56 56 54 56 56 54 53 52 51 49 48 47 46 47 47 47 45 43 42 42 43 42 38 34 34 33 33 34 32 31 29 30 30 29 26 27 29 29
55 55 55 57 56 56 56 56 53 52 52 51 51 48 47 45 44 44 45 45 44 42 43 42 39 37 40 39 37 35 35 33 31 32 31 30 31 30 30 29 28 27 26 27
55 56 56 54 54 54 53 52 50 49 49 47 46 42 44 44 43 42 41 41 35 33 36 35 33 35 36 38 38 37 37 32 29 31 31 31 30 29 29 28 28 27 25 23
50 47 51 49 50 50 50 50 49 46 44 44 40 39 39 37 34 36 37 36 33 34 34 34 33 37 36 37 36 36 35 33 32 31 31 30 29 29 29 28 27 27 25 20
56 54 53 51 49 48 46 44 41 41 40 40 34 31 29 29 32 33 33 34 34 34 35 35 35 34 34 36 36 34 31 31 31 31 31 30 29 29 29 28 28 27 25 24
54 52 51 50 49 45 42 41 40 37 34 34 32 33 33 33 33 34 34 33 33 32 36 34 33 33 34 35 33 32 30 31 31 31 31 29 29 29 29 29 28 27 26 26
51 51 49 47 44 39 37 38 35 37 38 36 31 32 33 33 31 34 33 31 33 35 37 34 34 32 32 34 30 32 32 32 31 31 31 30 28 29 29 28 28 28 28 27
41 43 40 38 37 35 33 33 32 34 36 32 32 32 32 33 34 34 32 32 36 35 35 35 33 34 35 35 33 32 31 32 31 31 31 31 30 30 29 28 28 29 28 28
42 39 34 34 35 36 36 36 37 33 33 33 31 32 33 33 34 34 35 34 37 35 34 34 35 34 35 29 33 31 30 32 30 31 31 31 30 30 29 28 28 28 28 28
40 40 38 35 33 37 38 35 34 33 33 33 33 33 33 34 34 31 31 36 34 34 34 34 34 34 33 31 31 30 30 30 31 31 31 31 31 30 29 28 28 28 27 27
40 40 40 38 35 35 35 38 38 37 33 33 33 33 33 33 33 36 37 35 34 33 33 33 33 33 33 31 30 31 30 30 31 31 31 31 31 31 29 29 28 28 28 28
38 39 38 35 36 37 39 40 39 38 37 38 36 37 36 35 33 35 34 34 33 33 33 33 32 32 32 31 31 31 31 31 31 30 31 30 30 30 31 31 29 29 28 28
40 40 41 40 40 42 42 41 39 39 38 35 36 35 35 35 35 34 34 34 34 33 33 33 33 32 32 31 31 31 31 31 31 30 30 29 29 29 29 29 29 29 28 28
40 37 41 41 43 42 42 41 37 36 35 33 33 34 35 34 34 34 34 33 33 33 33 33 33 33 32 32 32 32 32 31 31 31 30 29 28 28 28 28 28 28 28 28

GFSNGP_sfc_temp_009.txt.gz
Temp
48 51 52 50 49 50 47 46 35 40 45 49 49 52 51 52 52 52 51 51 51 50 49 50 50 50 51 50 50 51 49 49 47 46 46 43 43 45 45 44 43 42 42 40
37 48 48 43 47 47 49 50 48 48 46 52 52 53 51 50 50 49 50 50 50 51 51 51 51 50 51 49 49 50 50 51 49 45 44 44 45 44 43 42 41 40 39 39
31 40 37 30 41 48 49 50 48 38 46 50 48 49 46 46 48 48 48 48 49 50 51 50 49 50 47 48 49 48 49 49 46 44 43 43 44 43 42 41 39 37 36 36
26 28 22 45 54 53 49 50 51 50 48 48 48 47 47 48 46 46 48 49 50 49 49 49 48 47 47 48 48 46 45 46 45 43 42 43 42 42 40 40 37 34 33 33
27 26 36 45 50 47 43 42 50 47 47 48 50 49 44 50 49 47 47 49 49 49 49 47 46 47 47 46 46 45 44 43 43 42 42 41 39 40 39 36 33 33 33 32
28 20 19 39 52 55 52 31 49 48 45 45 45 31 38 47 49 48 50 50 49 49 48 46 46 47 45 45 44 43 43 43 43 41 41 39 40 40 36 36 33 32 32 31
30 19 31 46 54 55 32 34 46 47 45 43 39 40 44 47 48 50 50 50 50 48 46 45 46 46 44 43 42 44 44 43 43 42 41 40 39 37 35 31 30 27 27 28
31 24 23 52 51 39 43 47 47 46 45 45 44 45 47 48 49 50 48 48 49 45 45 46 47 45 44 42 44 44 42 42 40 40 41 42 37 35 32 29 28 25 18 20
35 33 46 52 50 51 49 47 45 47 50 47 46 47 48 47 48 48 47 46 47 44 44 45 45 45 42 42 43 41 39 38 38 39 40 39 35 31 29 28 23 23 25 17
40 47 50 50 51 52 50 48 49 50 50 50 47 47 47 47 46 45 44 43 44 44 43 42 44 45 42 42 41 39 37 36 36 34 34 34 34 31 28 22 20 25 22 19
40 48 49 48 49 49 50 51 50 53 52 50 48 46 46 44 44 43 42 43 43 42 42 43 42 41 41 41 40 37 36 34 31 30 31 31 32 29 27 26 24 21 19 19
35 48 46 44 48 52 50 51 52 50 48 50 48 45 45 42 42 42 41 42 42 42 42 41 40 39 41 40 37 34 32 30 28 27 26 29 29 28 32 30 32 32 30 18
47 50 48 48 51 52 50 50 50 49 49 46 46 45 43 41 41 40 41 41 40 40 41 39 37 36 39 36 34 32 32 31 27 27 26 25 24 24 19 26 33 33 31 30
51 50 45 48 47 51 51 50 51 51 48 45 43 43 41 40 40 39 39 39 40 39 37 37 37 37 37 36 34 30 31 29 25 24 23 23 23 29 27 23 21 20 28 30
50 51 51 51 51 53 52 49 46 44 43 41 42 39 39 37 36 37 38 39 37 35 35 35 35 37 39 35 33 33 31 26 25 22 20 23 27 27 26 25 25 22 20 22
50 52 52 50 50 48 46 45 42 40 39 39 38 36 38 37 36 36 35 34 31 32 32 30 30 35 35 35 34 34 30 26 24 23 21 27 27 26 26 25 25 23 20 16
46 44 46 46 44 43 43 42 41 39 38 37 35 34 35 32 30 31 31 30 27 29 32 30 33 37 34 35 33 33 26 26 24 24 22 27 26 25 26 25 25 23 19 16
50 48 48 46 43 41 39 37 36 35 35 34 28 23 21 21 27 29 28 30 34 33 34 33 34 34 33 34 33 31 28 25 23 21 25 27 27 26 25 23 24 23 19 17
48 46 45 44 41 38 37 36 35 34 28 27 24 26 25 25 28 29 31 32 33 32 33 34 33 34 33 30 28 23 20 18 25 27 24 21 21 24 26 26 25 24 23 18
44 43 42 41 40 36 33 34 28 32 33 28 22 21 26 23 29 32 33 32 32 33 34 34 34 33 31 30 26 24 18 16 23 24 16 17 22 26 25 26 25 24 19 22
38 39 36 34 32 30 29 29 24 29 32 25 23 26 26 26 25 32 31 31 32 28 31 34 33 34 32 29 24 22 19 16 18 18 18 19 19 24 27 26 26 20 17 21
37 35 31 29 30 32 32 31 32 28 29 31 25 23 20 26 27 30 32 31 32 32 32 33 31 34 32 30 31 28 23 22 23 23 15 19 20 23 24 25 26 25 24 18
36 36 34 29 27 33 33 30 28 30 30 28 27 30 32 29 30 30 29 30 30 33 33 33 32 33 33 33 30 29 28 22 21 21 23 24 27 28 27 27 27 26 26 26
35 35 35 34 29 28 30 34 33 33 30 29 32 33 30 28 30 30 32 34 33 33 33 33 33 32 32 31 30 28 26 27 27 24 23 19 24 26 24 27 27 27 27 27
33 34 34 28 31 32 33 34 33 32 31 31 29 29 27 27 28 32 34 34 33 32 33 33 33 32 32 32 30 29 28 28 28 28 27 26 27 28 26 27 27 28 27 27
34 32 32 34 33 32 33 32 31 31 27 23 23 22 23 23 30 33 33 34 34 33 33 33 33 33 33 32 31 30 30 30 30 30 30 28 29 28 28 28 27 27 27 27
33 29 31 31 31 32 31 28 25 28 29 29 27 25 25 32 33 30 32 33 33 33 33 33 33 33 33 33 32 31 31 31 31 31 30 28 27 27 27 27 27 26 26 25

GFSNGP_sfc_temp_012.txt.gz
Temp
44 46 47 45 44 44 43 41 34 39 40 44 46 45 47 48 47 48 48 48 49 48 47 46 47 47 47 46 46 46 45 44 42 42 42 42 43 42 42 42 42 43 41 40
37 44 43 40 44 43 44 46 45 44 40 48 48 48 46 46 46 47 48 47 47 48 47 48 47 45 46 46 46 46 44 43 44 43 42 41 41 41 40 40 41 41 39 37
30 36 36 30 40 45 46 47 45 37 42 45 44 45 43 44 45 46 46 46 47 46 47 46 45 46 45 45 45 44 43 44 43 42 41 39 40 39 38 39 40 36 34 33
25 27 21 42 50 50 46 46 45 44 44 45 44 43 44 45 45 45 46 47 46 46 45 45 45 45 45 45 44 43 42 42 42 41 39 39 38 38 37 36 36 32 31 31
23 25 34 43 48 46 43 41 46 44 44 45 44 43 41 47 47 46 46 46 46 46 46 44 44 44 44 43 42 42 41 41 41 40 39 38 37 35 35 34 32 32 32 30
27 20 19 37 48 52 49 32 46 46 43 43 44 31 37 45 45 46 46 47 46 45 45 43 44 44 42 41 40 40 41 41 41 40 39 37 36 35 34 32 32 32 30 28
19 17 29 42 49 51 32 35 45 45 43 42 38 39 43 44 45 46 47 47 46 44 42 43 43 42 41 40 39 41 41 41 40 39 38 38 36 35 32 31 30 26 25 26
24 18 24 47 48 39 42 43 45 44 44 43 43 44 45 46 46 47 45 44 44 42 42 42 42 41 40 38 40 41 40 39 37 37 37 38 32 31 31 28 26 23 12 18
35 34 45 48 48 48 47 45 44 43 45 46 44 45 46 46 44 43 42 41 43 40 40 41 41 41 39 39 40 39 37 36 34 35 35 34 30 28 27 26 21 22 24 16
38 45 46 48 47 48 47 46 46 46 46 47 46 46 43 42 41 41 40 39 40 39 38 38 40 40 39 39 39 37 35 33 32 32 31 31 30 30 27 20 19 25 21 19
37 44 44 46 46 47 47 47 48 50 51 49 45 42 41 41 40 40 39 39 39 38 37 38 39 38 38 37 36 35 34 33 31 29 29 29 29 27 26 26 24 21 19 18
37 46 45 44 46 48 47 47 51 49 45 45 43 41 41 39 39 39 37 38 37 37 37 37 36 37 36 36 36 35 32 31 29 26 25 28 28 29 32 31 31 32 30 17
45 49 48 47 47 50 48 48 48 46 44 41 41 41 40 38 38 38 37 37 36 36 36 34 34 33 35 34 34 33 31 31 29 27 25 23 23 23 18 26 31 32 32 31
50 48 43 46 44 49 49 49 47 45 43 41 41 40 38 37 37 36 35 36 36 36 34 33 33 32 34 37 34 32 32 30 27 29 24 24 17 23 27 18 14 17 26 30
48 48 47 48 49 49 49 47 43 41 40 39 39 37 37 36 34 34 35 35 34 32 33 34 33 32 36 35 33 32 32 31 24 21 21 21 18 21 24 23 21 19 16 20
47 48 48 48 48 47 45 43 40 38 38 38 36 35 35 35 34 33 32 32 29 30 32 32 32 31 35 35 34 32 32 29 21 20 24 25 20 20 24 24 22 22 18 14
42 41 42 42 41 41 41 41 39 38 37 36 34 34 33 30 28 31 31 29 28 31 32 33 31 35 34 35 33 32 30 30 28 27 27 26 21 22 22 23 23 19 17 11
47 45 43 41 39 39 37 36 36 36 35 34 28 21 18 17 25 26 27 26 31 32 32 33 33 33 33 34 33 31 29 28 26 27 25 18 22 25 22 21 19 22 21 18
42 40 40 41 41 37 36 36 35 33 27 25 22 23 21 23 26 28 27 24 30 29 31 28 30 32 33 33 32 27 23 18 18 20 21 17 14 18 22 21 21 22 22 16
40 41 41 40 39 37 34 35 28 31 33 26 19 17 23 25 23 24 25 26 31 32 30 30 32 33 31 31 31 26 20 16 18 19 12 12 9 16 26 22 24 22 14 12
36 37 36 33 32 29 27 26 25 27 31 23 21 27 25 26 23 23 23 27 31 26 29 31 30 33 32 33 31 24 18 17 16 18 18 16 12 14 19 27 24 21 15 9
35 34 30 29 29 31 30 29 30 25 24 25 31 27 24 28 25 22 23 28 32 26 31 31 32 33 32 32 31 30 29 28 23 22 20 17 16 16 19 23 20 24 23 19
35 35 33 27 25 32 32 28 26 24 27 27 27 27 25 30 27 26 29 30 28 32 33 32 33 33 33 32 32 31 30 28 27 27 24 22 21 19 23 26 27 26 25 26
34 34 34 33 28 27 29 34 32 32 28 29 28 26 30 30 24 26 28 27 27 32 33 33 33 33 33 32 31 32 30 29 29 28 26 25 25 24 23 24 26 27 25 24
32 33 33 27 30 31 33 33 31 30 30 31 29 28 30 30 28 29 23 29 32 32 31 34 33 32 33 32 32 30 29 29 29 29 28 27 27 27 27 27 27 27 27 26
34 31 31 33 31 31 31 29 29 28 24 21 23 29 31 31 29 29 32 32 32 31 32 33 33 33 33 32 32 32 32 30 30 29 29 29 29 29 29 28 28 28 28 27
32 27 30 30 31 31 30 27 27 31 27 26 28 29 28 29 31 31 29 29 27 29 30 26 28 30 31 32 32 32 32 32 32 31 31 30 30 30 29 27 27 27 27 27

GFSNGP_sfc_temp_015.txt.gz
Temp
41 42 43 42 43 42 40 39 34 37 38 43 44 43 44 45 44 45 45 46 46 45 47 47 45 44 44 44 44 44 43 42 41 41 40 40 40 39 39 40 39 39 39 39
35 41 40 38 42 41 41 42 41 41 40 45 45 45 44 44 44 44 47 48 47 47 46 46 45 43 44 44 44 44 42 42 42 41 41 40 39 38 38 38 38 37 38 34
29 34 35 30 38 42 43 44 43 36 42 43 42 43 43 42 43 44 45 46 45 45 45 44 43 43 43 43 43 42 41 42 41 40 39 38 38 37 36 35 37 34 31 31
24 27 22 41 45 47 44 44 43 41 42 44 43 42 43 44 43 43 44 45 45 44 44 43 42 42 42 43 42 40 40 40 40 39 38 38 37 36 34 34 32 30 30 31
23 25 34 42 45 42 41 40 44 42 42 42 42 41 40 45 45 44 44 45 44 44 43 42 42 42 41 40 39 39 39 39 39 38 37 36 35 34 33 32 31 30 31 30
25 20 20 37 44 49 47 33 44 44 41 40 40 31 37 44 45 45 45 45 43 43 42 41 41 40 40 39 38 38 39 39 39 38 36 35 34 33 32 32 33 32 30 28
15 18 29 41 48 49 34 35 43 44 43 41 39 39 42 44 44 45 44 44 43 42 40 40 40 40 38 38 37 39 39 39 37 36 35 34 33 32 30 30 29 26 25 26
25 19 26 46 45 39 42 41 45 43 44 43 43 43 44 45 44 43 42 41 41 40 39 40 40 38 37 36 39 38 38 37 36 34 35 35 31 29 30 28 27 24 11 17
34 34 44 46 45 47 46 45 43 43 44 45 43 43 45 43 42 41 40 39 40 38 38 39 38 37 36 37 37 36 35 34 34 33 33 31 29 27 26 26 21 21 23 16
37 44 44 45 47 47 46 45 44 45 45 45 44 45 43 41 39 38 37 37 38 37 36 35 37 37 36 36 36 34 33 35 34 32 32 31 30 30 26 21 20 24 20 19
36 42 43 46 47 47 46 45 46 47 48 48 47 42 40 38 38 37 37 37 37 35 34 35 35 35 34 34 34 33 33 35 33 30 30 30 29 27 28 27 25 21 19 18
37 45 44 45 47 46 44 45 47 47 45 45 44 41 39 37 37 37 36 36 34 35 34 34 34 33 33 34 33 33 32 33 31 30 28 29 27 27 32 31 31 32 32 17
47 47 46 46 45 47 46 47 47 44 43 42 42 40 38 37 37 37 36 35 34 34 33 32 31 31 33 32 31 32 32 33 29 30 28 25 24 24 20 26 31 31 32 31
49 46 42 43 43 47 47 45 46 45 43 42 40 39 38 37 37 36 34 34 34 33 32 31 31 33 33 32 33 32 32 30 30 28 29 28 26 21 19 19 14 15 25 29
47 48 47 46 46 45 45 45 42 40 39 38 39 37 37 36 34 33 33 33 32 31 30 33 34 33 34 33 33 33 32 31 29 28 24 24 22 17 20 22 21 16 15 19
45 45 45 45 45 44 43 41 38 36 38 37 36 35 36 34 33 32 32 32 28 28 31 32 32 33 34 34 34 33 32 31 28 27 25 26 25 22 22 21 21 19 14 13
41 39 40 40 40 39 38 38 39 38 36 36 35 34 34 30 27 31 31 27 22 23 27 28 29 35 34 34 33 33 32 31 28 28 24 23 20 20 23 21 24 22 15 10
43 42 41 39 36 34 33 36 36 35 35 35 29 23 22 21 26 26 25 24 22 24 28 30 29 32 32 33 33 32 31 29 28 28 27 18 19 23 24 21 21 17 19 14
39 38 39 38 38 36 36 35 35 34 28 27 25 26 24 24 25 26 24 20 22 24 30 27 29 30 32 32 32 31 30 29 25 21 19 16 13 18 19 20 21 19 20 18
38 39 38 37 36 35 33 34 30 32 33 27 21 18 23 24 21 22 20 23 28 30 30 29 29 30 29 32 31 31 29 26 22 19 10 13 11 15 15 17 23 24 23 15
34 35 34 32 31 30 29 28 26 28 31 22 23 25 27 25 22 19 25 25 30 26 29 27 31 31 32 32 32 32 29 25 20 20 23 22 17 16 16 17 23 25 22 18
35 34 30 29 29 32 31 30 30 25 23 20 22 30 28 27 24 21 22 25 30 24 26 28 30 32 32 32 32 32 31 28 28 28 25 24 22 22 22 21 23 23 23 23
34 34 33 28 27 33 31 28 24 23 23 24 24 26 25 28 25 28 27 28 26 24 26 27 27 30 32 32 32 32 32 31 30 28 27 27 27 25 25 24 24 25 26 25
34 34 34 33 27 27 28 34 32 31 25 27 27 26 25 25 31 29 29 26 21 22 24 30 27 31 32 32 32 31 31 30 30 30 29 28 28 28 26 25 26 26 26 24
31 33 32 27 30 31 32 33 30 30 29 30 28 28 26 32 30 24 22 23 28 29 25 26 33 31 30 32 32 31 31 30 30 30 30 29 28 28 27 28 27 27 27 27
32 30 30 31 30 29 30 29 28 27 25 25 24 24 25 24 25 26 26 26 25 24 23 22 22 26 27 24 23 24 25 27 29 30 31 30 29 29 29 29 29 28 28 27
28 25 28 28 30 30 29 27 27 29 29 29 27 28 25 27 26 24 27 26 22 21 21 18 19 18 15 15 15 15 15 16 16 18 21 25 30 31 30 30 30 29 28 27

GFSNGP_sfc_temp_018.txt.gz
Temp
38 39 40 40 41 40 39 38 34 36 36 42 45 44 44 43 42 42 43 44 44 44 43 44 47 44 43 43 43 43 41 41 40 40 39 39 38 38 38 37 38 41 38 36
35 38 38 37 41 40 39 39 38 38 38 45 43 42 42 43 43 42 43 44 45 46 47 47 45 42 42 43 42 42 40 40 40 39 39 38 38 37 37 36 35 35 36 34
29 32 33 30 38 40 39 40 41 35 43 41 40 42 42 41 42 42 43 46 47 47 47 45 43 42 41 41 41 40 39 39 39 39 38 37 37 36 35 34 33 31 30 31
24 26 21 40 43 42 42 43 43 41 41 41 40 40 42 43 43 42 44 47 47 46 44 42 41 41 40 40 39 38 38 38 38 37 36 36 35 35 34 32 31 30 30 30
23 24 34 42 43 41 40 41 44 42 40 41 40 41 40 44 44 44 46 45 44 43 42 41 40 40 39 39 38 38 38 37 37 37 35 34 33 33 32 31 30 31 31 29
19 20 20 38 42 46 45 33 44 44 40 39 40 32 42 43 44 44 44 44 43 41 41 40 39 39 38 38 36 36 37 37 37 36 34 33 33 31 31 30 30 30 30 28
14 18 29 41 46 47 33 36 41 43 41 39 38 41 43 43 43 45 45 43 42 41 39 39 39 38 37 36 35 37 37 36 36 35 34 33 32 31 30 28 29 26 26 26
23 16 26 44 45 39 42 41 43 42 42 42 42 41 41 43 42 42 42 42 41 39 38 38 38 36 35 34 36 36 35 34 33 33 35 34 30 29 29 27 26 23 11 17
33 33 43 44 43 45 45 45 43 43 44 46 42 41 42 41 40 41 41 40 39 38 38 38 37 35 33 34 34 34 32 32 32 33 34 32 29 27 26 25 21 21 23 16
37 43 42 43 46 46 46 45 45 45 44 45 43 44 42 42 40 38 38 38 38 37 35 34 35 35 34 33 33 32 32 32 32 31 31 32 31 30 26 20 21 25 21 19
35 41 41 45 45 47 47 45 45 46 46 46 45 43 42 39 38 39 38 37 37 35 34 34 34 34 32 32 32 31 31 32 32 31 30 30 30 27 27 27 27 23 21 18
35 45 45 45 48 46 45 45 46 45 43 43 44 41 40 38 37 37 36 36 35 34 33 33 33 31 31 32 31 30 30 32 33 30 29 29 28 27 32 30 31 32 32 19
46 45 45 46 45 45 45 43 44 42 41 40 42 41 39 37 37 36 37 36 34 34 33 32 31 30 30 30 30 29 31 32 32 29 28 26 25 27 21 26 32 32 32 33
47 44 43 43 44 44 45 43 43 43 43 41 39 38 37 37 37 36 35 34 34 33 32 31 30 30 32 31 30 30 32 31 30 30 28 28 26 25 22 19 17 16 25 29
46 46 45 44 43 41 43 43 40 39 39 37 37 37 37 35 34 34 34 33 33 32 31 30 30 31 32 31 30 32 32 32 31 30 27 25 24 24 19 19 21 18 14 19
44 44 43 41 40 40 41 40 37 35 35 35 35 35 35 35 34 34 33 33 30 29 30 25 26 31 32 32 33 32 33 32 30 29 27 25 20 19 22 22 24 23 17 16
38 36 37 35 36 37 37 38 37 36 35 35 35 33 34 33 29 32 32 29 26 24 25 25 27 31 32 31 32 32 32 32 30 27 26 27 24 20 19 21 24 25 20 11
38 38 39 38 36 36 35 34 34 34 34 34 30 27 25 25 28 28 27 25 21 22 26 29 28 30 30 30 29 30 30 30 30 28 27 26 26 21 19 20 21 22 21 16
39 38 38 38 38 36 35 34 34 32 29 28 27 29 27 26 26 27 24 20 21 22 29 28 29 27 30 32 30 30 30 30 30 28 27 20 12 16 16 20 23 22 20 20
38 39 38 36 35 33 31 32 29 31 33 28 25 24 26 28 23 21 19 23 28 29 29 29 27 27 29 31 30 30 30 31 29 26 23 19 15 14 19 21 18 18 20 22
34 34 32 31 31 30 29 28 27 29 30 25 25 26 24 26 23 21 24 26 29 26 27 25 26 27 29 31 31 31 31 31 29 26 24 23 25 23 22 21 21 22 23 24
34 33 29 28 29 31 31 30 31 28 27 24 19 19 27 28 26 22 24 26 29 23 24 23 26 24 26 25 31 31 31 31 30 28 26 26 26 25 25 25 24 25 25 25
34 34 33 27 26 32 30 28 23 22 24 25 24 25 23 27 25 24 29 28 25 23 22 22 22 24 26 30 31 31 30 28 29 30 30 27 27 27 27 27 27 27 26 26
34 33 33 31 25 26 28 32 30 30 23 26 26 25 23 25 25 26 29 33 28 21 25 28 28 29 31 28 30 30 30 30 30 30 28 26 27 27 28 28 27 28 27 27
29 30 29 27 28 28 29 29 28 28 28 28 27 27 26 24 27 29 20 25 23 26 27 25 27 24 25 22 18 18 19 20 19 19 21 23 25 28 29 28 27 27 28 28
28 27 27 28 27 27 27 27 26 28 29 29 30 31 30 27 25 26 29 29 25 25 25 20 19 16 12 12 10 11 12 13 12 13 13 13 15 17 21 25 29 29 29 29
28 27 26 25 26 26 25 25 25 25 26 27 27 31 30 30 31 31 31 29 27 18 22 20 16 14 11 11 10 11 9 9 8 11 12 12 12 13 15 16 22 29 30 30

GFSNGP_sfc_temp_021.txt.gz
Temp
43 44 46 47 46 45 46 45 43 45 44 51 54 54 53 51 50 50 50 50 52 52 52 53 53 50 51 52 52 53 52 51 50 50 49 49 48 48 47 46 46 46 44 43
41 42 42 43 46 46 45 45 46 45 45 54 54 53 50 49 48 49 50 51 52 52 52 52 51 51 50 51 51 51 50 49 48 48 48 48 48 46 46 46 45 44 42 41
36 37 39 35 43 46 45 47 49 43 52 50 49 48 51 50 50 49 50 51 51 51 53 53 52 50 50 51 50 48 47 48 47 46 46 46 46 46 45 44 43 41 41 40
34 32 32 47 49 49 47 48 49 49 50 50 50 50 50 51 50 49 50 51 52 53 53 52 51 50 50 50 48 46 46 46 46 45 45 46 44 44 44 43 42 41 39 38
33 34 40 48 46 45 44 49 51 50 50 47 47 49 50 50 52 52 53 53 53 52 51 49 50 49 48 48 47 46 45 45 45 44 44 44 43 43 43 42 41 40 39 37
30 32 31 44 49 51 52 41 52 50 46 45 48 44 52 50 51 51 53 51 49 48 47 48 47 47 46 46 44 44 44 44 44 44 43 42 42 42 42 41 40 39 37 36
26 33 37 46 50 52 41 44 48 49 48 45 47 52 52 51 50 52 50 49 48 47 47 47 46 45 44 43 43 43 43 43 43 43 42 42 42 42 41 40 38 35 33 34
28 30 32 48 50 44 50 50 50 49 49 47 51 48 48 47 47 47 44 43 44 45 45 44 45 44 43 42 43 42 42 41 41 41 41 41 41 41 39 38 35 33 29 31
39 41 48 50 50 53 50 51 52 50 51 51 48 48 48 46 44 45 46 46 46 45 43 44 43 43 41 42 41 40 40 40 40 41 40 40 39 39 38 37 34 33 33 32
41 47 45 48 52 51 53 52 53 52 53 50 49 48 45 44 43 43 44 41 44 43 42 41 42 40 40 40 40 39 38 39 40 39 39 40 39 39 37 35 33 33 32 32
40 45 48 50 50 53 53 51 51 52 51 50 50 47 43 41 40 39 38 42 42 41 40 40 40 39 40 39 38 37 37 38 38 38 36 37 37 37 36 36 35 34 34 33
42 51 50 51 54 53 51 51 51 50 46 47 48 44 43 39 38 38 41 41 41 39 39 39 38 37 37 38 37 36 35 36 37 37 37 36 36 36 33 32 32 32 32 30
50 50 50 51 52 53 51 50 48 47 46 43 44 43 40 38 38 38 41 40 39 39 37 37 36 36 38 37 35 34 35 35 37 35 36 35 33 33 33 35 33 33 33 33
50 49 48 49 49 48 45 44 44 43 43 41 40 39 36 36 37 38 39 39 38 37 37 37 36 36 37 37 36 34 35 33 35 36 35 34 34 33 33 31 30 32 31 32
46 48 47 45 44 43 44 44 40 38 38 37 37 35 35 35 36 36 36 35 36 36 36 37 36 37 39 37 35 35 36 35 34 34 33 33 33 32 32 31 30 31 32 28
43 42 42 40 41 41 40 38 35 34 34 33 33 35 37 38 35 35 35 36 33 34 37 32 30 35 36 37 36 37 36 34 33 33 33 33 32 31 32 31 31 31 30 31
40 34 36 36 36 36 35 36 35 34 34 35 35 35 35 33 32 33 34 33 31 31 32 31 31 37 35 37 36 36 36 35 32 33 33 33 32 31 32 31 30 30 30 32
39 38 37 37 35 34 34 35 36 36 36 36 33 31 30 30 31 32 32 31 29 29 31 33 33 35 34 36 36 35 33 33 33 32 33 32 32 32 32 31 31 30 31 31
39 38 38 38 39 38 37 36 35 35 32 31 31 31 31 30 31 32 30 28 28 30 35 33 32 32 34 34 33 34 33 33 33 33 33 31 31 31 30 30 29 29 30 30
39 39 37 36 35 34 33 34 32 33 34 32 29 29 30 31 30 28 28 28 32 35 34 34 33 32 33 34 32 35 33 32 32 32 32 31 30 30 30 27 29 29 29 29
36 36 35 33 33 32 30 30 29 32 33 29 29 30 30 30 29 27 29 31 36 33 33 31 32 35 35 33 33 32 32 32 32 32 32 31 30 29 29 30 30 29 29 29
36 34 28 29 30 32 32 32 32 28 28 27 27 25 25 30 31 31 30 30 36 28 32 33 34 32 32 27 32 32 32 32 32 32 32 32 31 30 31 31 30 31 30 30
35 35 33 30 29 32 32 31 29 29 28 29 28 29 30 31 32 30 31 36 33 32 30 32 31 25 26 32 32 32 32 31 31 31 31 31 31 31 31 31 31 31 31 31
33 32 31 31 28 29 28 30 29 30 26 27 29 26 28 28 30 33 33 32 31 32 31 31 31 30 31 31 30 27 26 25 24 23 23 22 24 24 25 28 29 31 31 31
29 29 29 27 27 26 27 28 28 29 29 30 30 32 32 34 29 31 32 32 32 31 29 31 29 26 27 24 23 21 21 20 19 19 18 18 18 18 19 20 21 23 24 30
28 27 27 27 26 26 25 24 23 24 23 23 25 26 27 29 31 31 32 32 32 31 30 28 24 23 21 20 19 17 17 17 16 16 15 16 15 15 15 16 16 18 19 22
26 24 24 24 24 23 21 19 18 17 21 20 19 23 24 25 26 28 29 29 30 31 27 22 20 18 17 16 16 15 15 15 13 13 12 12 12 12 12 13 14 17 17 20

GFSNGP_sfc_temp_024.txt.gz
Temp
55 55 55 56 57 57 56 58 50 58 57 65 67 68 69 69 67 66 63 63 63 63 64 63 61 58 58 59 60 61 60 60 59 58 58 57 55 55 55 53 53 53 52 51
49 52 52 51 57 59 59 59 58 60 58 70 70 68 66 64 64 62 62 62 63 63 63 62 60 58 57 59 59 60 59 58 58 56 56 54 54 53 52 52 52 52 50 49
46 47 48 40 52 58 59 60 59 53 62 69 62 63 65 65 63 62 63 63 62 62 63 61 61 54 58 60 59 57 57 56 55 54 53 53 53 53 52 51 51 50 49 47
43 38 35 57 59 59 59 61 64 62 66 65 65 64 64 66 67 63 63 63 63 63 62 61 61 60 60 60 58 56 55 54 54 52 51 52 52 51 51 51 49 49 48 47
38 44 51 59 56 54 52 57 65 63 65 66 60 60 64 64 65 65 64 64 65 65 62 61 58 59 59 57 57 54 53 52 52 51 50 50 50 50 50 49 48 48 47 46
39 37 35 54 56 59 59 50 62 61 61 59 58 53 64 65 63 62 64 65 64 62 59 56 58 58 56 55 54 52 51 51 51 51 49 49 49 49 49 49 47 47 46 45
41 38 48 58 58 59 46 51 61 60 61 59 57 64 63 64 62 64 64 62 60 58 57 56 54 54 53 53 51 52 50 50 50 50 49 49 48 48 47 47 46 43 40 42
39 36 36 58 57 51 59 62 61 62 63 60 63 61 59 61 61 61 60 58 58 54 54 52 53 53 52 51 51 49 49 49 48 48 48 47 47 47 46 45 43 41 34 36
51 52 58 60 62 64 61 60 62 61 64 62 60 60 60 58 58 57 57 52 53 51 47 49 52 52 50 48 46 47 46 47 47 47 47 47 45 43 42 44 42 40 39 37
49 59 59 60 62 64 65 63 64 65 64 63 60 62 59 56 55 54 55 51 48 43 45 46 48 46 47 47 46 45 45 46 46 45 45 45 45 41 41 41 40 39 38 37
50 57 60 62 63 63 63 64 63 64 63 60 60 60 59 55 52 50 45 42 42 44 48 47 46 46 47 46 45 44 45 44 43 44 44 44 44 41 41 43 41 39 37 36
50 57 57 59 62 62 60 60 60 58 59 57 57 57 54 51 47 42 39 40 44 46 46 45 43 44 45 45 43 41 40 42 42 41 43 41 41 40 35 34 34 34 33 33
52 57 57 59 60 58 56 54 54 53 53 51 52 52 46 38 38 38 41 42 42 41 42 41 41 41 43 42 40 39 40 40 41 39 40 39 37 36 35 37 34 33 33 33
54 54 55 53 50 52 51 50 49 48 46 43 41 39 37 35 35 37 39 41 41 39 40 40 39 40 43 44 41 40 40 35 40 39 38 38 37 36 37 35 34 34 33 34
49 52 51 51 51 50 50 46 40 37 36 35 35 35 35 35 36 39 40 38 38 38 38 40 41 43 45 42 41 41 41 40 38 37 38 35 35 34 34 34 33 35 36 32
46 49 49 46 41 39 38 37 35 35 36 37 38 39 42 43 42 40 40 39 35 37 41 36 35 40 43 43 43 42 42 35 35 38 38 36 37 35 34 34 33 34 34 34
42 36 36 35 35 36 36 38 40 42 43 43 40 40 41 40 38 38 41 40 35 34 35 35 35 45 43 43 42 43 43 42 36 38 37 37 36 35 34 33 33 34 34 34
39 38 39 40 38 38 41 42 42 40 40 39 35 33 33 32 35 36 35 35 33 33 35 38 39 41 41 43 43 42 40 38 37 36 37 35 35 35 33 33 34 34 34 35
45 44 44 44 44 42 41 40 40 38 34 34 33 33 33 33 36 37 36 32 32 33 40 42 36 34 40 40 37 40 38 35 34 36 36 34 33 33 33 33 33 33 33 34
43 44 43 42 41 39 37 39 35 39 40 36 33 33 33 33 33 33 33 32 36 40 42 42 40 39 39 39 35 41 38 34 33 33 33 34 33 32 32 32 32 32 32 33
41 41 38 38 37 35 33 33 33 35 36 33 32 32 31 32 33 32 32 37 42 39 40 36 38 41 43 41 40 38 34 32 32 32 33 32 32 33 32 32 32 32 32 32
41 37 33 34 36 37 36 36 34 32 32 31 31 31 31 33 33 33 34 34 40 35 37 38 40 38 39 32 38 34 33 33 33 33 32 32 32 32 32 32 32 32 32 32
39 38 36 33 33 35 35 33 31 31 29 30 30 30 31 31 32 30 30 37 37 36 34 34 34 33 32 32 33 32 32 32 32 31 30 30 29 30 30 30 30 31 31 32
37 36 35 34 33 32 31 33 33 33 31 31 31 30 31 31 31 35 35 34 33 33 32 33 33 32 31 32 32 32 31 29 29 28 27 25 27 27 27 27 26 27 27 28
33 34 33 32 32 32 31 31 31 31 30 30 30 31 30 31 28 30 31 31 31 31 32 33 33 32 31 31 29 27 27 26 25 24 24 23 23 23 24 24 23 23 22 23
33 33 33 31 30 30 29 29 27 28 27 26 27 27 27 28 28 28 29 29 29 30 30 28 25 26 25 24 24 22 22 22 21 22 20 20 20 20 20 19 19 20 21 21
30 28 30 30 29 27 25 24 23 22 24 23 21 24 25 24 24 24 24 24 24 23 23 22 20 18 18 18 18 18 18 18 16 16 16 16 16 16 16 16 16 17 19 20

GFSNGP_sfc_temp_030.txt.gz
Temp
63 65 63 62 62 64 61 60 51 56 60 67 71 70 72 74 74 73 73 74 74 73 70 69 67 67 67 63 60 59 57 57 56 56 58 57 54 53 53 52 52 51 50 49
55 62 62 57 62 63 63 64 63 63 62 73 74 73 71 71 72 72 72 73 74 73 73 70 68 67 65 62 59 58 56 55 57 57 57 54 53 51 51 50 50 50 49 48
45 55 53 42 54 59 62 65 64 56 64 71 70 71 69 70 71 70 70 71 72 72 71 70 67 63 61 62 59 56 55 56 56 57 55 53 53 52 51 49 49 48 47 46
43 40 35 58 68 66 62 65 68 68 68 69 67 69 70 72 70 69 71 71 70 71 70 70 69 62 61 62 58 56 55 56 56 55 54 53 51 49 48 48 47 46 45 45
38 43 52 58 64 61 59 58 66 64 66 68 69 68 68 72 70 69 68 69 70 70 70 69 67 64 62 59 57 54 54 53 54 54 52 50 48 47 47 46 45 45 45 44
43 37 34 55 63 67 66 48 65 65 63 63 66 51 60 68 69 69 71 71 70 70 69 67 63 61 58 56 53 52 52 51 51 51 49 47 47 46 45 46 46 45 43 42
41 38 47 64 65 66 46 49 64 64 64 63 59 61 66 68 67 69 70 69 69 67 64 62 62 57 51 50 48 50 50 50 49 47 46 48 46 45 44 43 41 38 37 38
44 35 34 66 63 52 59 64 64 64 64 61 63 64 65 67 68 67 67 65 63 55 52 51 52 50 46 44 47 46 45 44 45 47 47 48 45 43 42 40 38 37 33 33
50 48 63 67 64 68 67 63 64 64 65 64 63 63 65 65 65 64 64 61 56 50 47 45 45 45 42 43 45 44 44 44 44 46 47 47 43 40 39 38 34 34 33 32
55 63 65 67 69 69 67 63 65 65 65 64 61 61 62 63 60 60 54 53 51 45 41 39 42 44 45 47 46 44 41 41 43 43 43 42 43 41 39 34 32 33 33 32
57 62 64 65 63 62 62 63 61 62 61 58 59 60 59 54 50 48 45 43 41 40 41 42 45 46 46 45 44 42 42 43 42 40 40 40 42 41 35 36 35 32 32 32
49 58 57 57 58 60 57 56 56 56 54 52 53 51 49 44 43 42 40 41 41 42 43 44 44 45 46 46 45 42 40 40 36 35 36 38 39 38 39 36 36 36 36 32
56 59 59 58 58 55 49 49 50 49 49 46 46 45 43 40 40 38 40 41 41 41 43 44 44 43 45 44 42 37 36 35 36 34 36 34 34 35 33 36 37 36 35 35
58 58 52 56 51 51 48 47 46 46 45 44 43 42 40 39 40 40 41 43 45 46 45 44 44 43 44 44 41 37 37 36 37 37 35 33 34 34 33 33 32 33 34 34
56 57 53 51 49 48 48 47 43 42 42 42 43 42 43 42 43 45 46 46 45 44 45 46 44 44 48 45 43 40 39 39 38 36 34 33 33 34 34 33 33 33 33 32
50 50 48 46 45 45 45 45 42 42 44 43 42 41 45 46 45 45 46 44 38 37 39 32 32 38 42 45 45 44 43 38 35 36 34 34 34 34 33 33 33 33 33 33
41 39 42 42 43 44 45 45 43 42 43 41 37 35 37 36 38 38 40 38 34 33 34 35 35 43 40 43 43 42 41 41 36 35 34 34 34 34 34 33 32 31 32 33
46 46 46 45 44 42 42 43 41 40 37 35 32 33 32 31 32 35 34 34 33 33 35 38 36 37 39 43 42 40 38 38 38 36 35 33 34 34 33 33 32 31 32 32
47 45 46 46 45 44 42 40 38 36 33 32 31 31 32 32 32 32 33 33 32 34 34 36 34 36 37 37 35 35 34 34 35 36 36 32 32 32 32 32 32 32 32 32
46 46 44 41 41 39 36 36 37 37 34 32 29 29 29 28 28 27 29 31 34 33 34 34 34 35 36 36 33 34 33 32 32 32 33 32 31 31 31 29 32 32 31 32
43 41 38 36 35 33 32 32 31 33 33 27 27 26 26 29 30 29 31 31 33 31 31 31 32 33 32 31 31 31 31 31 31 32 32 32 31 31 31 32 32 31 31 30
40 35 34 35 36 35 34 34 32 28 28 25 24 23 24 29 28 29 27 28 30 28 28 29 29 24 24 23 30 29 29 30 31 31 32 32 32 30 29 26 28 28 27 27
38 36 35 34 34 35 34 33 28 28 25 24 24 25 27 28 29 26 24 29 29 25 27 27 23 20 20 24 24 24 25 25 23 24 26 27 27 27 26 25 25 25 24 24
38 38 36 36 35 35 33 34 35 34 26 29 26 23 27 26 26 29 28 25 22 22 23 23 20 18 18 20 20 20 20 20 18 19 20 21 22 22 22 22 21 21 20 20
36 36 36 35 36 34 34 33 34 33 30 31 30 30 28 29 25 25 25 24 22 22 22 22 20 17 18 18 17 16 16 16 15 15 16 16 16 17 17 16 16 16 16 17
37 36 34 33 32 32 31 30 28 29 27 26 26 25 27 27 26 24 24 22 22 21 20 20 19 18 16 16 16 15 14 14 13 13 13 13 13 13 12 13 13 13 14 14
32 33 34 33 31 30 27 27 25 24 25 23 21 23 26 25 24 22 20 21 20 19 18 18 18 17 15 15 14 14 13 12 12 11 11 10 10 9 10 10 11 13 13 13

GFSNGP_sfc_temp_033.txt.gz
Temp
53 56 58 58 55 55 52 50 41 46 50 56 56 59 59 61 62 63 64 64 63 63 63 63 62 60 60 58 57 57 55 55 53 54 55 53 51 51 50 48 48 48 49 48
45 55 54 49 54 54 54 54 52 53 51 59 60 61 60 61 63 62 62 63 63 64 61 60 59 58 58 56 56 56 54 53 54 53 53 50 50 50 49 47 47 48 46 45
36 45 46 35 47 52 53 55 53 46 51 56 56 59 58 59 61 60 61 62 63 62 63 60 59 57 55 55 53 52 53 53 53 52 51 49 50 49 47 46 46 44 45 45
32 33 26 47 58 59 55 55 55 55 55 56 56 57 58 58 57 57 59 60 60 60 60 59 55 53 54 54 52 52 52 52 52 50 48 47 48 45 44 44 43 43 43 43
31 30 41 50 54 52 50 48 55 53 55 56 57 55 53 59 59 59 59 60 60 59 59 54 53 55 54 52 53 52 49 48 48 47 47 46 44 42 42 42 42 42 43 42
31 27 24 43 55 59 57 37 54 55 53 53 54 39 46 58 60 59 59 55 51 54 55 53 52 52 48 46 45 44 44 45 45 45 44 42 41 41 42 43 44 43 41 40
26 25 35 54 58 58 37 39 54 55 53 52 48 49 55 58 59 58 54 50 48 46 45 45 46 46 43 43 42 44 45 45 44 43 43 43 42 42 42 41 38 36 35 35
32 30 30 57 55 45 48 52 55 54 53 53 53 55 56 58 57 54 48 46 44 41 41 43 43 43 41 40 43 43 43 43 43 43 44 44 41 42 41 37 35 34 31 31
39 37 50 55 55 56 56 53 52 52 54 54 52 53 54 51 50 47 44 41 41 40 41 42 43 43 39 41 43 42 42 41 41 42 42 43 39 37 36 35 31 31 30 27
46 52 53 55 55 56 55 53 54 52 51 52 50 48 47 45 43 40 39 39 42 41 40 39 42 43 43 42 42 40 37 38 38 37 38 38 38 36 34 29 28 30 29 29
47 52 51 52 52 53 52 52 50 49 48 48 46 45 42 39 39 40 40 41 41 40 39 40 42 41 41 41 40 38 38 38 37 36 35 35 36 35 32 31 30 29 29 29
36 50 48 47 49 50 47 46 48 46 43 44 43 41 40 38 39 40 39 39 39 38 39 41 42 40 41 41 39 36 35 34 29 29 30 32 32 32 36 35 36 36 36 31
48 52 50 46 46 47 44 44 45 43 43 40 40 39 38 35 37 36 36 38 40 39 39 39 39 38 39 39 37 35 32 32 30 31 30 30 29 29 28 31 36 36 36 36
53 52 46 46 41 44 43 43 42 41 40 38 37 37 35 35 38 39 38 39 40 40 39 39 38 37 39 39 37 34 32 32 31 31 31 32 30 29 28 28 28 30 32 35
47 49 46 45 45 43 43 42 39 39 39 37 37 36 36 37 37 38 39 39 38 37 36 36 34 34 37 36 37 35 33 32 32 32 32 34 33 30 29 29 28 29 30 27
45 45 44 42 42 42 40 39 38 38 38 38 35 34 36 37 37 37 36 34 30 30 31 31 32 33 35 38 38 37 36 33 31 32 32 33 33 31 30 29 29 29 28 29
38 36 37 38 39 41 40 40 39 38 36 32 30 32 32 31 32 31 32 32 31 31 32 32 32 37 35 38 37 36 34 34 32 33 33 33 32 32 32 30 28 28 28 29
44 44 43 43 40 38 37 36 34 31 30 31 32 32 31 29 29 30 28 28 25 28 32 32 31 32 32 34 32 31 30 29 30 30 31 31 32 32 31 30 28 25 29 26
45 44 43 43 41 38 36 34 32 30 30 31 28 26 25 23 29 29 28 22 24 25 27 29 28 29 29 28 27 27 26 26 27 28 28 28 29 30 32 32 28 24 25 26
40 39 38 36 35 34 32 33 31 30 30 27 23 22 23 21 19 19 21 23 26 25 27 27 27 24 24 24 22 24 25 25 25 25 26 27 28 30 31 28 26 24 28 30
36 34 32 32 31 31 29 28 28 29 28 23 21 16 15 19 19 16 21 22 25 24 25 23 22 20 21 19 22 22 21 20 21 21 22 22 23 27 30 29 28 27 21 21
36 33 32 31 31 30 30 30 28 25 23 18 13 13 15 23 18 20 16 21 24 15 21 22 20 14 17 15 19 17 17 17 15 16 16 18 19 20 21 22 23 23 21 21
34 33 32 31 29 30 30 28 23 22 18 17 15 17 18 22 21 17 16 23 23 17 21 18 10 10 10 14 14 13 13 13 11 12 13 14 14 16 16 15 16 16 15 16
33 33 32 32 30 29 28 29 29 28 18 22 17 13 20 13 11 21 20 15 10 9 9 16 11 9 5 7 11 9 10 11 10 9 10 11 11 12 12 12 12 12 13 13
33 32 32 29 29 27 28 28 28 27 26 26 23 24 23 22 12 14 10 11 13 11 8 9 9 7 2 0 2 8 7 8 9 7 7 8 9 8 9 9 10 10 11 12
31 29 28 28 27 26 25 25 22 21 20 15 16 10 13 15 14 14 11 10 12 11 8 4 3 6 3 -0 -0 -1 3 4 6 6 4 5 6 5 6 7 8 9 9 10
29 28 27 25 26 25 22 20 16 14 14 7 8 9 15 14 8 11 5 3 3 5 2 3 1 3 6 4 -1 1 -1 -2 1 5 -3 0 2 2 4 5 6 7 8 8

GFSNGP_sfc_temp_036.txt.gz
Temp
50 52 52 51 52 51 48 47 40 45 46 53 54 53 54 57 58 58 57 58 58 58 57 58 57 59 59 53 53 54 53 51 50 49 52 51 49 49 47 47 47 47 45 45
42 49 49 46 50 49 50 50 48 49 47 52 54 54 55 56 58 56 56 58 58 58 58 57 56 54 54 52 51 51 51 51 51 51 48 48 47 47 45 47 47 45 45 45
35 42 42 34 44 50 51 51 51 43 49 51 52 54 53 53 54 54 55 56 56 56 56 56 55 54 51 51 51 50 51 51 51 51 49 47 47 47 45 44 43 42 43 42
31 32 25 45 54 53 49 49 50 51 50 51 52 50 52 53 53 54 55 55 55 54 54 53 51 49 50 51 50 51 51 50 49 47 46 45 43 43 42 42 42 41 41 41
30 29 39 47 52 50 46 44 50 49 51 52 52 51 51 55 54 53 51 49 49 49 49 49 49 50 50 48 46 46 45 45 45 45 44 43 42 40 41 40 40 40 41 39
29 27 24 41 51 56 53 36 52 51 49 50 49 38 45 53 51 47 46 46 45 46 46 45 45 46 44 42 41 40 41 42 43 43 42 40 40 40 39 39 40 39 38 38
24 25 33 47 54 54 38 38 51 51 50 50 45 46 51 48 46 46 44 43 43 42 41 42 43 43 40 40 40 43 43 43 42 42 42 41 39 39 38 37 36 34 33 33
31 26 30 52 52 45 46 48 51 50 50 48 48 49 49 47 44 42 40 41 42 40 40 42 44 43 41 40 43 44 43 42 41 40 41 41 37 36 36 34 32 31 26 30
38 36 48 51 50 51 51 49 48 48 49 50 47 45 45 42 40 39 39 38 42 42 41 42 43 43 40 39 41 41 41 40 38 38 38 38 35 33 31 31 27 29 29 27
43 46 47 48 50 50 50 47 47 48 47 47 43 42 40 39 39 38 39 41 42 41 39 39 41 41 39 40 40 38 37 36 36 35 35 34 34 33 31 27 26 29 28 28
41 44 47 47 47 47 46 46 45 45 44 43 41 40 39 38 38 39 39 40 41 39 39 39 39 38 39 39 38 37 36 36 34 33 32 32 32 32 31 31 30 29 28 28
37 48 44 43 45 47 45 43 43 41 40 41 40 38 37 35 36 36 38 39 39 39 38 37 38 38 39 39 37 35 34 33 29 28 29 30 30 32 35 34 34 35 35 29
45 47 44 43 44 44 41 41 41 39 39 36 37 37 36 34 35 36 36 36 36 36 36 36 35 35 36 36 35 34 32 32 30 30 29 29 30 30 30 35 35 35 36 36
46 45 40 42 38 41 40 39 40 39 38 37 36 35 33 34 35 35 34 36 36 35 34 33 32 32 34 34 34 33 31 31 30 30 30 31 30 31 32 31 31 31 32 34
44 45 43 42 41 39 40 39 37 35 34 34 34 33 34 33 33 32 33 33 33 31 32 33 32 33 35 34 34 33 34 33 33 33 33 32 32 32 32 32 32 32 31 27
42 42 41 38 38 38 38 37 34 33 33 32 31 32 34 34 32 32 31 31 30 30 32 29 29 32 32 34 32 31 30 28 28 29 29 29 30 31 32 32 32 32 31 30
36 34 36 35 36 37 37 36 35 33 31 30 30 32 32 30 30 29 29 29 30 29 29 27 26 30 30 28 27 26 25 26 24 26 26 26 26 26 27 28 30 32 32 30
43 41 41 40 37 36 34 34 31 31 31 31 31 26 24 24 27 28 26 25 25 24 26 27 27 26 26 26 25 24 24 24 25 24 25 25 25 26 26 26 27 28 30 29
43 41 41 40 38 36 33 29 30 31 30 27 25 24 24 22 27 26 25 20 20 22 24 25 24 23 23 23 22 22 21 19 20 21 21 21 20 22 21 24 27 29 30 28
39 39 37 36 35 32 29 30 30 29 28 25 22 22 23 19 17 19 21 21 22 23 25 23 22 21 21 20 18 19 16 16 15 14 14 15 16 16 18 18 18 22 25 25
35 34 32 30 30 31 30 29 28 27 27 20 20 17 17 20 18 16 19 21 23 22 23 20 19 18 19 15 17 13 12 11 9 10 11 11 11 13 13 14 15 15 16 17
33 31 30 30 30 29 29 29 28 24 22 18 16 14 16 22 17 18 14 20 22 11 18 19 18 8 13 8 14 7 11 11 8 8 8 8 8 9 9 10 11 12 13 13
32 32 31 29 29 29 28 27 23 22 19 17 16 17 20 22 20 15 14 22 20 13 18 13 6 3 3 -0 0 -2 -1 4 5 5 6 5 6 6 6 7 8 9 10 11
32 32 31 31 29 28 26 27 28 25 20 21 15 12 20 14 10 19 19 11 6 4 3 6 2 3 -1 -5 -5 -5 -5 -6 -0 -2 2 -1 4 2 3 5 5 6 8 9
32 32 30 29 28 27 28 28 26 26 24 23 22 22 21 21 11 13 7 7 9 7 4 2 2 2 -5 -8 -8 -9 -7 -9 -8 -1 -8 -5 -0 -1 -0 2 2 5 6 6
29 27 27 27 26 25 25 24 20 20 19 13 14 5 8 14 14 11 6 4 6 5 2 -3 -6 -5 -6 -3 -7 -9 -7 -5 -8 -2 -11 -9 -5 -4 -3 -1 -0 1 3 4
27 25 25 24 24 23 22 20 16 13 12 5 6 4 14 9 5 6 -3 -5 -4 -3 -6 -5 -7 -5 -5 -3 0 -5 -8 -10 -10 -7 -15 -14 -11 -8 -5 -2 -2 -1 1 1

GFSNGP_sfc_temp_039.txt.gz
Temp
46 49 49 49 49 48 45 44 39 44 42 50 51 51 52 55 54 54 54 55 55 54 53 54 54 54 54 51 50 51 51 50 48 49 51 50 48 45 46 46 46 47 46 45
40 46 47 45 49 48 48 46 46 45 45 50 50 49 51 52 52 52 53 54 54 55 56 55 55 53 52 49 49 50 49 48 49 50 49 47 46 44 43 44 45 45 43 43
35 39 40 34 42 47 48 49 49 42 48 49 48 50 49 49 51 51 52 53 53 53 54 53 51 51 48 47 48 48 48 49 49 48 47 45 46 45 44 43 42 40 41 41
30 32 25 45 49 50 47 46 48 48 48 49 48 47 49 50 50 51 51 50 49 48 48 46 46 46 47 48 47 48 48 48 48 46 44 44 44 43 41 40 39 38 38 39
30 30 38 45 47 47 45 42 48 46 47 48 49 48 48 52 49 47 45 44 43 43 44 44 45 46 45 44 43 43 42 43 44 44 43 43 42 41 40 39 37 37 38 36
28 27 25 41 48 52 50 35 49 48 47 47 46 38 43 48 45 42 42 42 41 42 42 42 42 43 40 39 39 39 42 43 43 42 41 40 40 39 37 37 37 36 36 35
23 25 33 45 51 52 38 39 48 49 48 46 44 44 44 43 40 41 40 40 41 40 39 39 41 41 39 40 39 42 43 43 43 42 41 41 39 37 36 35 34 32 32 32
27 24 30 49 49 44 45 45 48 48 48 45 43 42 42 40 39 39 38 39 40 39 39 40 40 41 39 39 42 43 42 42 41 41 41 41 36 35 34 32 31 31 26 29
38 37 46 46 49 48 48 48 47 48 47 46 42 41 40 38 38 38 37 37 40 39 39 41 42 42 39 39 41 41 41 38 37 37 36 36 33 32 31 30 28 29 29 27
41 43 43 44 45 46 47 46 46 47 46 44 40 39 37 38 37 37 37 37 38 39 39 38 40 40 40 40 39 37 35 34 34 33 33 33 32 32 30 28 26 30 29 29
38 41 44 44 43 43 43 43 42 42 42 40 39 38 38 36 36 36 37 38 40 39 38 38 40 39 37 37 37 35 35 34 33 32 32 32 31 31 31 31 31 31 31 30
36 45 44 42 43 44 42 40 41 40 38 39 39 37 37 35 36 36 36 39 39 38 37 35 34 33 33 34 33 32 32 32 29 29 29 30 30 31 35 33 34 35 35 32
47 49 43 42 41 42 40 39 39 38 38 35 37 37 36 34 34 36 37 37 35 32 32 31 30 31 32 32 32 31 30 30 30 30 29 29 30 30 29 33 36 36 36 35
44 43 38 39 36 39 39 38 39 37 37 36 35 35 33 32 32 32 31 31 32 31 32 31 30 30 31 32 32 30 30 30 29 30 30 30 29 30 31 30 30 31 35 35
41 43 41 39 38 37 38 37 35 33 33 32 32 32 32 30 30 30 30 31 33 33 30 28 27 27 30 30 29 28 28 26 26 23 23 24 24 24 25 25 25 27 30 31
39 39 38 36 35 36 36 34 32 30 31 31 31 31 31 31 29 29 31 32 31 26 25 20 25 27 28 27 26 26 25 24 22 24 24 24 25 24 24 24 25 25 25 26
35 33 34 35 34 35 34 35 33 31 30 31 30 30 30 30 29 28 28 28 24 23 25 24 23 26 26 25 24 23 21 22 20 22 22 21 22 20 21 19 19 20 24 28
42 40 40 39 36 35 33 32 31 31 30 30 28 24 24 25 26 25 24 24 21 21 24 24 24 24 24 23 23 22 20 19 18 17 18 16 16 18 17 18 17 16 17 19
42 40 40 39 37 34 32 31 31 31 28 27 26 25 24 24 27 24 22 17 15 20 23 23 23 22 21 21 19 18 15 14 13 14 13 12 12 12 13 12 13 14 15 16
39 38 37 35 33 32 30 31 29 29 29 27 24 23 22 19 19 18 19 19 21 22 24 21 21 19 19 18 13 15 12 8 10 8 8 8 6 7 9 8 10 11 12 13
34 33 32 31 29 29 29 29 28 28 27 23 22 20 20 20 17 15 17 19 22 21 22 18 17 16 17 12 14 8 4 1 1 4 3 3 3 5 4 4 5 7 8 10
33 31 30 29 29 29 29 29 27 24 22 18 16 17 17 19 16 17 14 19 21 11 17 17 16 5 10 5 11 -1 5 4 3 0 1 1 0 1 0 1 2 3 4 7
31 31 30 29 28 28 28 26 23 21 19 18 18 18 20 21 20 15 14 20 19 11 16 10 4 1 -1 -5 -5 -8 -7 -7 -6 -3 -8 -8 -5 -2 -2 -1 0 1 2 4
31 30 29 30 28 27 25 26 27 24 20 20 16 15 20 15 12 19 17 9 4 1 1 2 -0 1 -4 -9 -10 -10 -11 -13 -13 -9 -9 -10 -12 -9 -6 -5 -3 -2 -0 1
30 30 30 28 28 27 27 27 25 24 23 23 21 22 21 19 11 13 7 6 6 5 1 -2 -1 -3 -9 -12 -12 -13 -12 -14 -15 -13 -16 -17 -12 -11 -11 -8 -6 -5 -3 -2
30 28 28 27 26 26 24 24 21 21 18 13 13 6 12 13 12 11 4 1 4 2 -0 -8 -10 -11 -12 -8 -8 -11 -12 -9 -15 -13 -17 -17 -15 -13 -13 -10 -8 -6 -5 -3
24 24 24 23 23 22 21 20 18 17 15 9 9 7 11 8 6 5 -5 -8 -8 -8 -8 -10 -12 -9 -10 -13 -10 -6 -9 -14 -15 -14 -20 -21 -18 -18 -16 -12 -10 -8 -6 -5

GFSNGP_sfc_temp_042.txt.gz
Temp
44 46 47 46 46 45 43 43 39 43 41 48 49 51 51 51 49 50 50 50 52 52 52 52 53 53 53 50 48 48 48 48 45 46 47 47 47 45 45 44 44 45 44 43
38 44 44 42 46 44 44 43 43 43 43 50 47 46 48 48 49 49 50 51 52 52 53 52 52 51 51 49 47 48 47 45 46 47 47 46 43 43 43 44 44 43 43 42
36 38 40 34 41 45 45 45 47 39 47 48 45 47 45 47 49 48 48 48 47 47 46 47 47 49 47 45 45 45 45 46 47 47 45 45 45 44 42 42 42 41 41 41
29 31 26 44 46 47 45 46 47 46 46 47 47 46 47 47 47 46 45 44 43 42 43 43 43 43 44 45 44 45 44 45 46 45 44 44 44 42 41 41 40 39 38 37
30 29 37 42 45 45 44 44 47 44 44 45 46 46 45 45 43 41 40 40 39 40 40 40 40 42 41 41 41 41 40 41 44 44 43 42 41 41 41 39 38 38 37 36
27 27 25 40 47 50 49 37 47 46 44 45 45 38 41 42 41 39 38 38 38 38 39 38 38 40 39 38 39 39 40 42 43 43 42 41 40 40 39 38 37 35 35 34
22 25 33 44 48 50 37 39 47 48 45 44 43 42 40 39 38 38 38 38 39 38 37 37 38 40 38 39 38 40 43 43 43 42 42 41 40 37 36 35 33 32 32 32
26 24 30 48 47 43 45 43 46 46 46 44 39 39 38 38 37 38 36 37 38 37 37 38 39 39 37 36 39 42 42 41 41 40 40 39 35 34 33 31 30 30 27 30
38 38 46 46 47 48 47 46 46 47 45 44 39 38 38 36 36 36 36 35 37 37 37 38 38 38 36 38 39 39 37 37 35 35 34 33 32 31 30 29 26 29 29 29
41 44 44 44 44 45 45 45 46 45 45 43 38 38 36 36 35 35 34 34 36 37 36 35 37 39 39 39 39 36 33 33 32 32 32 32 31 31 29 27 27 30 29 30
39 41 41 44 43 42 41 42 42 41 41 39 38 36 36 35 35 35 35 36 37 36 37 36 36 34 34 32 33 32 32 32 31 30 30 30 30 29 30 30 30 30 30 29
40 46 46 45 41 42 41 39 40 39 37 38 38 36 36 34 34 34 34 35 36 36 34 32 32 30 31 32 31 31 31 30 28 28 27 29 29 30 34 33 34 35 35 32
48 47 41 41 40 41 39 38 38 38 38 35 36 36 35 33 32 35 34 34 33 31 30 29 29 28 29 30 30 29 27 28 27 27 26 25 25 25 22 27 31 31 32 32
43 43 38 41 37 38 38 37 38 36 36 36 35 34 33 31 32 31 31 30 31 30 28 28 27 26 28 28 28 27 26 25 23 23 22 22 19 21 22 22 21 22 28 29
40 41 42 38 38 36 36 36 34 32 32 32 33 32 32 30 29 29 30 32 29 27 27 26 25 25 26 27 26 25 24 22 22 20 20 20 20 21 22 21 19 18 20 22
38 38 38 35 34 34 34 33 32 32 33 33 32 31 30 29 29 30 32 32 27 24 24 19 23 24 26 25 25 23 23 21 20 20 20 19 18 17 18 18 18 17 16 16
34 32 33 32 32 33 34 35 34 33 33 32 31 31 30 29 29 28 26 25 23 23 23 22 22 25 25 24 23 21 19 19 16 17 16 16 14 14 14 15 13 13 14 15
40 39 39 36 34 32 32 32 32 32 31 31 30 28 26 26 27 26 23 23 22 21 22 23 23 24 23 22 21 19 16 15 14 13 13 11 11 11 11 10 10 10 11 13
40 38 38 37 36 33 31 30 31 30 29 28 27 25 25 25 26 24 22 19 18 20 21 22 22 20 20 19 17 15 13 8 9 11 9 5 5 6 7 5 5 6 7 8
38 37 35 33 32 31 30 30 30 29 29 26 25 24 23 21 21 19 19 19 21 22 22 20 19 18 17 16 11 12 9 3 7 3 1 2 -6 -5 -2 0 3 3 2 4
33 32 31 30 30 30 29 29 29 28 27 25 24 22 22 20 19 18 18 18 21 21 21 18 17 16 16 11 12 4 -2 -5 -5 -3 -5 -9 -10 -6 -7 -7 -3 -2 -0 1
31 29 28 29 29 28 29 29 27 25 23 21 20 20 19 19 17 17 16 19 21 15 17 17 15 5 9 5 9 -3 2 -1 -3 -5 -8 -10 -11 -11 -9 -10 -6 -4 -3 -2
30 29 29 28 28 27 27 25 23 22 20 20 19 20 20 21 20 16 16 20 19 12 16 10 4 1 -1 -6 -7 -10 -10 -11 -11 -10 -15 -18 -18 -16 -13 -9 -8 -8 -6 -4
30 30 29 29 27 27 24 25 26 23 21 21 18 17 20 15 12 18 17 10 6 2 3 3 0 -0 -6 -11 -12 -13 -14 -16 -17 -17 -13 -15 -21 -19 -16 -15 -12 -9 -8 -7
29 28 27 26 26 26 26 25 24 24 23 22 21 21 21 19 12 13 9 6 8 6 2 -2 -2 -6 -12 -14 -15 -14 -15 -17 -18 -18 -20 -22 -19 -19 -17 -17 -15 -12 -10 -9
27 26 25 26 25 25 25 24 21 20 18 15 16 14 13 13 12 10 6 4 4 2 1 -7 -11 -13 -14 -13 -14 -14 -10 -8 -16 -17 -20 -22 -22 -18 -19 -16 -15 -13 -12 -10
24 23 22 21 21 21 21 20 19 17 16 15 14 13 12 10 5 6 -2 -6 -7 -8 -10 -11 -13 -11 -12 -16 -15 -13 -11 -12 -17 -15 -22 -25 -25 -23 -21 -20 -17 -15 -13 -11

GFSNGP_sfc_temp_045.txt.gz
Temp
49 51 52 52 51 49 50 50 46 51 48 57 60 60 61 59 58 58 58 59 59 61 61 62 62 62 62 61 58 58 56 55 53 53 54 54 53 50 50 47 47 48 45 46
46 48 50 49 51 50 50 50 50 50 50 59 59 58 56 55 56 55 55 55 55 56 57 57 58 60 58 56 55 55 54 53 53 53 50 46 45 44 44 44 46 48 45 43
41 44 46 39 46 50 51 52 53 47 56 56 55 55 54 54 55 53 52 52 51 50 50 51 52 54 53 53 53 53 52 52 50 48 46 45 46 45 45 44 44 43 43 43
37 37 33 51 53 54 52 52 54 53 55 55 56 54 54 55 54 51 50 48 48 49 48 49 50 50 51 52 51 51 51 50 49 46 45 46 44 43 43 42 42 42 42 43
36 38 44 49 51 50 49 54 55 55 54 53 52 53 49 47 49 48 46 45 45 47 47 47 48 49 49 48 49 48 47 48 48 48 46 45 43 42 42 42 43 45 45 45
34 35 34 47 54 55 56 44 55 54 51 50 52 48 52 46 45 44 45 46 45 45 46 46 46 48 47 46 46 45 46 47 48 47 45 45 43 41 41 44 44 45 44 44
33 36 41 50 54 55 44 49 53 53 52 52 52 52 49 45 43 44 44 43 45 45 44 45 47 47 45 46 45 47 48 48 46 43 42 42 41 43 45 44 43 41 40 42
35 34 37 52 51 48 54 53 53 53 53 51 45 43 43 43 42 42 43 43 45 43 43 45 47 47 45 43 46 47 45 42 42 43 43 43 43 42 42 41 40 40 35 39
45 45 53 53 57 56 54 55 52 53 52 48 43 43 42 41 41 42 43 43 44 43 42 44 45 46 43 43 45 44 43 41 41 41 41 41 41 40 41 41 39 38 37 37
47 51 51 52 53 52 54 54 53 55 53 49 45 42 41 41 40 41 42 42 43 42 40 39 41 41 40 41 41 41 40 39 39 39 39 40 40 40 39 37 36 36 35 35
45 48 47 51 50 52 49 48 48 49 49 47 43 41 41 40 40 41 41 41 42 40 38 37 37 36 37 39 41 39 38 37 37 36 36 37 37 36 35 36 34 32 33 32
44 53 53 56 55 48 46 46 47 45 43 44 44 41 41 40 40 40 39 40 39 37 35 34 34 34 36 37 38 37 35 35 32 33 33 33 33 33 32 30 31 31 30 29
52 50 45 43 44 47 45 44 44 44 43 40 41 41 40 37 38 37 38 37 36 33 32 32 33 32 34 34 34 32 31 31 31 30 30 29 29 28 27 30 30 29 27 27
45 46 44 43 43 42 42 41 41 41 41 40 40 40 38 37 36 35 34 34 33 33 32 32 31 30 31 33 32 30 30 26 28 29 28 27 27 26 27 25 23 25 27 25
42 44 44 41 40 38 39 39 37 36 36 36 37 36 36 34 32 31 32 32 32 32 30 30 29 28 30 30 30 29 28 27 26 26 25 24 24 23 24 23 22 22 23 24
39 40 41 39 37 37 37 37 34 34 35 35 35 35 34 32 32 32 31 32 30 27 27 23 25 27 28 29 28 27 27 22 22 24 23 22 21 21 20 20 19 19 19 18
35 34 34 34 35 35 35 36 36 35 34 33 31 31 30 30 29 28 28 27 24 24 24 24 25 27 27 27 25 25 24 22 18 21 20 19 18 18 17 17 15 16 16 16
42 40 39 37 36 34 34 34 34 34 32 30 30 29 28 28 27 26 25 24 23 22 24 24 25 25 24 23 23 21 19 18 18 17 17 15 14 15 14 13 13 13 13 14
39 37 37 36 36 34 33 33 32 30 29 29 28 27 27 26 27 25 25 22 20 21 22 24 22 22 21 20 20 18 16 14 15 15 14 11 11 11 11 10 10 10 10 10
36 36 35 34 34 33 30 30 30 29 29 28 27 25 24 23 22 22 23 23 24 24 24 22 21 20 19 17 16 17 14 13 12 12 10 9 8 7 8 7 7 8 8 8
32 32 31 31 30 30 30 30 28 27 28 28 27 24 23 22 21 21 21 21 22 23 22 20 19 19 18 17 16 13 12 11 10 9 7 6 5 6 5 5 5 5 6 6
30 29 28 28 28 28 29 30 28 26 25 23 22 22 21 21 20 20 21 22 23 20 21 20 18 12 15 13 15 13 12 10 9 9 7 6 5 3 3 3 3 3 4 4
30 29 28 27 27 27 27 26 24 24 23 22 21 22 23 23 23 21 19 21 21 18 20 18 12 9 7 13 12 10 9 8 7 6 5 4 3 2 1 1 0 1 1 2
29 28 27 28 28 27 25 25 26 24 23 23 21 22 23 20 19 21 21 16 14 16 16 14 11 8 6 10 10 9 7 7 6 5 5 -3 2 1 1 -1 -2 -1 -1 -1
28 28 28 27 25 24 24 24 25 25 24 23 23 23 22 22 21 19 18 16 15 15 14 6 6 3 9 9 8 7 7 6 6 4 3 2 1 -1 -1 -2 -4 -3 -3 -2
25 24 24 25 25 24 24 24 22 22 21 19 19 19 18 18 17 17 15 14 14 11 13 10 8 8 8 8 7 5 5 6 5 4 1 1 -0 -2 -3 -4 -5 -5 -4 -4
22 22 22 20 21 21 22 22 20 18 19 19 18 18 17 16 14 14 12 12 11 10 9 8 7 6 7 6 5 5 5 5 1 2 1 -1 -2 -3 -5 -6 -6 -6 -6 -6

GFSNGP_sfc_temp_048.txt.gz
Temp
62 64 64 62 62 62 59 60 54 58 61 66 71 73 75 73 69 69 70 71 71 73 73 73 72 71 71 69 67 67 64 61 58 57 57 58 59 59 57 54 52 51 48 44
55 62 61 58 62 64 62 63 63 62 62 72 75 74 71 69 68 67 66 66 68 69 69 68 68 69 66 66 64 66 64 61 60 60 60 57 54 53 52 49 50 48 50 48
49 57 56 44 55 61 63 64 63 58 66 73 70 69 71 68 68 65 64 64 64 64 64 64 64 65 64 63 64 62 61 59 57 56 54 53 54 53 51 51 48 47 46 45
48 42 35 60 65 67 64 66 69 67 70 71 71 71 67 69 66 63 62 61 61 62 61 62 63 63 62 63 62 60 59 57 56 55 54 54 53 52 49 48 46 45 44 46
42 45 55 55 58 60 59 62 71 68 71 72 66 63 58 64 66 63 61 60 60 61 60 61 61 61 61 60 59 58 57 56 56 55 54 54 50 48 48 44 43 47 50 51
44 42 37 58 67 69 66 54 71 70 67 67 63 55 64 59 58 57 58 59 58 58 59 59 59 60 58 57 56 55 55 55 56 55 53 51 47 43 42 46 53 53 51 51
46 44 53 64 65 67 51 56 70 71 69 65 60 67 64 59 57 58 57 56 57 58 57 57 58 58 56 55 53 55 55 54 52 50 47 44 45 50 52 52 50 48 46 48
48 40 40 63 61 58 67 65 69 67 68 64 64 59 57 56 55 54 54 54 56 55 54 56 58 57 55 53 54 54 52 48 46 48 50 51 50 50 50 50 47 46 43 45
53 54 66 64 69 70 71 71 66 68 67 66 57 56 55 53 53 54 55 55 56 54 53 54 56 56 52 51 52 51 50 49 49 49 49 49 49 48 48 47 45 43 42 41
52 64 64 65 69 67 68 68 68 69 67 62 58 56 54 53 53 53 55 54 54 51 49 48 50 51 50 50 51 49 47 47 47 46 47 47 48 47 46 42 40 39 38 37
57 63 58 62 66 69 64 62 62 66 65 61 59 55 54 52 52 53 53 52 52 49 47 46 47 46 48 49 49 47 46 45 44 44 44 45 44 42 39 39 34 35 35 34
53 65 61 69 71 68 63 60 62 62 60 61 59 55 54 52 53 51 50 50 48 47 45 44 43 43 45 47 47 45 42 41 38 40 40 42 42 42 30 30 30 30 28 28
62 58 58 55 57 64 63 61 61 60 60 57 57 55 54 51 51 46 48 47 45 43 42 40 40 41 42 42 42 40 39 38 38 37 38 37 37 36 35 35 31 30 28 28
55 53 54 52 54 52 55 55 53 57 56 55 54 53 51 48 45 46 45 44 43 41 39 39 40 38 40 40 39 37 35 30 37 37 36 35 34 33 33 31 29 30 30 28
53 51 52 51 50 49 48 50 49 49 49 49 50 47 45 42 42 41 41 40 39 39 39 39 37 36 38 37 37 36 35 34 33 33 31 30 31 30 30 29 28 28 29 29
48 49 48 48 47 44 46 46 45 42 43 43 43 43 43 40 39 39 36 35 32 32 35 29 31 34 35 36 36 35 31 25 27 31 30 29 29 28 27 27 26 25 25 25
45 43 44 43 44 43 43 44 42 41 40 40 38 37 36 34 32 29 27 27 25 24 26 28 29 32 32 33 33 34 33 30 23 30 28 26 26 25 25 24 23 22 23 22
52 51 49 48 44 42 39 40 39 37 34 34 33 31 30 29 27 26 25 25 24 24 26 28 29 29 29 29 30 28 27 26 26 25 25 23 21 23 22 21 21 20 21 21
48 47 45 45 44 40 38 35 34 32 31 31 30 29 28 28 27 25 25 23 22 22 24 26 25 27 25 23 25 25 24 23 24 23 22 18 20 20 19 19 18 18 18 18
38 38 37 36 36 34 31 31 31 30 30 29 28 27 25 25 25 24 25 25 28 26 27 26 26 25 23 21 21 24 21 21 20 20 18 18 17 16 17 15 15 16 16 16
31 31 31 30 30 30 30 31 30 30 30 29 28 26 24 24 24 24 24 22 24 26 25 24 25 25 24 23 24 21 20 20 19 18 17 16 15 15 15 15 14 14 14 14
30 30 30 31 31 30 30 30 29 28 27 26 25 24 23 23 23 23 26 26 25 24 25 25 24 18 21 17 22 21 19 18 18 17 17 15 14 13 13 12 12 12 12 12
31 30 30 28 28 27 28 27 27 27 25 25 25 26 27 27 28 26 22 25 26 23 25 23 17 15 13 20 20 19 17 15 15 15 14 14 13 12 11 10 10 9 10 10
29 29 29 31 32 31 28 28 27 26 25 25 25 26 27 25 24 26 26 22 21 22 21 19 17 12 13 19 17 16 15 15 15 14 14 9 12 11 11 9 8 9 8 8
29 29 29 27 27 26 26 26 26 27 27 26 26 26 26 27 27 24 23 21 19 20 21 13 12 10 17 17 15 14 14 14 14 13 12 12 11 10 9 9 7 7 5 5
26 26 26 27 27 27 27 26 24 25 25 24 24 24 24 24 23 22 21 19 19 17 19 19 17 16 16 15 14 13 13 13 13 12 11 10 10 9 8 7 5 5 5 5
23 24 24 23 24 24 24 24 23 22 23 23 22 23 23 22 21 20 18 19 19 18 17 17 17 15 14 14 13 13 13 13 11 10 9 9 9 8 7 5 4 4 3 2

GFSNGP_sfc_temp_051.txt.gz
Temp
63 66 67 65 64 65 62 63 55 60 62 69 72 76 78 80 80 79 79 80 80 80 79 79 77 77 76 70 69 68 64 61 58 59 60 59 57 56 55 53 52 51 48 47
57 65 65 61 66 66 67 66 65 66 65 76 78 79 78 77 77 76 77 78 79 79 79 77 75 75 71 70 70 70 67 64 64 64 64 61 59 58 58 56 56 54 52 51
49 61 61 51 61 64 66 69 67 60 68 76 75 76 76 77 77 76 75 74 74 74 73 73 72 70 68 68 69 67 65 63 62 61 59 58 58 58 57 55 55 52 50 50
48 45 38 59 71 70 66 68 72 71 73 76 76 79 79 79 77 74 72 71 70 70 69 70 71 69 68 69 66 64 62 61 60 59 58 58 58 55 54 53 53 51 49 46
44 46 55 62 65 65 64 64 74 72 74 77 78 74 71 75 76 72 70 70 70 70 69 69 68 68 67 66 65 63 61 60 60 59 58 57 55 53 52 50 46 50 51 51
48 43 39 57 69 75 74 56 74 75 74 72 73 59 69 71 72 70 69 69 67 67 68 67 67 67 65 63 62 60 60 60 60 59 56 51 49 47 46 51 54 56 54 54
46 45 54 67 72 76 53 56 75 76 75 73 69 71 72 71 67 67 67 66 66 66 65 65 66 65 62 61 59 60 60 58 55 53 52 50 48 52 54 54 53 50 48 50
47 44 41 68 68 60 68 74 75 75 76 72 73 68 66 65 65 65 64 63 65 63 62 63 65 63 60 58 59 58 56 54 52 52 53 55 54 53 53 52 49 48 46 46
54 55 67 67 69 74 78 76 75 75 76 74 69 66 65 63 63 63 63 64 64 62 60 62 63 62 58 57 57 55 54 53 53 53 53 54 52 51 52 50 46 44 43 42
56 63 67 70 71 75 76 75 77 77 76 73 67 66 64 63 62 61 63 63 63 60 58 57 59 59 57 56 56 54 52 51 52 51 50 51 52 50 48 44 42 41 40 38
58 63 68 71 70 70 74 74 74 73 74 72 68 65 63 61 61 63 63 61 60 58 55 54 55 54 55 55 55 52 51 50 49 48 48 48 47 44 41 36 34 36 36 35
53 66 63 66 72 72 73 72 70 70 70 70 68 64 63 61 61 62 60 58 57 55 53 51 51 52 53 54 53 50 47 46 43 43 43 46 45 40 31 32 31 30 29 29
64 69 65 65 63 64 69 73 72 69 71 68 68 65 63 60 59 54 58 56 54 51 50 49 48 47 49 49 49 47 44 41 39 40 41 40 41 39 39 31 31 30 29 28
70 61 59 61 62 60 65 70 62 68 68 67 66 64 61 58 55 55 54 53 51 48 46 45 43 40 43 44 42 39 39 33 41 40 39 39 38 36 37 33 31 33 31 30
62 60 58 57 57 57 59 58 59 60 61 60 61 59 57 53 52 51 50 48 47 44 42 42 39 38 41 40 40 39 39 38 37 35 33 32 33 33 33 32 31 31 32 32
57 55 56 53 56 54 54 54 54 53 53 54 54 53 52 51 47 44 44 42 39 37 32 30 31 35 38 38 36 34 31 28 31 33 32 32 32 31 31 30 29 29 28 28
51 51 53 52 52 52 52 53 52 51 50 49 45 47 43 38 35 32 29 29 27 26 27 27 27 31 33 35 35 35 34 29 25 31 30 30 29 28 28 27 26 26 26 25
53 54 55 54 53 50 48 47 46 44 41 37 35 32 31 30 27 25 24 25 25 24 25 26 27 30 30 31 31 30 29 29 28 28 28 27 25 26 26 25 24 24 25 25
47 47 48 49 49 46 42 38 36 33 32 32 30 28 27 26 25 25 24 23 22 21 22 25 26 27 26 25 28 28 27 26 26 27 25 21 23 24 23 23 22 22 22 22
34 34 34 33 34 33 31 32 32 30 29 29 27 26 25 25 25 24 26 25 25 24 26 26 27 26 25 23 24 26 25 25 24 24 23 20 22 20 21 20 20 20 20 20
31 31 30 30 30 31 31 31 31 30 30 29 27 25 25 25 25 24 23 20 23 26 25 26 27 26 25 25 26 25 24 23 22 22 21 20 19 20 19 19 19 18 18 18
32 31 30 30 30 29 30 30 29 28 27 25 25 25 25 24 24 25 26 24 25 25 27 26 24 20 22 20 25 23 22 21 20 20 20 19 18 17 17 17 16 17 16 16
31 30 29 29 29 29 29 28 27 27 26 26 26 26 26 26 27 24 21 26 26 26 27 24 19 18 17 22 22 21 20 19 19 18 18 17 17 16 16 15 15 14 14 14
31 30 30 30 29 29 26 26 27 26 26 26 26 27 27 25 25 27 27 25 23 25 23 21 19 16 14 21 20 19 18 18 18 17 17 15 16 15 15 14 13 14 13 12
29 29 29 28 27 27 27 27 27 26 26 26 27 27 28 28 27 26 25 23 21 22 22 16 16 14 18 19 18 17 17 17 17 16 14 14 14 14 14 14 12 12 10 9
27 26 27 27 28 29 29 29 27 28 28 26 26 26 26 26 25 25 23 22 22 20 21 21 19 18 18 18 18 16 16 16 16 15 14 13 13 13 13 12 11 10 9 9
25 26 26 25 26 26 26 26 24 23 24 26 23 24 24 24 23 23 22 22 21 20 20 20 19 18 17 15 15 16 15 15 14 13 12 11 11 12 11 10 9 8 7 6

GFSNGP_sfc_temp_054.txt.gz
Temp
61 63 64 62 62 63 60 61 50 54 60 66 71 70 71 71 76 77 77 78 78 76 76 76 74 75 75 68 66 64 62 59 57 57 56 54 53 52 51 50 49 48 46 45
54 62 61 59 64 64 64 64 64 64 62 73 75 76 72 72 76 76 76 78 78 78 76 75 74 73 67 65 64 63 61 59 59 58 57 56 54 52 51 50 49 48 47 46
46 58 57 47 59 63 65 67 65 58 66 74 73 74 75 75 77 76 75 76 76 77 76 74 72 67 67 66 66 63 61 61 61 58 56 54 55 54 51 50 49 49 48 47
44 44 37 58 69 68 64 66 70 70 72 74 75 77 78 79 76 75 75 73 73 71 69 67 67 68 66 66 64 62 60 59 58 56 55 55 54 51 49 48 48 47 46 45
41 42 52 59 63 63 60 60 70 69 72 75 77 74 73 75 76 74 72 71 70 70 69 68 66 66 65 63 62 60 58 57 58 57 55 53 52 49 48 47 45 46 48 46
44 39 35 52 65 72 70 51 70 72 71 72 74 58 65 71 73 71 71 70 68 68 67 66 66 66 63 61 59 58 58 58 58 57 54 48 48 46 45 47 50 51 50 47
41 40 49 64 67 70 49 51 69 73 72 72 67 69 70 71 70 71 70 68 67 66 64 64 65 64 61 59 57 59 59 57 54 52 50 49 46 47 48 48 47 42 41 42
43 39 37 67 66 57 62 66 71 72 72 70 71 68 68 69 68 67 66 66 66 63 62 63 64 62 59 57 58 57 55 52 51 50 50 50 49 48 48 45 41 39 37 36
50 50 60 62 64 68 68 68 69 70 74 73 67 67 67 65 64 65 65 63 65 62 61 61 62 61 57 56 56 54 51 50 50 51 52 51 48 46 44 43 37 34 34 32
52 59 59 62 65 67 71 68 73 74 75 73 66 66 64 64 63 63 63 62 63 60 58 58 60 60 57 55 54 53 50 49 49 48 48 47 48 45 40 35 33 32 32 30
56 60 61 62 66 64 67 69 72 73 71 71 69 66 64 63 62 62 62 62 61 58 56 56 57 55 55 55 54 51 49 48 46 44 44 43 38 37 32 30 30 30 29 29
50 61 59 62 64 69 67 69 70 68 68 70 71 66 66 63 62 62 61 60 57 56 55 54 53 52 53 54 52 48 45 43 37 37 37 41 37 34 33 31 31 30 29 27
60 65 65 63 63 65 62 63 69 69 68 66 70 68 65 62 61 56 60 57 55 52 51 50 49 49 49 49 47 43 38 39 36 36 36 35 34 33 27 29 31 30 30 29
65 61 60 60 58 58 58 62 64 68 67 67 68 66 62 60 58 58 55 55 53 50 48 46 43 40 42 41 38 35 35 35 36 35 34 33 32 32 31 29 27 26 29 29
61 64 60 59 59 60 59 59 57 61 61 61 62 59 58 56 54 53 52 50 48 45 43 41 39 39 40 39 38 36 34 33 31 29 28 28 29 29 29 29 28 28 28 27
55 56 57 55 55 57 54 54 53 52 53 55 54 54 53 52 47 45 45 43 39 34 32 30 32 34 35 34 31 28 27 26 29 29 28 29 28 28 28 27 27 26 25 24
49 49 50 51 53 53 53 53 53 52 48 42 39 39 33 30 28 27 27 28 26 26 26 26 26 31 32 32 31 28 26 25 25 29 28 27 26 26 26 25 24 23 22 17
49 49 49 51 52 51 46 43 40 37 34 33 31 29 27 26 24 23 23 24 23 23 24 24 25 25 25 27 28 28 28 27 27 26 26 24 23 24 23 23 23 22 21 21
38 39 39 39 39 36 34 32 32 32 31 30 27 25 25 24 23 23 23 22 21 20 22 24 24 22 23 24 26 26 25 24 25 25 24 20 21 23 21 21 20 19 19 19
32 32 32 31 32 31 29 29 29 28 27 26 25 24 23 23 24 24 24 22 22 22 24 23 23 23 23 23 25 24 23 23 22 22 21 19 19 19 19 19 19 18 17 17
30 30 29 29 29 30 29 29 28 27 27 26 25 24 23 23 23 23 21 19 21 23 23 24 25 24 24 24 25 23 22 21 21 20 20 19 19 18 18 17 17 16 15 15
29 28 28 28 27 27 28 27 27 26 25 25 24 24 24 24 23 23 23 21 22 23 24 23 21 20 21 19 23 22 21 21 19 19 18 18 17 16 15 15 14 14 13 11
29 28 28 26 25 25 26 26 26 26 25 25 25 25 24 25 24 22 19 24 24 24 22 19 18 18 17 19 21 20 19 18 18 17 17 16 16 14 14 13 12 11 10 11
28 28 27 28 28 27 25 25 26 26 25 26 26 26 26 23 23 25 24 24 22 21 20 19 17 16 13 19 19 18 17 17 16 16 15 14 14 14 13 12 10 10 9 8
27 28 28 27 27 26 26 27 26 26 26 25 25 25 25 26 24 23 22 21 21 22 17 15 15 14 18 18 17 15 16 15 15 13 12 12 12 11 11 11 10 9 7 5
25 25 25 25 26 26 26 26 24 26 26 23 24 24 24 24 24 22 22 21 21 20 19 19 17 16 17 16 14 14 14 15 14 13 11 11 10 9 9 10 8 8 7 6
23 24 24 23 24 23 22 22 21 20 22 23 21 22 23 22 22 22 21 20 19 19 18 18 18 15 15 13 13 13 13 13 12 11 10 9 9 8 8 7 6 5 4 3

GFSNGP_sfc_temp_057.txt.gz
Temp
55 57 59 57 56 57 55 55 46 49 51 58 61 61 63 67 66 66 68 67 67 65 65 65 64 61 60 59 59 59 57 56 54 53 53 52 51 50 49 49 48 47 46 45
49 56 56 54 56 57 58 58 57 56 54 65 67 65 64 67 66 67 69 69 68 69 68 67 64 60 59 57 56 57 55 54 55 54 52 51 50 49 48 47 47 46 46 45
41 52 52 42 51 56 56 59 59 51 56 63 65 64 64 66 68 66 67 68 68 67 68 66 62 60 58 58 58 56 55 55 56 54 52 51 51 50 48 45 44 43 42 42
34 39 34 51 60 60 58 61 62 61 61 64 65 67 66 67 66 65 66 65 63 62 61 62 61 61 60 59 57 56 56 54 53 52 51 51 48 45 44 44 43 43 44 45
36 38 45 53 58 55 54 53 63 61 62 64 65 61 58 66 65 63 62 60 59 59 59 57 59 59 58 57 55 54 53 52 52 52 49 48 46 46 44 44 45 45 45 41
32 32 32 45 57 63 62 44 63 62 61 62 60 50 54 62 62 60 59 61 60 59 59 58 56 57 56 54 53 52 52 53 52 51 48 45 45 45 45 43 45 45 43 40
32 32 38 54 61 63 44 43 62 63 62 59 56 56 60 60 59 60 59 59 58 58 57 57 57 57 54 53 52 53 54 52 48 47 46 44 43 42 42 42 41 36 36 36
34 30 30 55 58 51 53 60 62 63 63 61 59 59 59 59 60 59 57 57 57 55 54 54 57 56 53 51 53 52 49 47 46 45 47 45 42 41 42 39 35 33 33 30
41 37 51 54 54 56 55 54 62 61 61 60 55 57 59 57 57 57 56 54 55 54 52 53 53 54 51 49 50 48 47 45 45 46 46 44 41 38 37 36 32 30 31 29
45 50 53 56 57 58 57 56 58 64 60 58 57 56 55 56 56 55 54 53 53 52 51 50 52 53 50 50 49 47 45 44 43 41 41 40 40 38 34 30 29 30 29 28
47 52 53 59 58 57 59 58 59 61 63 60 59 59 56 54 54 54 55 53 54 51 49 48 50 49 49 49 49 46 45 43 41 38 35 33 33 32 29 28 30 28 27 28
39 51 51 55 57 59 57 58 58 60 59 62 59 56 56 54 54 53 52 51 51 48 47 47 47 46 46 47 47 44 39 38 33 32 33 34 31 30 32 31 32 31 30 27
53 58 57 57 57 56 57 56 59 58 59 60 58 58 56 54 53 49 50 50 48 45 45 41 38 37 40 41 40 37 34 35 33 33 33 32 30 28 25 28 31 31 30 30
52 54 52 51 50 54 54 55 55 57 56 58 59 57 53 54 51 50 47 46 45 40 38 37 36 34 37 38 37 35 33 32 31 30 30 29 29 29 28 26 24 25 29 29
48 51 50 51 53 52 52 51 50 49 49 49 51 50 51 48 46 44 44 41 39 37 35 34 33 31 31 32 31 30 30 28 27 26 27 27 27 27 28 27 27 26 26 26
48 49 49 48 50 50 49 48 45 41 41 40 35 34 35 34 31 31 33 33 29 26 28 27 29 30 30 29 28 28 27 27 27 27 26 26 26 26 26 26 25 24 23 21
42 40 41 42 45 39 39 39 37 35 33 31 29 30 29 27 26 25 25 26 25 24 25 25 25 27 28 28 26 25 24 25 25 26 24 24 24 24 24 23 22 21 19 16
41 40 40 39 38 36 33 32 31 30 27 28 27 26 25 24 22 22 23 23 22 21 22 23 24 24 25 25 25 25 24 24 24 23 24 21 21 22 22 21 21 19 18 18
34 33 33 33 33 31 30 28 27 27 27 26 24 22 23 23 22 22 22 21 19 19 20 22 23 23 23 24 24 23 23 22 22 22 21 20 19 20 19 18 17 16 16 16
30 30 30 29 29 28 27 27 27 25 25 24 24 23 21 21 21 21 21 19 21 21 23 22 21 21 21 22 22 22 21 20 21 20 18 18 16 15 15 16 16 14 12 11
27 27 26 25 25 25 25 26 25 24 24 24 22 21 21 21 21 21 19 18 21 23 23 22 21 20 21 21 22 21 19 18 17 17 16 13 13 13 12 11 10 9 7 9
25 25 25 25 25 24 25 25 25 24 24 23 23 22 21 20 20 20 20 20 22 22 20 19 18 18 18 19 20 19 19 17 16 15 14 12 9 6 5 5 5 6 5 1
26 25 25 24 24 24 25 25 24 24 23 23 22 23 23 23 22 19 18 23 22 19 18 16 16 16 15 18 17 16 14 13 11 10 10 11 10 7 3 1 4 -0 -3 0
26 26 25 26 27 26 23 24 25 25 23 23 22 24 23 20 20 22 21 19 18 18 16 15 15 14 12 13 12 10 9 5 6 7 6 4 0 1 5 3 2 3 1 -2
23 24 25 25 24 24 25 25 24 24 23 22 22 22 22 22 19 19 19 18 18 15 12 12 11 10 11 11 10 7 4 5 6 3 6 4 1 -4 -6 -2 2 1 -0 -2
22 21 21 21 20 21 22 21 19 22 21 19 19 19 20 20 19 18 16 15 14 13 14 7 6 7 2 1 -2 -3 -1 2 5 2 -2 -4 -7 -6 -4 0 0 -0 -4 -10
19 20 20 19 20 19 18 18 16 16 18 17 15 16 17 16 16 16 13 11 13 10 7 5 11 10 9 6 6 2 -3 -4 -3 0 0 -7 -10 -11 -5 -4 -8 -12 -14 -15

GFSNGP_sfc_temp_060.txt.gz
Temp
51 54 56 54 54 54 52 50 43 47 49 55 57 61 61 63 62 65 63 62 63 62 61 59 59 59 64 64 64 64 63 62 61 59 56 54 53 51 50 50 49 48 47 46
45 53 55 52 54 56 56 52 51 52 50 61 62 61 61 62 64 64 63 66 65 64 62 60 58 56 56 56 59 62 61 57 55 54 52 51 50 50 48 47 48 46 46 45
33 48 50 39 50 54 53 54 52 46 53 61 61 63 62 62 65 64 63 63 63 63 64 61 58 57 55 54 56 56 55 54 53 52 50 49 49 48 46 46 46 45 44 44
32 36 31 49 56 57 54 57 58 56 58 62 62 66 63 65 67 63 63 62 64 65 62 60 57 56 55 55 54 55 54 53 52 51 50 49 49 47 46 46 44 43 43 42
31 32 42 48 52 52 51 53 60 59 61 62 63 60 55 62 63 63 61 60 57 59 58 57 57 56 55 53 53 52 51 51 52 51 49 48 46 44 43 42 41 42 42 41
32 29 27 43 55 59 59 42 58 61 60 60 60 46 52 61 60 58 57 57 55 54 54 55 55 56 54 52 51 50 50 50 50 49 47 45 43 42 43 43 43 43 40 38
32 31 35 49 53 60 43 43 58 61 61 60 56 54 59 59 57 56 56 55 54 55 54 53 54 53 51 50 49 51 51 50 48 46 45 44 43 44 43 40 38 35 33 32
32 31 28 51 52 44 47 52 54 55 55 55 59 56 56 58 57 56 54 53 54 53 52 52 53 52 49 48 50 49 48 46 45 44 45 45 42 41 40 37 34 31 29 27
39 37 51 51 52 54 53 52 53 52 55 55 55 55 55 54 55 55 54 52 52 51 49 49 51 52 48 45 47 46 45 44 43 44 43 41 39 37 37 35 32 30 29 26
41 49 51 54 55 56 55 55 58 56 55 56 54 56 54 53 53 52 52 52 49 50 48 46 48 49 47 46 46 45 43 42 41 39 37 36 36 35 33 30 31 30 28 26
44 49 52 54 56 56 59 59 58 59 56 54 56 55 56 54 52 52 52 50 51 48 47 45 47 46 46 46 46 43 41 39 37 35 33 31 29 29 29 29 30 30 28 28
41 50 48 50 58 60 57 58 59 57 56 57 54 55 53 52 53 53 50 50 47 45 44 44 44 44 44 45 44 40 36 35 32 31 31 30 29 28 32 32 32 31 30 27
43 47 50 50 51 54 53 53 56 55 57 55 58 57 53 51 50 45 48 47 44 39 39 38 37 37 40 41 40 37 34 34 32 32 31 29 29 28 25 28 31 31 30 29
45 47 46 47 46 50 51 52 52 52 51 49 52 54 50 48 47 45 42 39 38 37 35 33 33 32 36 36 34 32 31 31 30 30 29 29 28 27 27 26 24 25 27 28
42 46 45 48 49 48 49 48 44 40 38 37 40 45 45 42 38 37 36 35 34 32 32 31 29 29 32 33 31 30 29 28 28 27 27 27 27 26 26 26 26 25 25 26
43 42 43 42 40 40 41 40 35 33 33 32 31 30 30 30 30 29 30 30 28 26 27 26 26 28 30 30 29 28 27 27 27 26 26 25 25 25 25 25 24 23 23 21
37 36 38 38 35 34 33 33 32 30 29 28 28 28 28 26 25 24 24 25 25 24 25 25 25 27 26 26 25 25 25 26 25 25 24 24 23 23 23 22 21 21 19 18
37 36 37 36 35 32 30 29 28 27 26 26 26 25 24 23 21 21 21 22 21 21 22 23 24 25 25 25 25 25 24 24 23 23 22 21 20 21 20 20 20 19 18 19
32 30 30 30 29 28 27 26 25 25 25 25 23 21 22 21 21 21 21 20 19 18 19 22 24 23 23 23 23 23 22 22 21 21 20 19 19 19 18 17 17 16 17 16
27 27 27 26 27 26 25 25 25 23 23 23 22 21 19 20 20 20 20 18 19 20 21 21 21 21 22 22 22 21 20 19 19 19 17 17 17 15 15 16 16 14 12 12
24 24 24 24 23 24 24 24 23 22 23 22 21 20 19 20 20 20 19 17 19 20 19 19 19 19 21 22 21 19 18 17 16 16 14 14 14 13 12 11 10 9 8 7
24 23 23 24 23 23 24 25 24 23 22 21 21 20 19 19 19 19 20 18 19 18 18 17 17 17 19 19 19 17 16 15 14 14 12 11 10 8 7 4 3 3 0 -4
25 24 24 23 23 23 23 23 22 23 22 21 21 21 20 20 21 19 15 19 18 17 16 15 16 16 16 15 14 12 11 10 9 7 5 3 2 2 1 3 3 2 -4 -2
24 25 25 25 25 24 21 22 23 22 21 21 21 21 20 17 17 19 18 17 16 15 14 15 14 14 12 11 9 7 6 5 1 -4 -3 -4 -9 -9 -9 -12 -9 -8 -3 -2
21 21 21 21 21 20 22 23 22 21 21 20 20 20 20 20 16 17 16 15 15 12 10 8 7 4 2 0 -0 -1 -3 -4 -4 -5 -8 -12 -14 -15 -15 -13 -11 -8 -9 -11
20 18 18 18 18 19 19 20 18 18 18 15 15 15 16 17 16 14 13 12 12 10 10 10 8 5 2 1 -3 -8 -9 -6 -8 -8 -13 -14 -15 -14 -14 -13 -14 -15 -17 -18
16 18 17 16 16 15 15 14 12 12 11 9 8 11 11 11 12 11 8 6 3 2 1 -2 -2 -2 -4 -8 -8 -10 -10 -9 -8 -9 -14 -17 -17 -16 -16 -17 -19 -21 -21 -19

GFSNGP_sfc_temp_066.txt.gz
Temp
41 43 43 41 40 42 44 46 40 42 45 50 54 56 58 60 59 59 59 59 57 56 59 60 60 60 61 60 59 59 58 58 58 59 59 60 59 59 58 59 60 59 56 52
34 43 44 40 44 44 45 47 47 45 46 55 57 57 55 57 58 57 59 60 61 59 58 59 59 60 60 60 59 60 59 58 59 60 60 59 60 59 59 58 58 55 53 52
30 38 40 33 39 41 43 46 47 43 49 55 54 55 55 57 57 59 60 62 61 61 61 60 60 59 59 60 59 59 59 59 59 59 59 59 59 57 54 54 52 50 48 48
27 30 25 41 48 49 46 48 50 50 52 55 56 59 59 58 58 58 58 60 63 61 59 61 59 56 55 56 57 58 58 58 58 58 58 54 52 52 50 48 48 47 47 45
24 26 34 39 45 47 45 45 51 49 52 56 58 54 53 58 58 60 60 62 62 62 59 56 55 54 55 55 56 56 56 56 56 56 52 51 49 48 46 46 45 44 44 44
30 23 20 35 45 50 50 35 47 48 49 49 51 47 56 61 59 58 57 56 55 55 53 53 52 55 54 55 55 56 55 54 52 52 50 49 47 45 45 45 43 42 41 41
31 29 31 42 47 50 35 34 46 48 47 49 46 49 53 54 56 57 55 52 51 52 52 52 53 55 54 54 53 53 52 51 49 49 47 46 44 44 43 41 38 36 34 35
30 29 25 47 46 41 45 46 48 49 49 48 51 51 52 51 52 54 54 50 50 50 49 51 52 53 52 51 50 50 49 47 47 45 44 44 42 40 39 36 34 32 31 30
33 32 43 45 47 51 49 49 50 50 54 53 49 50 50 52 50 50 49 49 48 47 47 48 49 49 47 46 48 47 45 44 43 43 42 41 39 36 35 35 33 32 31 28
36 42 45 47 49 51 51 51 54 54 55 54 49 51 51 52 51 50 49 47 47 46 44 43 46 46 45 44 46 46 43 40 40 39 38 38 38 37 34 33 32 31 30 28
39 45 44 49 47 45 48 53 54 55 56 54 53 52 50 51 50 48 47 45 45 44 42 42 43 43 45 45 44 41 39 38 36 35 34 32 32 33 33 34 34 32 30 28
37 38 39 40 44 46 46 47 48 50 52 48 45 44 49 49 48 47 44 44 42 41 42 41 41 41 42 42 41 38 34 34 33 33 32 32 31 29 32 32 32 32 31 28
39 43 40 42 43 42 43 43 42 40 39 39 40 40 44 41 39 38 38 37 35 34 34 34 33 34 36 38 38 36 33 32 31 32 31 30 29 28 25 28 30 30 29 29
43 40 39 40 38 39 39 41 39 36 35 32 34 35 33 31 32 30 30 32 33 32 30 30 30 30 33 34 33 31 30 30 29 29 28 27 27 26 26 25 23 24 28 28
39 40 41 42 38 37 37 36 32 30 29 28 29 28 28 26 26 28 30 30 30 29 28 29 29 29 32 32 31 30 29 29 29 28 28 28 28 27 27 25 24 24 25 25
34 36 39 36 34 32 32 31 29 28 28 27 26 26 25 26 25 25 26 27 25 23 25 25 25 27 29 29 28 27 27 27 27 26 26 26 26 25 25 24 24 23 22 20
31 31 31 32 30 28 28 28 28 27 27 26 25 25 25 24 23 22 22 23 22 21 22 22 22 25 25 26 25 25 24 23 23 23 23 23 22 22 22 21 20 19 18 19
30 29 29 29 28 27 26 26 26 25 23 23 22 21 20 19 18 18 19 20 20 20 21 21 22 22 23 23 23 23 22 21 21 21 21 20 20 20 19 18 18 18 17 17
27 26 26 26 26 25 24 23 23 23 22 21 20 18 18 17 17 17 18 17 17 17 18 21 22 21 21 22 22 21 20 19 19 19 18 18 17 17 16 15 14 14 14 13
24 25 24 23 24 23 21 21 21 20 21 20 19 17 16 16 16 16 16 14 16 18 20 20 20 19 19 19 20 19 18 17 17 16 15 14 12 12 13 13 12 10 9 7
21 21 21 21 21 21 21 21 20 18 19 19 16 15 15 16 16 16 14 13 16 18 18 17 18 17 17 18 17 16 15 13 12 11 10 9 7 7 5 5 4 1 -2 -4
22 21 21 21 20 19 20 21 20 19 19 18 17 16 15 14 14 14 15 14 16 16 16 15 15 14 14 15 14 12 12 11 9 9 7 5 2 -3 -7 -8 -9 -7 -9 -9
22 21 21 20 19 19 20 19 18 18 17 16 15 15 15 15 15 13 11 15 15 13 13 11 11 10 9 9 7 6 5 3 2 -0 -4 -8 -11 -14 -13 -15 -16 -15 -15 -12
21 22 21 21 21 20 17 18 18 18 17 17 16 16 16 12 12 14 13 10 8 7 7 6 5 4 3 3 0 -3 -4 -7 -9 -12 -11 -15 -21 -20 -20 -20 -17 -20 -20 -19
19 19 19 19 18 17 17 17 16 16 15 14 14 15 14 14 10 10 9 8 8 5 2 -2 -2 -4 -6 -9 -11 -12 -14 -15 -19 -18 -19 -21 -22 -23 -23 -22 -23 -22 -24 -24
16 15 15 15 14 14 14 13 10 11 11 8 8 8 7 8 7 5 3 1 2 -2 -4 -9 -11 -13 -14 -14 -18 -18 -15 -12 -17 -18 -21 -21 -22 -21 -23 -22 -24 -25 -27 -27
12 13 13 11 11 10 10 9 6 5 2 -2 3 6 5 2 -1 -0 -6 -8 -11 -12 -14 -17 -16 -14 -16 -19 -17 -18 -18 -18 -20 -20 -25 -24 -24 -25 -25 -26 -28 -29 -30 -30

GFSNGP_sfc_temp_072.txt.gz
Temp
49 50 50 49 50 52 50 52 46 52 54 61 66 67 69 71 71 72 75 79 80 79 81 80 78 76 76 75 72 72 70 69 69 69 69 69 68 68 69 69 69 70 69 70
44 49 50 47 51 53 53 54 54 56 55 67 68 70 69 70 71 70 72 76 79 80 79 79 79 78 76 75 73 72 70 69 70 70 69 68 68 68 68 68 68 69 69 69
38 45 46 39 48 53 55 58 58 52 59 64 63 64 66 66 67 69 72 74 76 79 79 79 79 77 77 77 76 72 71 71 70 70 69 69 69 68 68 67 68 67 68 68
38 39 30 50 57 56 53 58 61 60 61 61 62 64 67 67 64 64 66 68 72 76 78 80 81 79 78 80 76 72 72 72 71 70 69 70 69 68 67 68 67 66 66 66
35 38 45 49 55 54 52 53 58 58 60 62 64 64 67 68 67 65 66 67 70 73 75 76 76 78 77 76 76 75 72 72 72 72 69 69 68 68 66 64 61 59 58 55
38 32 30 47 55 59 59 46 59 58 59 59 62 53 61 67 67 66 69 68 69 71 71 73 74 74 75 75 75 74 72 74 74 72 70 69 68 63 54 56 51 46 43 44
36 35 43 55 59 59 42 45 59 60 60 60 57 61 64 66 67 68 69 68 67 67 67 67 68 69 68 72 71 74 75 73 72 71 69 66 54 53 50 44 42 40 39 38
37 32 30 57 55 47 53 58 59 60 60 59 62 63 64 63 65 67 66 66 65 62 56 56 60 66 69 67 61 61 61 58 57 56 51 51 48 46 44 41 37 35 34 33
45 45 56 57 57 61 58 55 57 57 59 59 60 62 64 63 63 63 63 62 63 56 50 48 50 58 57 52 54 53 52 49 47 46 45 46 43 41 38 38 35 33 32 30
48 53 56 59 59 57 56 55 56 57 56 56 54 59 59 59 58 59 57 55 53 51 46 41 43 45 47 48 48 47 44 43 42 41 40 41 40 39 37 35 33 32 30 29
49 54 57 58 57 54 53 55 54 54 53 51 50 53 52 54 49 48 47 47 46 43 41 39 39 39 41 43 44 41 40 39 37 36 34 32 32 35 35 35 35 33 31 29
45 50 48 50 54 52 50 51 51 48 48 49 47 47 48 45 42 44 41 38 38 36 36 37 37 35 36 38 40 38 36 35 34 34 33 32 31 29 31 32 32 32 32 29
46 46 45 47 51 48 47 49 48 46 44 43 44 43 44 39 35 34 35 34 33 32 33 34 34 33 34 34 34 33 33 34 33 32 32 31 31 29 26 29 31 30 30 30
45 43 44 44 39 42 42 46 45 44 42 39 37 35 33 34 31 29 29 30 31 31 30 31 31 29 31 32 32 31 30 30 30 29 29 28 28 27 27 26 25 26 29 30
39 41 39 39 37 35 37 38 36 34 33 32 34 29 29 27 24 25 28 29 28 27 26 27 27 27 30 30 30 29 29 28 29 29 29 28 28 27 27 27 26 27 28 28
38 41 38 34 32 31 30 30 29 27 28 26 27 24 24 24 24 24 24 25 23 22 23 23 23 25 27 28 28 27 27 27 28 28 29 29 28 28 28 28 27 26 26 26
31 34 33 32 32 30 28 28 28 26 24 23 23 24 23 23 22 22 22 22 22 21 22 23 22 25 27 29 28 29 28 28 26 27 26 27 27 27 26 26 25 24 23 24
31 30 31 31 30 28 26 26 25 24 21 21 21 20 19 19 19 19 20 22 22 21 22 23 24 25 25 26 28 29 28 27 27 26 27 25 25 25 25 24 23 22 21 22
31 29 29 29 28 27 25 24 23 22 21 21 20 18 19 20 20 20 21 21 20 19 20 22 23 23 24 25 27 27 25 24 24 23 23 22 22 22 22 22 21 21 21 20
27 27 27 25 25 24 22 22 22 20 21 20 20 19 18 19 19 18 18 16 17 18 20 22 24 23 23 24 25 25 24 23 22 21 21 21 20 19 19 18 19 19 19 18
22 22 21 21 21 21 21 21 20 18 19 19 18 16 16 16 18 20 19 17 17 19 20 19 20 22 23 24 24 23 22 21 20 20 20 19 18 18 17 17 17 17 17 16
22 21 21 21 20 20 20 21 20 19 19 18 18 19 18 17 16 15 15 17 19 18 20 19 18 15 18 19 20 18 18 18 17 17 16 16 16 15 14 14 14 14 14 14
22 22 21 20 20 20 20 19 18 18 17 16 16 16 16 18 20 17 14 17 19 16 18 15 12 13 14 17 17 16 15 14 14 13 13 13 13 12 12 11 11 11 11 11
23 22 22 22 22 20 18 19 20 19 18 18 17 18 20 18 17 19 18 14 12 12 11 11 11 12 13 15 14 14 13 13 13 12 12 10 12 11 10 9 9 11 9 8
21 21 21 21 20 19 19 20 20 20 19 18 18 18 18 19 16 16 15 14 11 13 13 8 9 11 13 13 12 12 12 11 11 11 11 10 10 9 10 9 7 7 7 7
20 19 19 19 20 22 22 22 20 20 19 16 16 16 16 16 15 15 13 11 11 11 11 11 10 12 12 11 11 10 11 11 11 10 9 9 9 9 7 6 6 5 5 4
20 21 21 20 20 19 19 19 18 16 17 16 13 15 15 14 13 13 12 13 12 11 11 11 11 9 10 11 11 11 11 11 4 8 9 9 8 7 5 4 4 4 3 2

GFSNGP_sfc_temp_075.txt.gz
Temp
51 51 52 53 54 56 55 56 49 53 56 63 67 69 72 74 74 74 75 77 79 82 85 86 83 81 81 80 79 77 76 74 72 73 73 73 72 72 72 72 73 73 72 71
44 52 52 48 53 55 56 56 57 58 58 70 72 72 70 71 72 71 71 74 76 80 82 84 85 83 82 80 79 78 76 74 75 74 73 72 72 72 71 71 72 72 71 71
40 50 49 42 50 52 55 58 58 52 60 67 66 68 68 68 70 68 69 71 72 73 76 80 83 83 83 83 81 78 76 76 76 75 74 72 73 72 71 70 70 69 70 70
40 43 32 52 61 60 57 60 63 63 64 65 66 68 70 73 69 67 68 70 71 73 74 78 79 81 83 84 83 79 77 76 76 75 74 74 73 72 71 70 69 68 68 69
36 39 47 52 57 56 54 55 63 61 63 65 67 67 69 72 71 69 70 71 72 73 71 73 76 78 79 79 82 81 77 75 75 76 74 74 72 71 71 70 68 67 67 66
40 34 32 51 58 63 62 49 62 62 61 61 63 56 63 69 71 70 73 73 71 71 71 69 69 71 72 74 77 78 79 77 78 77 75 73 73 71 70 69 66 61 50 48
37 36 45 59 62 63 44 46 59 61 61 61 58 62 66 70 70 71 72 71 68 67 60 57 58 60 65 71 72 76 78 79 77 76 74 72 71 72 69 59 49 43 39 39
38 33 32 61 60 50 54 60 60 61 61 59 61 64 66 69 69 69 68 68 64 59 53 49 47 50 58 63 62 65 65 66 69 69 66 70 66 58 51 46 40 36 34 33
46 46 58 62 59 60 60 58 59 59 60 60 59 60 63 66 66 63 63 62 60 55 47 45 43 43 43 45 49 53 58 53 51 49 49 51 48 43 41 41 38 36 35 31
42 54 50 60 63 62 60 58 60 60 59 58 56 58 59 60 61 59 58 55 54 50 41 38 40 39 39 42 44 44 42 41 41 40 38 39 39 40 39 38 35 33 31 29
52 56 60 61 60 58 57 59 58 57 57 55 54 55 55 57 54 53 52 49 46 43 37 35 38 36 37 39 41 39 37 37 35 34 34 32 31 33 34 33 34 33 31 30
45 51 52 55 56 55 53 52 53 52 52 52 52 49 51 50 47 46 44 42 40 37 36 33 35 34 34 35 37 36 34 33 32 32 32 31 30 29 31 31 32 31 31 30
48 51 51 54 52 49 47 46 49 51 49 46 46 42 39 39 36 38 38 37 33 33 31 30 29 30 31 32 32 33 31 31 31 31 31 29 30 29 26 29 31 31 31 31
49 48 49 47 42 44 45 43 44 46 44 40 37 35 32 30 29 28 28 28 29 30 28 28 28 27 29 30 31 31 30 30 29 28 28 28 28 27 27 26 25 25 29 30
44 47 44 41 40 38 39 40 39 36 33 32 31 29 29 25 24 24 26 26 26 26 25 26 27 27 30 30 29 29 29 29 29 29 29 28 28 27 27 26 25 25 26 27
40 45 42 38 38 37 37 36 34 32 31 30 28 27 26 27 25 23 23 24 23 22 24 24 25 27 31 32 31 30 29 29 30 30 29 29 29 27 27 27 26 26 26 26
33 35 34 35 34 32 30 30 30 28 27 25 25 26 25 24 23 22 22 24 23 23 24 25 25 27 28 29 30 29 30 30 29 28 27 27 27 25 25 24 23 22 22 24
35 33 33 33 32 31 29 29 28 27 25 24 24 23 22 21 20 21 22 23 23 23 24 25 25 26 27 29 29 27 26 26 26 25 26 27 27 26 24 23 22 22 21 22
33 31 31 31 30 29 27 25 25 25 24 23 22 20 20 20 20 19 20 20 20 19 20 25 26 26 27 27 29 28 27 26 25 24 24 23 23 23 22 22 21 21 21 20
29 29 29 27 27 25 23 23 23 22 23 22 21 20 19 20 21 20 19 16 18 20 21 22 25 25 26 26 27 27 26 25 24 23 23 23 22 21 21 21 21 20 20 19
24 24 23 23 22 22 22 22 21 20 20 20 18 17 16 17 17 20 20 18 18 21 22 20 21 24 25 26 26 24 24 23 22 22 21 20 20 20 20 20 19 19 18 18
24 23 22 22 21 21 22 22 21 20 20 20 21 21 20 20 19 17 17 18 20 19 20 19 20 18 22 22 23 21 21 20 20 20 19 19 18 18 17 17 16 16 16 16
24 23 23 22 21 20 21 20 19 19 18 18 18 19 19 20 21 18 14 17 18 16 18 15 15 16 18 20 20 19 18 17 17 17 16 16 16 15 14 14 15 14 13 13
24 24 23 24 23 22 20 20 21 20 19 20 18 19 22 20 18 20 20 16 15 15 12 13 14 15 16 18 17 16 16 17 16 16 16 14 15 14 14 13 13 14 12 11
24 24 24 23 22 21 21 23 23 23 22 21 21 21 20 20 17 17 17 16 13 17 16 13 13 15 16 15 15 15 15 13 13 15 14 14 13 13 13 12 11 10 10 11
23 22 22 23 24 25 26 26 24 23 22 19 19 19 19 19 19 19 17 15 15 15 16 15 13 16 16 15 15 14 15 14 14 13 13 13 13 12 11 9 9 9 9 8
24 24 25 24 24 24 24 24 22 20 20 19 17 19 19 18 17 18 16 17 16 16 16 16 15 13 13 14 14 14 14 14 8 10 12 12 11 11 9 8 8 8 7 6

GFSNGP_sfc_temp_078.txt.gz
Temp
47 48 48 42 45 48 43 45 42 49 49 56 59 63 66 70 71 71 71 72 72 71 72 75 77 77 78 76 74 73 72 71 70 69 69 69 68 68 68 68 68 68 66 66
43 50 46 47 52 53 52 51 54 52 48 60 62 70 69 68 69 66 67 68 69 71 72 72 74 75 77 77 75 74 72 71 72 70 69 68 68 67 67 66 67 67 66 66
38 48 47 40 48 51 54 57 55 49 57 64 63 66 66 67 67 65 66 67 68 68 69 69 69 71 74 75 77 75 74 73 73 71 69 68 68 68 67 65 65 65 65 66
37 42 30 49 61 59 55 57 60 61 63 63 65 66 67 69 65 65 66 68 68 68 67 68 67 64 65 69 75 75 75 74 73 72 70 70 68 67 66 66 65 64 64 65
35 36 45 51 57 55 53 53 62 61 62 63 65 65 62 68 68 66 67 68 67 66 62 60 57 57 59 63 67 70 73 74 74 72 71 70 68 67 66 65 64 64 64 63
38 32 30 48 59 63 62 46 61 61 59 59 61 50 55 65 68 68 68 65 63 62 57 53 50 51 54 59 58 56 58 64 73 73 72 70 68 66 66 66 64 64 61 54
34 33 42 56 57 62 42 43 58 60 59 57 54 56 61 65 67 68 66 63 61 58 52 47 47 48 47 49 46 50 55 60 59 64 70 70 68 66 64 63 51 43 38 37
36 33 30 59 57 45 50 53 57 57 57 56 58 59 61 63 64 62 61 60 58 54 48 45 44 44 43 42 44 48 49 49 49 49 50 58 61 52 50 46 40 36 34 33
43 42 56 60 54 58 59 55 54 55 57 56 55 56 58 58 59 58 57 54 52 50 46 43 43 41 39 39 43 43 41 39 39 40 41 44 45 44 42 41 38 35 34 32
44 52 54 48 55 57 58 56 57 56 55 54 52 54 54 56 52 51 51 47 45 44 40 39 40 39 37 38 41 40 37 36 36 34 34 34 38 38 37 35 34 34 32 30
41 44 49 47 48 54 54 54 53 54 53 51 50 48 47 48 45 44 43 41 40 36 35 34 35 35 36 36 38 37 36 35 33 32 31 31 30 31 32 33 34 32 30 30
38 47 46 43 49 51 49 48 49 50 49 49 45 42 41 38 36 36 34 34 33 32 31 30 31 32 32 35 36 35 33 32 31 31 30 30 29 29 32 31 32 32 31 30
44 49 50 48 47 47 46 46 47 46 44 41 39 37 35 32 30 31 30 29 28 27 29 29 29 29 30 32 33 31 30 29 29 29 28 28 28 27 26 29 31 31 31 31
47 48 47 43 39 42 43 44 45 42 39 36 34 32 29 27 27 26 26 27 27 27 27 27 28 28 29 31 31 30 30 29 29 28 27 27 26 26 26 25 23 25 29 29
41 46 43 43 43 41 42 42 40 35 34 32 32 29 28 25 23 24 26 26 27 26 25 25 26 26 30 31 30 29 30 29 29 28 28 28 27 26 26 25 24 24 25 26
40 42 42 39 36 35 34 33 31 29 29 28 27 26 26 26 24 24 24 24 23 22 23 23 24 27 28 29 30 29 28 28 28 27 26 25 25 23 23 22 22 22 24 23
32 31 33 33 32 31 29 29 28 26 25 24 24 25 25 24 23 22 22 22 21 21 22 23 23 25 27 28 27 26 26 26 26 27 25 24 23 22 21 20 20 19 19 21
34 32 32 31 30 29 27 27 26 25 23 23 22 21 19 18 17 18 19 20 19 18 20 22 23 25 25 26 27 26 25 24 24 23 24 23 22 23 22 21 20 19 18 19
31 29 29 29 29 27 26 24 24 24 23 22 20 19 19 18 18 17 18 17 16 15 16 21 25 25 24 26 27 26 25 23 23 23 22 21 21 21 20 19 18 18 18 17
27 27 26 25 25 24 22 22 22 21 21 20 19 17 16 17 20 18 17 14 16 18 19 19 23 23 23 23 24 24 23 22 22 20 20 19 19 19 19 18 18 17 16 15
23 23 22 22 21 22 21 21 20 19 19 19 18 16 15 16 15 16 17 14 16 18 19 19 18 21 22 22 22 20 20 19 18 18 17 17 16 16 16 15 15 14 14 14
23 22 21 21 20 20 20 20 20 19 18 18 18 20 18 16 16 14 14 15 16 16 17 17 17 16 19 19 20 18 18 17 16 16 15 15 14 13 13 12 12 12 12 12
23 22 22 20 20 19 20 20 19 19 18 18 18 18 18 18 18 14 11 16 15 14 16 14 14 15 16 17 16 16 16 15 14 14 14 12 12 12 10 10 11 11 7 9
23 23 23 23 23 21 19 20 20 20 19 19 18 17 20 17 16 18 16 15 14 12 12 13 13 14 14 15 14 13 12 12 13 13 13 11 12 11 10 8 9 9 7 6
24 23 23 22 21 21 21 22 23 23 21 20 20 20 19 19 15 15 16 15 14 16 14 11 12 13 14 14 13 13 13 11 10 11 12 11 10 9 9 8 6 4 5 5
23 23 23 24 24 25 26 26 23 23 21 18 18 18 18 18 18 18 16 15 15 15 15 14 12 12 13 13 13 12 12 11 10 10 9 9 9 9 7 5 5 5 4 3
24 24 24 23 23 23 23 22 21 19 19 18 17 18 18 18 16 17 14 16 15 15 15 15 14 11 11 11 12 12 12 11 5 7 8 8 8 7 5 4 4 3 2 1

GFSNGP_sfc_temp_081.txt.gz
Temp
42 46 47 40 44 40 39 39 36 42 42 51 51 51 54 60 64 63 63 64 64 64 64 65 65 65 65 66 67 67 66 64 64 64 64 64 63 63 64 63 64 64 62 62
38 46 47 44 46 44 42 41 42 44 42 53 59 60 58 58 62 61 62 63 64 63 62 61 59 58 60 61 62 66 67 67 67 64 64 64 64 63 63 63 64 63 62 62
32 44 43 35 43 48 48 46 45 41 51 58 58 55 59 58 59 60 61 61 58 57 56 56 54 54 54 57 62 63 64 66 67 66 65 65 65 64 63 63 63 62 62 63
29 35 26 44 56 56 51 53 56 56 55 57 57 59 60 58 57 59 58 56 55 53 52 51 51 50 52 57 55 55 55 57 59 65 65 65 64 64 63 63 62 62 62 62
27 28 38 45 53 51 48 48 57 56 57 58 59 57 56 61 60 56 56 55 53 51 49 47 46 48 51 51 51 51 51 52 56 56 54 63 63 63 64 63 62 61 62 62
28 28 23 42 53 58 57 39 53 54 52 51 54 42 47 57 58 55 55 54 50 48 46 45 45 46 46 46 47 47 49 51 52 50 49 49 57 63 64 64 62 62 61 61
28 27 34 50 53 56 38 37 51 52 51 50 47 49 54 57 55 53 52 50 50 47 42 43 44 43 42 42 40 44 47 47 46 44 44 45 46 54 60 61 60 56 47 40
29 25 24 52 52 42 43 49 50 51 50 48 50 52 52 51 49 47 45 44 45 41 41 41 42 40 39 38 40 43 43 42 40 40 39 39 40 43 46 50 45 38 35 33
36 34 45 47 47 49 50 47 49 49 50 51 48 47 48 46 45 42 40 39 40 39 38 38 37 38 34 36 38 40 39 37 36 36 35 35 33 35 39 41 40 36 36 33
38 41 42 43 48 50 50 50 50 50 49 47 43 43 42 40 39 38 36 36 37 36 33 32 34 34 33 35 37 38 35 34 33 32 32 32 32 32 32 32 36 35 33 31
38 41 42 41 42 47 48 49 50 48 45 43 41 38 37 35 35 34 34 34 33 31 30 30 32 32 33 34 35 35 33 32 32 31 31 31 30 30 30 31 32 32 31 31
33 38 39 37 43 46 44 44 42 43 38 37 37 35 35 32 32 31 30 30 29 29 29 29 31 31 31 33 33 32 30 30 29 29 29 29 29 28 31 31 32 32 32 31
34 41 39 39 41 43 42 41 39 36 35 31 31 31 30 28 28 29 28 28 27 26 28 28 28 29 30 31 31 30 28 28 28 28 28 27 26 27 25 28 31 31 32 31
42 41 37 38 35 40 40 39 37 34 32 31 29 27 25 24 24 24 24 25 26 26 25 26 26 26 28 30 28 29 29 28 28 27 26 26 25 24 25 24 22 23 27 29
38 42 40 38 36 34 35 35 31 29 28 27 28 26 25 22 21 21 23 24 24 23 23 23 24 25 27 28 28 27 27 26 26 25 25 25 25 25 24 24 23 22 22 22
37 36 36 33 31 30 29 29 27 25 25 25 24 23 23 22 20 20 20 20 19 18 20 21 22 25 26 26 25 25 25 26 25 24 23 22 22 21 20 20 19 19 18 18
28 27 29 29 27 26 25 25 25 23 21 20 20 22 20 19 18 17 17 17 16 16 19 20 20 23 25 25 24 23 22 23 23 23 22 22 21 20 19 19 18 17 17 18
29 28 28 28 26 25 24 24 23 22 19 20 19 17 16 15 14 15 15 15 15 15 15 19 21 22 23 24 24 23 23 22 21 20 21 20 19 19 18 17 17 16 16 16
27 26 26 25 24 23 22 21 21 21 20 19 17 16 15 14 14 14 15 14 13 12 13 17 23 22 21 24 23 23 21 19 19 19 19 18 17 18 16 15 14 14 14 13
23 23 22 22 22 21 18 19 18 17 17 17 16 15 13 13 15 14 13 12 13 14 17 17 19 19 20 20 20 20 18 17 17 15 13 13 13 12 13 12 12 11 10 10
17 17 18 19 18 18 18 18 17 16 17 16 14 12 12 12 12 14 12 10 12 15 15 15 16 18 19 18 18 15 15 14 12 12 12 9 8 8 8 5 6 4 7 8
15 16 15 16 17 17 17 18 18 17 16 16 17 16 14 12 12 11 12 11 13 13 13 14 15 14 15 15 15 13 13 12 10 10 8 7 3 2 1 -0 -1 1 6 2
20 19 19 17 17 17 17 17 16 15 13 13 14 13 13 14 13 10 8 13 13 11 13 12 12 12 12 11 10 9 10 9 7 6 3 1 -2 -2 -0 5 2 -6 -6 0
21 21 20 20 19 19 16 17 18 18 16 17 15 14 17 12 12 14 14 12 9 7 8 11 10 10 8 9 9 6 6 6 6 4 4 1 3 4 -3 -9 -9 -10 -8 -4
18 19 20 19 19 17 19 20 21 20 19 18 17 17 16 16 9 11 10 9 12 11 5 6 9 9 6 5 4 6 2 1 0 1 2 -4 -4 -8 -9 -9 -10 -8 -3 -8
20 19 20 21 21 21 21 22 18 18 17 12 12 8 8 10 12 12 10 9 8 8 8 1 -3 -3 -3 2 -3 -4 3 -2 -7 -7 -3 -5 -5 -1 -7 -10 -7 -6 -10 -13
21 20 21 20 20 19 18 17 15 12 8 3 5 9 10 6 5 8 3 -1 -1 -1 -2 1 1 -1 -4 -2 -5 -4 -5 -3 -5 -6 -4 -6 -8 -5 -8 -13 -13 -13 -12 -10

GFSNGP_sfc_temp_084.txt.gz
Temp
40 43 44 42 42 40 37 39 35 38 41 45 47 48 50 53 57 60 59 59 58 56 55 55 54 54 56 58 61 62 60 60 60 60 61 61 61 61 61 61 61 62 61 61
35 43 44 41 44 43 39 40 39 42 38 50 51 51 50 52 55 57 55 55 55 54 52 52 51 51 53 55 56 59 60 60 61 60 61 60 60 60 60 61 61 61 60 59
29 39 39 33 41 44 43 44 41 37 47 50 49 51 52 52 54 54 53 53 52 50 48 47 46 48 50 52 53 53 53 55 58 58 60 62 61 60 60 60 60 60 60 60
28 33 24 42 51 52 48 50 48 50 51 52 49 52 56 56 53 51 50 49 47 46 45 44 45 46 48 49 49 49 49 51 53 52 52 54 56 61 61 61 59 59 60 60
25 27 35 42 49 47 46 43 49 52 51 52 53 51 47 52 52 49 48 47 45 45 44 43 42 44 44 43 44 45 45 46 48 48 48 49 48 48 54 61 61 60 61 60
25 24 20 38 51 56 54 35 48 52 52 50 50 39 43 48 47 46 46 45 43 42 41 40 40 42 42 41 41 41 43 43 43 43 43 44 44 45 48 50 60 62 60 60
25 23 31 45 48 53 36 35 47 48 48 47 43 44 45 46 43 43 42 42 43 40 37 37 39 40 40 39 38 41 41 41 39 39 39 40 40 42 44 45 46 57 56 42
27 24 24 45 46 39 41 45 46 47 46 44 44 44 43 41 39 39 37 38 39 38 36 36 37 36 36 35 37 41 38 37 35 35 35 36 35 36 38 39 40 38 36 35
33 32 41 45 44 47 46 43 44 44 47 45 43 41 40 38 37 35 35 34 36 35 34 33 35 34 32 33 36 38 36 34 32 33 32 33 33 32 32 35 35 33 33 31
38 39 39 41 45 46 46 46 46 46 44 43 40 39 36 36 34 32 32 32 32 31 30 29 32 33 32 34 35 35 33 32 32 31 31 31 32 32 30 30 32 32 32 30
35 38 39 39 40 41 43 44 40 40 39 38 37 34 33 31 32 31 30 30 30 28 28 29 30 30 32 33 34 33 32 31 30 30 30 29 30 30 30 30 30 29 29 29
30 34 36 34 38 39 37 36 37 36 32 32 34 32 31 29 29 28 27 28 27 27 27 27 28 29 29 32 31 30 29 29 28 29 28 27 27 28 30 30 31 32 32 30
34 35 33 33 35 39 36 34 34 32 31 28 28 27 27 26 26 27 26 26 25 24 25 26 26 26 28 27 29 28 27 27 27 26 26 25 24 24 22 26 29 28 29 31
40 39 34 33 30 37 35 34 33 30 29 27 25 25 24 23 23 22 22 23 24 23 23 23 24 23 25 25 25 24 24 24 25 24 24 23 23 23 22 21 20 20 23 25
35 37 35 34 34 32 34 32 28 27 26 25 26 24 22 19 18 18 20 22 22 20 20 21 21 22 24 24 22 23 23 23 23 21 21 20 20 19 19 19 18 18 19 20
34 33 33 30 28 28 27 28 26 25 24 23 22 21 20 19 17 17 16 16 16 16 18 17 19 22 23 21 20 20 21 22 21 20 19 19 19 18 18 17 17 16 15 15
28 26 28 27 26 25 24 23 22 20 19 19 18 18 18 17 16 14 14 15 14 13 14 17 17 20 21 18 18 18 19 20 19 19 19 19 18 16 16 16 15 14 13 15
26 26 26 27 25 23 23 23 22 21 18 18 17 15 14 13 12 13 12 13 14 13 13 15 19 19 20 20 19 19 19 19 19 19 19 17 17 16 15 14 14 12 12 12
26 25 25 24 24 23 21 20 19 19 17 16 15 13 13 12 12 11 11 11 11 11 12 15 21 18 17 20 19 19 17 16 16 16 16 15 14 15 12 10 9 9 9 8
21 22 23 21 21 20 17 17 17 16 16 15 14 13 12 12 10 9 11 9 10 12 14 15 18 17 17 16 17 16 14 14 14 12 11 11 9 8 9 8 8 7 7 5
12 13 13 15 14 15 15 16 16 15 14 14 12 10 10 11 11 9 9 8 10 13 14 15 15 16 16 16 15 13 12 10 9 8 7 6 6 5 3 3 3 1 0 -0
10 13 12 13 15 15 16 16 16 15 15 14 13 12 10 10 9 9 8 10 12 11 13 14 14 12 12 12 12 10 10 9 7 7 4 1 0 0 -3 -4 -2 -4 -5 -9
15 16 16 15 15 15 16 16 15 14 13 13 12 12 12 12 12 9 7 12 13 11 13 10 8 9 8 7 6 5 6 5 3 1 0 -2 -7 -8 -5 -7 -8 -8 -8 -7
12 14 14 17 18 17 15 15 16 16 13 14 13 14 14 9 7 14 13 9 6 6 6 8 8 6 3 3 2 -0 -2 -3 -3 -4 -2 -6 -10 -11 -13 -14 -12 -10 -11 -11
16 16 18 18 19 17 18 19 19 19 17 16 16 16 15 15 7 9 7 7 10 7 3 2 3 2 0 -2 -1 -4 -7 -10 -10 -8 -10 -9 -12 -15 -17 -15 -14 -12 -15 -17
19 18 19 19 19 19 20 20 17 16 14 9 9 3 3 6 8 9 6 5 6 5 1 -5 -8 -10 -10 -9 -11 -9 -10 -7 -11 -10 -12 -11 -10 -13 -16 -16 -17 -17 -17 -18
19 20 19 17 18 17 16 15 11 11 10 2 2 2 2 -2 -1 2 -3 -6 -8 -7 -2 -1 -3 -1 -3 -8 -9 -10 -10 -10 -11 -11 -13 -13 -11 -11 -16 -17 -18 -19 -19 -19

GFSNGP_sfc_temp_087.txt.gz
Temp
37 39 40 39 40 41 36 37 34 38 38 45 47 47 48 50 52 53 51 52 51 49 49 50 51 52 53 53 54 58 59 58 58 58 59 60 60 60 60 60 60 61 60 60
32 39 39 37 41 42 43 41 39 39 38 49 51 51 49 50 51 50 49 48 48 47 47 46 47 49 50 50 51 53 53 55 58 59 59 59 58 59 59 59 59 59 59 59
28 35 35 30 37 41 42 43 42 36 42 49 47 48 49 50 49 47 46 46 45 44 43 43 44 46 44 46 48 47 48 50 50 51 52 53 56 59 58 59 59 59 59 59
26 30 21 38 48 50 44 47 47 48 49 49 47 47 49 51 47 44 44 43 42 42 42 42 43 43 44 44 44 44 44 44 46 46 47 49 50 49 50 52 58 59 59 59
24 26 32 38 45 42 42 41 48 44 49 47 47 45 42 46 45 43 42 41 41 41 41 40 41 43 42 42 42 42 41 40 41 41 43 44 43 43 45 46 49 51 58 59
25 23 18 35 45 49 50 35 45 48 47 47 48 38 37 43 42 41 41 41 39 39 38 37 38 42 42 40 41 39 39 38 38 37 39 38 39 40 41 43 45 47 49 47
25 25 29 41 43 48 34 34 44 44 44 45 39 42 41 41 38 39 40 40 40 38 35 35 36 37 36 37 37 39 37 36 35 34 35 35 35 37 38 39 41 39 37 34
27 25 23 43 43 36 38 42 43 44 43 40 40 40 39 38 37 36 35 35 36 34 32 33 34 34 33 33 37 39 36 33 33 33 34 35 33 33 34 36 36 34 33 32
33 30 41 43 42 44 45 42 43 43 44 42 39 38 37 34 33 33 32 32 32 31 30 30 31 32 31 32 36 35 34 32 32 31 32 33 32 31 31 33 32 32 31 30
34 38 39 40 41 43 42 39 40 41 41 41 36 35 34 33 31 30 30 29 30 30 29 29 31 31 32 31 35 33 31 31 30 29 30 30 31 31 30 29 29 29 28 28
33 35 37 37 39 39 39 39 36 35 35 35 34 31 31 30 29 28 27 28 28 28 27 27 30 29 30 31 31 31 29 30 29 30 28 28 27 27 28 29 30 29 28 28
29 32 33 32 36 37 34 32 33 33 30 30 31 30 29 27 27 26 25 27 26 27 26 26 26 26 27 29 30 29 28 27 26 26 25 25 26 25 29 28 30 30 31 29
34 34 32 32 33 34 32 32 31 30 28 26 26 27 27 25 25 26 25 24 23 23 25 25 24 23 24 25 26 25 26 26 26 25 24 24 22 21 18 22 26 27 28 29
35 36 33 32 30 34 32 32 31 29 28 26 25 25 24 22 22 21 20 21 22 21 21 22 22 21 21 21 22 21 22 21 20 19 19 18 17 16 16 15 15 16 22 24
32 35 33 34 33 31 32 30 27 26 26 24 24 22 20 17 16 16 18 21 21 19 18 19 19 19 21 21 20 19 20 19 17 17 17 16 16 16 15 14 14 13 15 16
32 32 32 29 28 27 26 26 25 23 23 22 21 19 18 17 15 15 15 15 14 12 15 16 17 19 19 18 17 17 18 18 16 17 16 15 15 14 14 13 12 11 11 11
28 27 27 25 25 23 22 22 21 20 18 18 17 17 16 15 14 13 13 14 11 11 12 15 14 16 15 14 14 16 16 17 15 17 16 15 14 14 13 12 11 10 8 10
26 25 25 26 24 23 22 23 21 20 17 17 15 13 12 11 10 11 10 10 8 9 10 12 14 14 15 15 16 16 16 16 16 15 15 14 13 12 12 11 10 9 9 8
26 25 25 24 24 22 21 19 18 17 15 14 12 10 10 9 10 9 10 9 9 9 10 13 19 15 14 17 16 16 15 13 13 13 12 10 10 10 10 8 8 7 6 5
22 23 22 20 20 19 15 16 15 14 14 13 12 11 10 10 9 8 8 7 9 11 14 14 15 14 14 14 13 13 11 11 12 10 9 8 6 4 6 6 6 4 3 1
11 11 11 11 12 12 13 14 14 12 12 12 10 8 7 8 8 7 7 8 9 11 13 13 12 13 14 13 12 10 8 7 7 5 5 3 3 1 0 0 -1 -3 -5 -4
8 11 9 10 13 12 15 16 16 14 13 11 10 8 6 7 5 8 7 9 12 10 12 12 12 8 10 10 10 8 8 6 4 4 1 -0 -2 -5 -8 -8 -8 -10 -12 -14
8 10 10 8 8 9 12 12 10 12 10 9 7 7 9 11 12 8 6 12 13 10 12 9 6 6 5 5 4 3 2 1 -0 -2 -5 -9 -9 -10 -10 -11 -13 -13 -13 -11
10 12 10 12 13 15 12 14 15 14 9 12 8 6 12 6 6 12 11 6 3 3 3 6 5 3 1 -0 -1 -2 -4 -5 -7 -8 -4 -9 -13 -14 -14 -14 -11 -12 -15 -15
13 12 14 15 17 16 16 17 17 17 16 15 14 15 14 14 5 6 3 4 7 3 -1 -2 -2 -4 -8 -10 -10 -11 -12 -13 -13 -14 -14 -15 -17 -19 -20 -19 -19 -19 -20 -21
18 17 17 19 18 19 19 19 16 15 13 7 7 -1 -1 1 4 4 1 1 2 0 -3 -10 -13 -14 -14 -12 -14 -14 -13 -10 -14 -14 -15 -13 -16 -17 -19 -18 -20 -19 -19 -20
19 18 18 17 17 16 15 14 13 10 10 4 1 -4 -2 -5 -5 -1 -6 -8 -10 -8 -6 -8 -3 -6 -9 -13 -11 -11 -11 -12 -15 -14 -18 -18 -18 -19 -20 -20 -20 -22 -24 -23

GFSNGP_sfc_temp_090.txt.gz
Temp
37 38 38 37 37 38 36 36 32 36 36 42 46 48 48 48 48 48 46 45 45 44 45 47 48 50 51 52 54 58 58 57 57 57 57 57 58 59 60 59 58 59 59 58
32 38 36 33 37 37 38 40 39 41 39 48 50 51 49 49 47 45 45 44 43 43 43 43 44 45 46 46 48 51 51 50 51 52 57 57 58 59 59 59 60 59 58 58
29 33 33 29 33 38 39 40 39 33 41 48 45 47 49 46 45 43 42 42 41 41 41 41 41 43 43 44 45 45 45 46 47 48 49 49 51 50 50 52 57 58 59 59
26 30 19 36 44 43 40 43 44 44 45 47 43 42 43 46 43 41 40 39 38 38 39 40 42 43 43 44 43 42 41 41 41 43 44 45 45 45 45 47 48 50 51 56
23 25 31 37 41 39 36 38 43 42 46 45 43 43 39 41 41 39 38 38 37 37 37 38 38 43 43 42 40 39 38 37 37 39 38 39 40 40 42 43 45 46 45 40
25 22 16 33 41 45 43 32 40 42 44 43 45 38 35 39 40 38 39 39 36 36 36 34 35 40 40 39 39 36 36 35 36 36 35 35 35 35 39 41 42 42 38 36
25 26 29 39 41 45 29 30 40 41 44 43 37 39 37 38 36 36 36 35 36 35 32 32 34 37 35 36 36 37 35 34 34 34 35 35 34 35 36 38 38 36 34 33
29 25 21 39 40 33 38 41 41 41 39 37 36 35 34 33 32 33 32 32 32 31 30 32 33 34 32 31 36 36 34 32 32 33 34 34 33 33 34 34 33 32 32 31
30 30 39 40 38 41 42 38 40 39 39 36 33 32 31 30 31 30 30 30 32 31 30 31 31 32 29 30 35 33 32 30 30 30 30 32 31 31 31 31 30 29 29 27
32 34 36 37 38 38 36 35 36 37 35 35 32 32 30 29 28 28 28 28 30 29 28 28 30 30 30 30 34 32 30 29 30 29 27 27 29 29 29 29 29 29 28 27
32 33 35 34 35 36 34 34 33 33 33 32 31 29 29 27 27 27 27 28 28 27 26 25 27 27 28 29 31 30 30 29 28 27 28 26 26 26 27 28 29 27 27 27
28 31 32 30 32 33 30 29 30 29 27 29 29 27 27 25 26 25 25 26 25 25 25 23 24 23 24 27 29 29 27 26 24 24 23 24 23 23 28 28 30 30 30 28
33 34 32 31 31 31 29 29 29 28 27 25 27 26 25 23 24 25 23 23 22 22 23 23 22 21 21 23 24 23 22 22 22 21 21 20 18 18 15 20 25 27 28 28
35 34 33 32 29 32 31 29 29 27 26 25 23 23 22 20 20 20 20 21 21 20 20 20 20 19 19 18 18 18 17 18 17 16 16 15 14 13 13 12 12 12 20 22
31 34 31 32 30 29 30 28 25 24 24 22 23 21 20 17 16 16 17 20 20 18 17 17 17 17 19 20 18 16 18 15 12 13 13 12 12 12 12 11 10 10 11 13
30 31 29 27 25 25 24 25 23 22 21 20 18 18 17 16 15 14 14 14 14 12 14 14 15 15 18 16 14 14 13 15 13 12 12 12 12 11 11 9 8 7 6 7
26 27 25 25 23 22 21 22 21 18 17 16 16 16 15 14 13 13 12 13 12 12 12 13 12 14 14 13 12 11 12 14 13 14 13 12 12 10 9 8 7 5 4 5
25 25 25 25 24 22 21 22 21 19 16 16 14 12 11 11 10 10 10 11 10 10 11 11 11 11 12 11 12 13 12 14 14 12 12 10 10 9 7 7 6 5 4 5
24 23 23 24 22 20 18 17 16 16 13 11 10 9 9 8 8 6 5 8 9 8 9 10 17 14 12 16 14 13 11 10 11 10 10 6 6 7 5 3 2 2 3 3
21 21 20 18 18 17 13 12 12 11 10 10 9 9 8 7 7 6 7 7 8 10 12 12 13 13 13 12 11 11 9 7 9 5 4 3 -1 -2 -0 1 2 -2 -6 -3
9 10 9 10 8 8 5 5 7 7 5 6 6 2 3 4 5 5 6 7 8 11 12 12 11 12 12 12 11 8 5 2 2 2 0 -4 -5 -4 -5 -7 -7 -9 -8 -8
5 7 5 7 11 11 10 10 11 7 6 3 -1 -2 -1 3 2 5 3 9 11 9 11 11 10 5 8 9 9 6 7 4 2 1 -2 -5 -7 -10 -14 -14 -14 -14 -16 -16
7 9 9 7 8 8 11 11 7 7 3 1 -0 1 4 7 7 3 3 10 11 8 10 7 4 3 2 2 2 0 -0 -1 -2 -4 -11 -13 -14 -15 -14 -14 -14 -15 -15 -14
8 10 9 11 11 13 12 13 14 12 5 9 5 3 10 4 3 11 9 4 1 -0 0 1 -1 -1 -3 -6 -7 -9 -11 -12 -13 -13 -10 -14 -18 -18 -16 -18 -16 -18 -19 -20
12 11 12 12 14 12 14 16 16 16 14 14 13 13 12 11 1 3 0 0 3 -0 -5 -8 -7 -9 -14 -15 -16 -16 -17 -17 -17 -17 -17 -18 -19 -21 -22 -22 -22 -21 -23 -24
16 14 16 17 17 17 17 17 15 14 12 4 4 -5 -5 -3 2 2 -2 -2 -0 -2 -5 -12 -15 -15 -16 -14 -16 -16 -16 -12 -16 -16 -18 -17 -20 -18 -20 -19 -21 -21 -22 -23
14 14 14 15 14 14 12 12 11 10 10 4 1 -4 -3 -7 -8 -3 -8 -11 -12 -12 -13 -14 -11 -10 -12 -15 -14 -13 -14 -15 -16 -16 -19 -20 -21 -20 -19 -20 -22 -24 -26 -26

GFSNGP_sfc_temp_093.txt.gz
Temp
39 41 41 40 40 41 38 40 34 40 41 46 49 47 49 48 48 44 43 42 42 41 42 42 43 45 46 48 51 58 57 57 58 60 61 62 63 64 64 64 64 64 63 62
36 39 40 37 41 40 41 42 41 43 41 52 50 50 48 47 45 42 40 41 40 40 41 41 42 42 44 44 45 47 47 47 49 51 51 51 52 56 59 59 60 61 62 63
31 37 37 33 38 41 42 44 44 39 46 51 43 41 43 43 42 39 38 37 37 38 38 40 42 43 42 43 43 41 40 43 44 46 46 46 48 49 48 48 51 52 54 56
30 33 22 39 47 46 43 45 45 46 49 49 43 40 39 41 40 38 37 36 35 35 36 38 41 42 43 42 41 39 38 40 41 41 42 44 44 44 44 46 47 47 43 42
28 29 34 39 42 41 40 41 42 41 46 46 43 42 35 38 39 36 35 35 34 34 35 36 39 41 42 41 40 38 37 39 39 40 40 41 41 41 42 44 44 41 39 37
30 25 22 36 42 47 45 36 41 42 47 44 45 39 33 35 34 34 35 36 35 35 34 34 36 39 39 38 37 35 36 37 39 39 38 37 38 38 41 42 40 39 36 35
28 27 33 38 42 46 33 34 41 41 39 40 33 35 33 34 32 33 35 35 36 35 32 33 35 37 35 36 33 35 37 37 37 38 37 37 37 37 38 39 38 35 34 33
30 26 23 40 43 36 39 40 40 39 37 34 33 32 31 30 30 31 32 33 35 33 32 33 33 34 32 32 35 36 35 33 33 34 35 35 35 35 35 35 34 33 33 33
32 31 35 37 36 37 39 35 36 36 36 35 32 30 29 28 28 29 31 32 33 32 30 31 32 31 30 32 34 34 33 32 32 32 33 33 32 32 33 33 32 31 31 30
32 33 32 34 36 35 34 31 33 35 34 33 30 30 28 27 27 27 29 29 31 31 29 28 30 30 30 32 34 33 31 31 32 31 31 32 32 32 31 31 30 31 30 29
32 33 34 33 33 33 32 33 31 31 33 32 32 29 30 28 28 28 28 29 30 28 27 26 28 28 29 30 33 32 31 30 30 30 30 29 29 29 29 29 30 29 28 29
28 31 31 29 31 31 29 28 28 30 29 29 30 28 28 26 26 26 26 28 27 27 26 26 26 26 26 29 31 31 30 29 28 28 28 28 28 25 27 28 29 29 29 29
32 33 31 30 30 31 29 29 30 28 28 26 27 27 26 25 25 25 25 24 24 24 24 25 24 23 23 25 26 25 25 26 26 26 26 25 24 24 22 23 24 25 26 27
33 34 30 30 28 31 30 29 29 28 27 26 24 25 23 22 22 22 21 22 23 23 22 22 21 20 21 22 22 20 22 19 23 22 22 22 21 21 21 20 20 19 20 22
32 33 32 31 30 29 30 29 27 25 25 23 24 22 21 19 17 17 20 21 22 20 19 19 19 18 22 23 21 21 23 21 21 21 20 19 20 20 19 19 18 18 20 19
31 31 30 28 26 26 26 26 24 22 21 21 20 19 19 18 17 16 17 17 17 15 16 15 16 17 19 20 21 22 21 19 20 21 21 20 20 19 18 17 16 15 15 14
28 26 27 25 24 23 22 22 21 19 18 17 17 17 17 16 15 14 14 14 14 14 15 15 14 15 16 16 20 21 22 21 18 21 20 19 18 17 17 16 14 13 12 11
27 26 26 26 25 23 22 22 21 19 17 17 15 14 12 12 12 11 12 13 13 13 14 14 17 16 17 18 19 21 21 20 20 18 18 17 17 16 15 15 14 13 12 11
25 24 24 24 23 21 20 19 18 17 15 14 13 11 11 11 12 12 13 12 12 13 13 15 18 17 17 18 19 20 19 18 17 17 16 13 15 15 13 13 12 11 11 10
21 21 21 19 20 18 14 14 14 13 14 13 12 11 11 10 11 11 12 10 12 14 15 15 17 16 16 15 16 18 17 16 15 13 13 13 12 12 11 9 10 10 9 9
13 13 12 12 11 11 10 11 11 11 10 11 11 8 7 8 8 9 11 12 12 14 15 14 15 16 16 16 16 15 14 13 12 12 11 10 10 10 9 9 9 9 8 8
13 13 11 12 13 12 12 13 12 10 10 7 5 5 7 9 9 10 10 13 15 13 15 15 14 9 13 13 15 13 13 12 11 11 10 9 9 8 7 8 7 7 7 7
14 14 13 12 13 14 14 14 12 12 10 9 9 10 13 14 15 12 11 13 15 12 14 12 8 7 6 11 11 10 10 9 9 8 8 8 8 7 8 7 7 6 6 6
14 15 14 15 15 16 15 15 16 15 11 12 10 9 15 13 12 15 14 9 6 9 10 9 7 4 6 9 8 8 8 8 7 8 7 0 7 6 7 6 6 6 5 3
16 15 16 15 17 18 17 18 18 17 16 16 16 16 15 16 14 14 14 12 8 9 11 1 1 -0 9 9 8 7 8 8 7 8 7 8 7 6 6 5 4 5 4 3
18 19 19 19 20 21 20 19 18 18 17 14 13 12 12 12 13 14 12 8 11 6 11 9 8 8 9 8 8 6 7 8 8 8 5 6 6 6 4 4 4 4 4 3
19 19 19 19 18 18 18 17 18 17 16 15 14 12 12 11 10 10 5 10 10 8 8 8 8 6 8 7 7 7 7 7 2 6 6 6 5 5 3 3 4 3 1 -0

GFSNGP_sfc_temp_096.txt.gz
Temp
47 48 49 47 46 47 45 46 40 46 47 53 52 50 52 46 45 44 44 41 37 37 39 42 43 43 44 45 47 54 55 55 58 61 63 63 66 67 66 64 64 65 65 64
40 46 46 43 46 47 47 47 47 48 49 57 54 50 42 42 41 40 37 37 37 36 37 40 41 42 42 41 42 44 44 44 47 49 51 51 52 52 56 57 59 62 63 64
36 43 43 38 43 46 48 50 49 44 51 58 48 43 40 39 39 37 36 36 33 33 34 38 41 41 39 40 41 41 42 42 42 44 45 45 47 48 48 49 50 47 47 43
37 39 28 43 52 52 48 49 50 51 53 51 44 39 38 39 38 36 35 34 32 32 33 35 39 41 40 40 39 40 40 39 41 41 41 43 43 44 46 45 43 41 41 42
34 36 40 42 45 44 43 44 47 45 50 44 43 42 35 35 35 34 33 34 36 35 33 34 37 40 41 39 38 38 38 38 42 39 38 40 40 42 43 42 40 38 38 37
37 30 27 39 48 53 51 40 43 43 45 45 43 39 33 33 32 33 34 37 38 40 37 36 35 38 38 37 37 36 36 37 41 40 40 39 40 42 42 41 39 38 36 36
33 32 37 41 49 53 37 34 42 41 37 35 31 31 32 33 31 32 38 38 40 41 39 37 38 39 37 35 33 35 37 39 38 38 37 39 40 41 42 41 40 38 37 37
35 31 27 36 47 38 35 39 39 37 36 33 32 31 30 30 29 32 37 37 39 37 36 37 37 37 35 34 38 38 36 35 36 35 37 38 38 39 40 40 38 38 37 36
32 29 34 35 33 34 36 34 35 36 36 35 32 30 30 29 29 29 32 36 38 36 35 35 35 36 33 34 37 37 38 36 36 36 35 36 35 36 36 37 36 34 34 34
33 32 33 34 35 34 34 33 33 35 35 34 32 31 29 30 30 31 34 35 38 37 35 33 34 33 33 36 37 36 35 36 36 33 34 35 35 34 34 34 33 33 33 32
32 34 36 35 34 35 34 35 34 36 36 36 37 35 36 34 34 34 35 36 36 34 33 32 33 33 34 35 38 36 34 33 34 34 31 30 29 30 30 29 30 30 30 31
31 32 33 30 32 32 31 31 34 36 34 36 36 34 34 32 33 33 32 34 34 33 32 31 32 31 32 34 36 36 34 34 33 34 34 33 30 27 27 27 29 29 29 30
32 33 32 31 32 33 32 34 35 35 35 33 34 34 33 31 31 29 31 31 30 29 31 30 29 27 29 29 30 30 30 32 33 33 33 32 31 31 27 25 25 25 27 27
36 36 32 35 33 36 36 35 34 34 34 32 31 31 29 28 28 27 26 27 28 28 27 27 26 24 27 28 28 28 28 28 30 30 30 29 29 28 28 27 25 24 23 23
36 38 37 36 36 35 36 35 33 32 31 29 30 28 27 24 23 23 25 27 27 25 24 24 23 23 26 28 27 27 29 29 29 28 27 28 28 28 28 27 26 26 27 26
35 35 35 32 32 32 32 31 29 27 27 26 25 24 24 24 23 22 22 22 23 21 21 19 20 20 23 26 28 29 27 25 27 28 28 27 27 27 27 26 25 24 21 20
32 30 31 29 28 28 26 27 26 24 23 22 21 22 22 21 20 18 18 20 19 19 20 20 19 19 22 22 27 28 29 28 25 28 27 27 26 26 25 24 23 22 18 16
32 31 30 30 29 27 26 26 25 24 22 22 20 18 16 17 17 16 17 18 18 17 19 20 20 21 22 23 26 28 29 28 27 26 26 25 25 25 24 23 22 21 20 18
31 29 29 28 28 27 26 24 23 21 19 18 17 15 15 16 17 16 17 17 18 18 17 20 21 22 22 21 26 28 27 26 25 25 24 22 23 23 22 21 20 19 19 18
26 27 26 25 25 23 19 19 19 18 17 17 16 16 15 14 14 15 17 15 16 18 20 19 22 22 22 21 22 26 25 24 23 21 21 22 21 20 18 16 18 18 18 17
20 20 18 18 17 17 17 18 17 16 15 16 16 13 13 14 14 14 19 22 18 18 19 19 20 23 23 22 25 23 22 21 20 20 20 19 19 18 18 17 17 17 17 16
20 18 17 18 18 17 18 19 17 15 15 13 11 12 13 16 14 16 14 18 21 15 20 21 20 14 18 19 22 20 20 20 19 19 18 18 18 17 16 16 16 16 16 15
20 20 19 18 19 20 20 19 17 17 15 14 14 16 19 20 21 20 20 19 22 16 21 18 13 12 14 18 19 18 18 17 16 16 16 16 16 16 16 16 16 16 15 15
21 22 21 21 21 22 21 21 22 20 17 18 16 15 20 22 21 22 21 15 13 15 16 15 13 11 13 17 16 16 17 16 16 17 15 9 16 15 15 14 14 15 13 11
22 21 21 21 23 26 23 23 23 23 22 23 21 21 20 22 20 22 21 18 13 16 18 8 8 9 16 17 15 15 15 16 15 16 16 16 15 14 14 14 11 13 12 11
24 26 27 24 25 26 27 25 23 25 23 21 22 22 22 22 21 20 19 15 17 14 18 18 17 16 17 16 15 14 14 16 14 15 12 14 14 13 12 12 11 11 12 11
25 23 26 25 27 26 25 24 23 23 23 22 20 20 21 20 20 18 14 18 18 18 17 17 17 14 16 15 15 15 15 15 11 13 13 13 13 13 12 11 11 12 11 9

GFSNGP_sfc_temp_099.txt.gz
Temp
49 54 53 50 48 50 47 50 43 48 50 49 48 45 43 43 42 41 40 40 40 38 38 38 39 40 41 42 44 48 49 51 55 62 63 64 63 66 68 68 67 67 67 66
44 51 51 47 50 50 50 50 50 51 47 56 52 49 43 40 38 37 37 36 36 36 37 37 38 38 39 41 41 43 42 43 47 49 49 50 52 53 61 59 58 58 54 60
37 47 48 39 47 50 52 53 52 45 49 54 45 40 38 38 37 36 36 35 33 33 33 35 35 37 36 37 40 41 41 41 42 44 45 45 47 47 46 45 45 45 43 41
38 42 32 46 56 55 51 50 51 53 51 52 41 35 35 36 35 34 35 36 34 32 33 33 36 37 36 38 37 38 37 38 40 41 41 43 43 43 41 41 39 40 39 39
38 39 43 46 48 48 47 41 49 48 49 44 39 37 32 34 34 34 34 41 41 39 33 33 33 35 37 36 36 36 33 34 37 38 38 41 40 40 39 37 36 36 37 37
41 35 29 36 47 55 55 38 45 48 44 40 40 36 30 33 33 34 37 42 41 42 40 38 36 35 35 35 34 33 33 35 34 36 37 37 38 38 38 36 35 35 33 34
39 37 37 36 46 52 39 31 42 43 40 36 31 31 32 33 32 34 43 44 44 42 39 38 40 37 34 35 32 32 35 37 36 34 37 39 39 39 39 38 38 37 35 35
39 36 29 37 46 36 32 36 38 39 39 35 34 33 32 32 31 32 35 43 44 42 38 38 38 38 34 33 37 37 36 35 38 38 38 40 38 37 39 39 38 38 36 35
32 29 34 37 35 36 37 34 35 36 38 38 34 31 31 30 31 33 40 43 45 43 39 38 37 37 35 34 36 38 36 34 32 36 36 36 36 37 36 36 35 34 34 33
33 33 35 37 39 38 37 34 36 39 39 40 35 34 33 34 36 38 41 41 43 41 39 37 38 37 36 38 39 36 36 36 34 32 32 32 34 32 30 32 32 32 32 31
32 35 36 37 36 37 38 40 40 41 41 41 41 40 41 40 40 40 41 41 41 38 36 36 36 35 37 38 40 39 37 36 34 33 31 28 27 29 29 28 29 30 28 28
30 33 34 32 34 36 34 34 39 40 40 41 41 40 40 38 38 38 37 37 37 36 34 33 33 31 32 35 37 37 35 35 34 35 35 34 30 26 28 28 29 29 29 29
33 35 33 32 34 36 37 39 41 40 41 39 39 39 37 34 34 33 35 34 32 31 32 31 29 28 29 31 32 31 31 33 34 33 33 33 32 32 27 25 26 27 27 28
38 38 35 37 36 41 41 40 39 39 39 37 35 33 31 30 30 29 28 29 31 30 29 28 27 25 28 30 30 30 30 30 30 30 30 30 30 29 29 28 26 25 25 26
40 41 40 41 41 40 41 41 38 36 35 34 34 32 31 27 26 26 28 30 31 28 26 26 24 23 27 29 29 28 30 29 30 29 29 29 29 29 29 28 27 26 27 28
39 40 39 37 36 36 36 35 34 31 30 30 28 27 27 27 25 25 24 24 24 22 23 22 22 22 25 26 29 30 29 28 29 29 29 29 29 29 28 28 26 24 22 22
34 33 33 33 33 32 30 31 30 27 26 25 24 25 25 24 23 22 21 22 21 21 22 21 21 23 24 26 28 30 29 30 28 29 28 28 28 28 28 27 26 23 20 20
37 36 35 35 32 31 29 29 28 27 24 24 22 20 19 19 19 19 20 21 21 20 21 21 22 24 24 24 28 31 31 30 30 28 28 27 28 28 27 26 26 25 23 21
36 34 33 32 32 30 29 27 24 23 21 21 20 18 19 19 19 19 20 20 21 22 20 22 24 25 25 23 27 31 30 28 29 28 28 26 26 26 25 25 24 23 23 22
31 31 30 28 28 27 23 22 23 20 20 20 19 19 17 16 17 18 20 18 18 20 22 22 25 26 25 25 25 30 28 27 26 25 23 25 24 23 21 19 22 22 21 21
24 23 21 21 20 21 21 21 20 19 19 19 18 16 16 17 17 17 21 26 21 19 22 23 22 23 26 24 28 26 25 25 24 23 23 23 23 22 22 21 21 20 20 20
23 21 20 20 21 20 22 23 21 19 18 16 14 15 16 20 18 19 17 19 25 16 23 24 22 16 20 18 25 23 23 23 23 23 22 21 21 21 20 20 19 19 19 19
23 23 23 22 22 23 23 22 20 20 18 16 17 20 22 23 24 23 22 22 25 19 23 20 14 14 14 21 21 21 21 20 20 20 20 19 19 19 19 18 18 18 18 17
25 25 24 25 24 24 23 23 24 23 20 20 19 18 20 24 25 27 25 18 16 16 18 16 15 13 12 20 19 19 19 20 20 19 19 10 18 18 18 16 16 16 16 15
25 25 25 25 26 27 26 26 27 26 25 26 25 25 23 26 22 23 23 21 16 17 20 12 13 13 18 19 18 18 18 19 17 17 18 18 18 17 17 17 15 15 14 14
27 30 30 27 28 29 30 30 28 29 28 27 27 26 25 25 24 22 23 18 20 18 19 20 19 18 18 18 17 17 17 18 17 17 15 16 17 16 16 15 14 14 14 14
28 26 29 29 30 30 28 27 25 25 26 25 24 25 25 23 23 20 18 21 20 20 19 19 19 18 18 18 17 18 18 18 16 16 16 16 16 16 15 15 14 14 14 13

GFSNGP_sfc_temp_102.txt.gz
Temp
42 47 48 42 41 44 47 48 34 43 41 42 42 41 40 40 40 39 39 38 37 37 38 38 38 38 38 39 41 43 45 46 49 55 60 61 62 64 64 64 63 63 62 62
34 49 44 41 48 48 50 50 49 44 37 46 44 42 38 38 37 36 36 35 35 35 36 36 36 37 37 38 39 41 40 41 43 46 48 50 51 54 53 52 52 50 51 47
35 47 45 36 46 48 46 47 45 36 40 45 37 35 34 35 35 34 36 36 33 33 33 34 34 35 35 36 38 38 38 39 40 42 43 44 44 44 44 44 43 41 41 40
36 40 26 43 53 48 44 44 47 47 44 39 34 33 34 34 34 33 36 38 36 33 33 33 34 34 34 36 36 36 36 37 39 39 40 40 40 39 38 39 39 38 37 37
34 35 39 43 43 40 38 34 43 44 43 40 36 34 31 33 35 35 35 41 41 39 35 35 34 33 33 33 34 35 33 35 36 38 37 37 36 36 36 36 35 35 36 35
40 33 26 33 41 49 49 29 39 42 40 39 39 34 29 32 33 35 40 43 42 42 40 38 37 36 33 32 32 32 33 33 34 36 36 35 33 34 35 33 33 34 33 33
37 35 32 36 43 47 34 27 38 39 37 35 30 31 32 33 33 34 38 44 44 41 37 37 39 37 34 33 32 32 33 34 33 33 33 33 33 34 33 33 33 33 32 32
34 31 25 38 42 32 31 35 36 37 36 34 33 32 32 31 31 34 38 43 43 40 38 38 38 38 34 32 35 34 33 33 33 33 32 33 33 33 33 33 33 32 32 32
31 28 34 37 35 36 37 34 35 36 39 37 33 31 31 31 32 35 40 42 42 40 37 37 38 37 34 36 36 36 33 30 29 29 31 31 29 29 32 33 32 31 31 29
33 33 34 36 38 38 38 36 40 41 41 40 35 35 34 36 37 38 40 40 40 38 35 33 35 35 35 38 39 37 34 32 29 27 27 28 29 29 28 28 28 29 29 27
32 35 36 35 36 38 39 41 41 43 42 42 41 39 39 38 39 38 38 38 37 34 33 32 32 32 34 35 38 37 35 34 32 31 28 26 26 26 27 27 29 26 25 26
29 33 34 31 34 37 36 38 41 41 41 41 41 39 38 36 36 36 35 35 33 32 31 30 29 29 30 33 34 33 32 32 32 32 31 28 25 24 29 28 30 30 30 27
33 36 33 33 36 40 39 39 41 40 39 38 37 37 35 31 31 31 31 31 30 29 29 28 27 26 28 30 31 31 29 30 31 31 30 30 29 26 21 25 28 28 29 29
39 40 36 37 37 42 42 42 42 40 39 37 34 31 30 28 28 27 27 28 29 27 26 26 25 23 26 29 29 29 29 29 29 28 28 28 28 28 28 26 23 22 27 27
41 43 42 42 43 42 43 42 40 35 34 33 32 29 28 25 24 23 25 27 28 26 24 23 22 22 25 27 28 27 28 28 29 29 29 29 29 28 27 26 24 22 23 25
41 42 40 38 37 36 35 34 31 28 28 27 26 26 25 25 24 23 23 22 21 20 21 19 20 21 23 24 27 29 28 27 29 29 28 28 27 27 26 24 22 19 17 17
35 34 34 33 33 31 29 29 28 27 25 24 22 21 22 24 22 21 20 21 18 18 19 19 18 18 19 21 22 29 29 28 28 28 27 27 26 25 25 24 20 17 15 15
37 36 36 34 32 31 29 29 27 25 22 22 21 19 17 17 18 18 18 19 18 17 19 18 19 20 18 20 22 29 28 28 27 25 25 23 24 24 23 22 21 20 18 17
36 33 33 32 32 30 27 24 23 22 21 20 20 18 16 14 16 16 18 16 17 19 18 19 22 24 24 22 24 28 27 25 26 25 25 23 22 21 21 20 19 18 18 17
30 30 28 26 26 25 22 22 22 20 20 18 17 15 15 13 13 13 17 16 16 18 20 21 23 23 24 23 20 27 25 24 24 21 20 21 21 19 16 14 18 18 17 15
23 22 21 20 20 20 19 19 18 18 16 15 15 12 12 15 14 13 18 21 19 18 19 20 20 18 23 19 18 24 22 22 20 20 20 20 19 18 18 17 17 16 16 15
23 21 19 19 20 20 21 22 20 16 15 13 10 10 12 17 17 17 15 18 22 13 19 21 18 12 15 11 22 21 20 20 20 20 18 18 17 17 16 15 14 14 14 13
23 23 22 20 21 23 23 22 18 18 15 14 14 18 19 21 23 21 19 20 22 16 20 16 10 9 10 16 19 19 19 17 17 17 16 16 15 15 15 11 11 13 13 11
25 25 24 25 24 24 21 22 22 23 18 20 18 15 19 20 22 24 22 15 12 12 15 14 12 9 6 16 17 17 16 17 16 16 16 3 14 13 13 10 10 10 9 7
25 25 25 24 25 25 27 27 27 27 26 26 25 23 22 26 21 22 21 20 15 14 18 11 9 8 13 17 16 15 15 16 13 12 14 15 13 13 13 13 9 10 6 6
26 27 27 28 27 28 29 29 27 28 27 25 26 26 24 24 23 21 22 17 18 17 18 18 17 15 16 16 15 14 15 15 15 13 13 11 13 13 11 12 9 9 11 10
28 25 29 29 30 29 28 26 23 23 24 22 21 24 24 23 22 19 17 19 20 20 19 19 19 16 16 15 14 15 16 15 14 13 12 11 11 12 11 11 10 9 7 7

GFSNGP_sfc_temp_108.txt.gz
Temp
35 35 37 35 34 36 35 34 31 31 30 33 34 34 35 36 37 37 35 35 34 34 34 34 35 35 36 37 37 40 39 39 40 42 44 46 51 60 60 59 59 60 58 58
32 35 36 32 33 35 35 34 34 33 29 34 35 35 33 34 35 35 34 32 33 34 34 34 34 34 35 35 36 38 38 37 38 40 41 41 42 44 46 46 46 46 45 44
29 35 34 27 30 32 32 35 35 30 32 33 30 30 30 32 33 33 33 32 30 31 32 33 33 34 33 34 36 35 35 37 37 37 37 38 39 38 38 39 41 39 39 40
30 32 21 29 35 36 32 33 35 35 33 32 30 30 31 33 32 32 33 32 31 30 32 33 34 34 34 34 34 34 33 34 35 36 35 36 35 34 34 35 35 35 35 37
28 28 29 33 33 30 32 29 33 33 33 32 31 33 28 32 33 33 33 33 32 33 33 34 33 34 32 31 30 31 30 31 32 34 34 34 34 33 33 33 32 32 34 34
30 25 21 28 33 39 38 25 33 33 31 31 34 26 26 31 32 33 34 33 32 32 35 33 34 34 33 29 28 27 28 29 31 31 31 32 32 32 32 32 32 32 32 32
27 26 28 30 34 40 28 24 34 33 31 30 27 27 30 32 32 32 35 34 33 31 30 32 33 33 31 30 26 27 29 29 29 30 30 30 32 32 32 32 31 30 30 31
27 23 20 33 34 28 31 34 35 33 33 31 31 31 29 31 28 31 31 31 31 29 28 31 31 30 30 29 31 30 28 27 27 28 28 29 29 30 30 30 29 29 29 29
28 25 32 34 33 35 36 34 34 34 35 35 33 31 28 26 26 28 29 29 30 28 28 29 29 29 28 30 32 31 29 27 27 28 28 28 28 28 27 28 27 27 28 28
27 30 31 33 35 35 36 34 36 38 37 37 34 33 28 28 27 27 28 27 27 27 27 26 27 28 28 30 33 31 28 27 27 27 27 27 28 29 27 26 26 26 26 27
29 31 32 32 32 34 36 39 36 34 33 35 31 29 28 27 27 27 26 26 26 24 24 24 26 26 26 29 30 30 30 29 26 26 25 26 27 26 27 28 28 26 25 27
26 32 32 30 32 36 33 31 33 31 29 30 30 27 27 25 26 25 24 25 23 23 23 22 23 23 24 25 28 28 28 28 27 25 24 24 24 24 30 29 30 31 31 28
30 33 28 28 31 34 33 33 33 31 30 26 28 26 25 22 23 25 24 23 22 21 21 21 21 19 20 22 25 27 24 26 26 26 26 23 21 21 18 23 28 28 29 30
35 35 32 34 30 36 35 32 31 29 28 27 25 24 23 21 21 20 20 22 21 20 19 19 19 17 18 19 19 20 21 22 20 19 20 20 17 16 14 12 11 13 21 26
38 38 35 33 32 31 31 29 26 24 25 24 24 23 22 19 17 17 19 22 22 19 16 15 15 15 18 21 20 19 22 23 21 17 17 16 16 14 12 10 10 10 12 16
38 36 33 29 27 27 26 26 23 21 21 20 21 21 21 19 17 16 16 16 16 12 13 9 14 13 16 16 15 16 16 17 16 14 16 16 15 13 11 10 10 10 10 6
30 29 27 25 24 24 22 23 21 19 16 14 13 14 17 14 12 11 8 11 8 5 5 5 7 8 10 12 12 13 15 14 14 15 15 15 14 12 8 7 7 9 8 4
28 26 28 27 24 23 23 22 21 20 15 15 12 6 3 4 4 3 3 3 5 6 5 5 7 10 11 14 15 18 16 18 17 14 15 14 13 14 12 11 10 9 6 10
26 25 25 25 24 23 21 19 17 16 9 6 5 2 -1 -3 -1 -2 -3 -1 -1 2 5 8 18 14 15 15 16 17 16 14 15 16 16 10 8 14 9 7 9 5 5 5
22 23 23 21 21 19 14 9 8 7 2 3 -3 -2 1 -1 -4 -3 -4 4 5 7 9 11 15 14 14 14 11 15 14 12 17 10 8 8 3 -2 3 8 7 1 -4 -3
12 12 12 12 7 5 5 4 5 5 1 -2 0 -1 -0 1 -1 -4 3 8 6 7 11 12 11 10 12 9 12 8 6 6 10 8 8 8 7 5 3 2 4 5 6 2
7 9 5 5 9 7 6 5 8 2 1 -2 -5 -7 -6 5 3 2 2 9 12 6 12 11 10 2 7 3 11 3 8 6 6 8 5 4 5 4 2 3 3 1 -1 -2
9 10 10 7 8 10 7 7 2 3 1 -0 0 1 4 10 11 8 7 13 14 7 11 7 1 -1 -2 3 -3 -5 1 2 -1 -2 -3 -7 -7 -5 -2 0 1 0 -2 0
12 13 13 14 12 15 13 11 13 15 8 10 10 10 13 11 7 15 13 7 5 1 -1 2 -2 1 -4 -6 -4 -8 -6 -2 1 -2 -1 -3 -4 -8 -10 -12 -9 -12 -12 -10
16 15 14 13 18 17 21 22 22 22 21 21 21 21 17 18 11 11 9 7 7 5 2 -0 2 1 -7 -9 -5 -6 -8 -7 -8 -10 -9 -6 -2 -1 -1 -5 -7 -9 -12 -14
20 18 18 21 19 18 18 19 14 14 15 9 10 4 7 9 15 15 11 6 8 6 3 -1 -3 -3 -3 -6 -5 -5 -6 -2 -5 -6 -6 -7 -9 -5 -1 -2 -6 -10 -12 -12
19 17 19 19 21 20 17 14 10 9 7 0 3 4 5 2 11 15 11 6 2 2 3 4 3 5 5 3 1 -1 -6 -5 -3 -3 -5 -8 -11 -11 -8 0 1 -5 -9 -9

GFSNGP_sfc_temp_111.txt.gz
Temp
33 34 34 32 33 37 34 33 28 28 27 30 31 32 33 35 35 33 32 32 33 33 33 34 34 35 35 36 37 38 37 38 38 40 41 41 41 41 44 58 59 59 58 58
30 32 32 28 31 31 33 32 31 30 27 32 33 33 32 33 34 31 30 30 31 33 33 33 33 33 34 34 35 36 36 35 37 39 39 39 39 39 38 39 43 48 48 48
27 36 33 26 28 29 31 32 33 28 30 31 29 29 29 31 32 30 29 29 29 30 32 32 32 32 31 32 33 33 33 35 35 37 37 37 37 37 36 35 35 36 38 40
29 31 20 28 33 34 31 31 33 33 30 30 29 29 31 32 32 30 29 28 29 30 31 32 33 33 31 31 31 31 31 32 33 34 35 36 35 34 34 34 33 33 33 35
28 26 28 30 30 29 30 27 32 32 32 31 31 32 28 32 32 31 29 30 29 32 31 31 31 33 29 29 29 29 28 29 30 32 33 33 33 33 33 33 32 32 32 33
30 24 20 26 32 37 37 24 32 31 30 30 33 25 24 31 32 32 31 30 29 30 31 30 30 32 29 26 26 25 26 27 28 29 29 31 31 31 32 32 31 32 31 32
27 25 26 30 33 37 26 24 33 32 30 28 26 26 30 30 27 29 30 30 30 28 28 29 29 31 30 28 25 25 26 27 27 27 28 28 30 30 30 30 30 30 30 30
27 22 18 31 34 28 31 34 33 33 32 30 30 29 27 25 23 26 26 28 28 26 26 28 28 29 29 29 29 29 27 26 26 26 27 27 27 27 28 29 29 29 29 29
26 24 31 34 32 34 35 32 34 33 35 34 30 26 22 21 23 25 25 25 27 26 25 26 26 26 27 28 31 30 28 26 26 27 27 27 26 25 26 28 27 27 28 28
26 30 31 32 33 34 35 32 32 36 36 34 28 26 24 24 24 24 24 23 25 24 23 23 25 26 26 28 29 30 29 27 26 25 26 27 28 28 27 26 26 27 27 27
28 30 31 31 31 33 34 34 31 32 31 30 28 26 26 24 24 24 23 23 23 23 23 21 23 23 23 26 28 28 28 28 26 25 24 24 26 26 27 28 29 27 26 28
21 31 30 28 32 33 31 30 30 28 26 27 27 25 24 23 24 22 22 23 21 21 21 20 21 20 21 23 26 26 27 26 26 24 23 23 21 22 28 28 30 30 31 28
31 32 28 30 31 33 30 30 29 28 27 24 24 23 23 21 22 24 22 21 19 19 20 20 19 18 19 21 23 25 24 25 24 24 25 22 19 19 15 19 26 27 29 30
34 34 31 30 28 31 30 29 29 26 26 25 23 23 21 20 19 19 19 21 20 19 18 17 17 15 15 17 17 17 20 19 18 19 17 17 13 10 9 7 7 11 19 24
35 36 32 30 30 28 29 27 25 24 24 23 23 22 21 17 15 15 17 21 20 16 14 13 14 13 15 18 18 16 19 16 12 10 14 15 12 8 4 6 5 6 11 14
35 34 32 29 26 26 26 25 22 21 21 20 20 19 19 17 15 13 13 14 14 10 10 7 12 10 13 14 14 14 11 14 11 8 7 9 7 7 8 7 8 7 8 5
28 26 26 24 24 23 21 22 21 18 15 13 11 15 13 12 11 9 7 8 5 2 2 2 3 6 9 9 10 12 11 13 11 12 12 10 8 6 5 5 5 6 2 -0
28 29 29 27 24 23 22 22 20 18 14 13 10 5 3 3 3 1 2 2 3 4 1 3 5 5 8 9 13 16 14 16 16 13 13 10 10 13 9 8 8 7 3 6
26 25 25 25 24 23 20 18 15 15 7 4 4 0 -3 -5 -4 -4 -6 -3 -2 1 5 6 16 13 13 14 15 15 13 11 13 14 14 9 6 10 10 8 3 -1 2 3
23 23 23 21 21 19 12 7 6 5 -1 1 -5 -2 -0 -3 -6 -5 -6 0 3 6 7 10 13 12 12 13 10 13 11 9 13 8 4 6 -3 -2 3 7 8 0 -6 -5
12 12 11 11 5 4 4 2 4 5 0 -5 -1 -2 -3 -2 -3 -7 1 7 6 6 9 10 10 9 10 7 12 8 2 1 3 5 4 3 2 4 -3 -3 1 0 -2 -4
6 8 3 3 7 5 3 2 6 0 -1 -3 -8 -10 -7 4 1 1 2 9 11 6 10 10 9 2 5 2 10 1 6 5 5 4 1 1 1 0 -1 -1 -5 -7 -5 -3
8 8 8 5 7 7 6 6 0 1 -1 -3 -2 0 2 10 9 7 7 13 13 8 10 7 2 -2 -3 -4 -3 -7 -5 -3 1 2 -3 -9 -9 -8 -3 1 -1 0 -1 -2
9 11 11 12 10 14 12 10 11 14 6 9 8 7 11 11 8 15 16 10 6 2 -2 1 -2 -1 -5 -8 -8 -10 -9 -9 -8 -6 -4 -7 -5 -9 -10 -12 -10 -12 -14 -13
14 13 13 12 16 15 18 20 21 20 19 20 19 19 17 16 12 12 11 11 7 4 4 1 -1 -1 -8 -11 -11 -10 -10 -11 -10 -12 -9 -8 -6 -3 -6 -7 -6 -7 -14 -15
18 16 16 19 17 16 17 18 14 14 14 10 9 3 5 4 8 12 12 12 9 6 5 4 -3 -3 -5 -6 -7 -8 -7 -4 -7 -6 -9 -6 -10 -10 -10 -4 -1 -4 -10 -7
17 16 17 17 19 18 16 15 13 12 10 1 2 6 3 0 1 5 8 6 2 2 2 3 3 1 2 0 0 0 -2 -4 -8 -4 -9 -10 -13 -12 -13 -11 -5 -1 -5 -12

GFSNGP_sfc_temp_114.txt.gz
Temp
32 32 32 29 31 33 30 31 25 25 25 27 29 30 31 31 32 30 30 31 31 31 31 33 32 33 33 33 34 36 36 36 37 38 39 40 40 41 42 41 42 44 54 58
31 34 33 27 29 31 31 31 28 28 25 30 31 31 30 29 30 28 28 29 30 31 31 31 32 31 31 31 33 35 34 34 36 37 37 37 38 38 39 39 39 38 38 41
27 34 32 25 26 27 29 31 31 26 28 30 27 28 28 29 28 27 28 28 28 28 29 30 31 30 29 30 32 32 32 33 33 35 35 35 36 36 35 36 37 36 36 36
29 30 20 27 35 34 30 29 32 30 29 30 28 28 29 30 28 27 27 27 27 28 29 29 31 29 29 30 29 29 29 30 31 32 33 34 34 33 33 33 33 34 34 35
27 25 27 30 29 28 28 26 30 31 31 31 31 31 27 30 29 27 26 27 27 29 28 27 29 30 28 26 26 27 26 27 28 30 30 31 31 31 32 32 31 32 32 33
28 24 18 25 31 36 35 24 31 31 29 30 32 24 23 26 27 26 27 27 27 27 27 28 29 32 29 26 25 24 25 25 26 28 28 28 29 29 31 32 31 31 31 31
26 24 25 29 32 36 25 22 31 30 27 27 25 25 26 26 24 26 27 27 28 26 25 26 28 31 29 29 24 26 26 26 26 26 27 27 28 29 30 30 31 31 30 31
27 23 20 32 33 28 30 32 32 31 31 28 26 25 23 22 21 23 23 24 26 24 24 25 26 27 27 26 30 29 27 26 26 26 26 27 26 26 27 28 29 29 29 29
26 24 31 33 31 33 33 33 32 33 32 29 25 21 20 18 19 22 22 22 24 23 23 24 24 24 24 26 29 31 28 26 25 27 27 27 27 27 27 26 26 27 28 27
27 29 30 31 32 34 33 30 33 36 32 28 25 24 21 22 22 22 21 21 22 22 21 21 23 24 24 26 29 29 29 27 27 25 25 28 28 28 28 28 27 26 27 25
27 29 30 30 31 31 31 32 29 29 29 28 27 24 24 22 22 22 21 21 21 21 21 20 21 21 22 24 28 28 28 28 27 25 24 23 24 26 26 26 28 26 25 26
25 31 29 29 32 33 30 28 28 26 25 25 25 23 23 23 22 20 20 21 20 20 20 19 20 19 20 22 25 26 26 26 25 25 22 22 20 19 27 27 29 29 30 27
31 32 29 30 31 31 28 27 27 26 24 22 23 22 22 20 22 23 21 20 18 18 18 18 18 17 17 19 22 23 23 24 22 22 22 20 17 16 13 17 25 25 26 28
34 34 29 30 27 29 28 27 27 24 24 24 22 22 21 19 18 17 17 19 19 17 16 15 15 13 13 15 15 14 15 15 14 14 11 10 6 5 5 5 4 8 16 20
34 34 30 29 28 26 26 26 24 22 23 22 23 21 19 15 14 14 16 20 19 15 12 11 11 11 13 16 16 14 17 12 6 5 7 7 4 2 2 4 6 5 8 11
33 31 30 28 25 26 25 24 22 21 20 19 18 18 17 16 13 11 11 12 13 9 8 4 10 8 11 11 12 13 10 11 8 5 4 6 4 5 6 6 6 5 5 3
27 25 26 25 24 23 22 22 20 17 14 12 11 13 11 9 9 7 4 6 3 -0 0 0 0 3 6 6 7 9 9 12 10 11 9 8 6 5 4 3 2 2 -1 -3
29 30 31 28 24 22 21 21 19 17 12 12 9 3 1 1 2 0 -1 -1 -1 1 -2 -1 2 3 6 8 11 14 13 13 14 11 12 8 9 11 7 6 6 4 1 4
26 25 26 26 24 22 20 17 15 14 6 2 1 -1 -5 -7 -6 -6 -7 -6 -4 0 4 3 15 11 11 12 14 13 12 11 12 12 10 7 4 11 9 5 1 -2 -0 1
23 23 22 20 20 18 12 7 6 4 -2 -2 -6 -4 -3 -4 -8 -7 -8 -2 3 6 6 8 11 11 11 11 9 12 9 7 10 6 4 6 -1 -2 5 7 4 -2 -7 -6
12 12 11 11 5 3 3 0 2 4 -2 -7 -2 -3 -4 -3 -5 -9 1 6 7 4 8 9 8 8 9 6 8 7 2 -1 -1 1 -1 -4 -3 2 -0 -0 -2 -0 -1 -3
6 8 5 5 9 4 1 1 4 -2 -2 -5 -10 -12 -9 4 2 1 3 9 11 6 9 9 8 2 4 -2 8 -2 5 3 1 1 -0 -5 -7 -8 -5 -1 -2 -3 -3 -3
8 8 8 6 7 6 4 4 -1 0 -1 -3 -2 -1 1 8 9 9 9 13 12 8 9 6 2 -1 -3 -8 -6 -9 -8 -7 -6 -4 -6 -11 -13 -13 -9 -5 -5 -7 -9 -7
8 9 9 10 9 13 12 9 10 13 5 7 8 4 9 8 8 13 14 13 9 7 2 2 -3 -1 -5 -9 -10 -11 -11 -12 -11 -13 -8 -10 -15 -9 -4 -9 -9 -11 -15 -14
12 11 11 11 15 13 17 18 19 19 18 18 17 18 15 14 8 11 6 10 11 10 6 2 -1 -3 -9 -11 -12 -10 -9 -10 -10 -14 -7 -5 -4 -10 -11 -14 -11 -4 -6 -16
17 15 15 17 15 14 15 16 13 12 13 9 8 3 2 1 5 5 6 6 8 10 4 3 -4 -3 -3 -4 -4 -4 -3 -1 -5 -7 -8 -7 -8 -6 -3 -5 -9 -5 -1 -4
16 15 16 16 17 17 14 12 10 10 7 -1 -0 4 1 -1 -0 2 1 -0 0 1 2 1 4 7 4 6 6 4 2 -1 -4 -3 -5 -6 -9 -7 -5 -7 -10 -11 -3 -1

GFSNGP_sfc_temp_117.txt.gz
Temp
33 32 33 30 28 31 30 32 27 25 25 27 28 29 28 29 29 29 29 30 30 29 30 31 30 32 33 33 35 37 36 36 36 38 39 39 39 40 41 41 42 43 42 42
31 34 33 28 29 31 31 30 28 28 25 30 30 30 28 28 28 28 28 28 29 30 30 31 31 30 31 32 33 34 34 34 36 37 37 36 37 37 38 38 39 39 39 40
29 33 33 26 27 28 30 31 32 28 28 30 27 28 27 27 28 27 28 28 28 28 28 30 31 31 29 30 33 32 32 32 33 35 35 35 35 36 35 35 36 36 36 37
31 30 21 28 33 33 30 30 32 31 30 30 29 29 29 28 27 27 28 28 27 27 27 29 32 32 32 31 31 30 29 30 31 32 34 35 34 34 33 33 33 33 33 34
28 27 28 29 30 30 29 27 31 30 32 31 30 33 26 28 29 27 28 28 28 29 28 29 30 32 32 29 29 28 27 28 29 30 31 32 32 32 33 33 32 32 32 32
30 25 22 26 31 35 36 26 32 32 30 31 33 28 25 27 27 28 29 30 29 30 30 29 30 32 31 29 27 26 27 28 28 30 29 29 30 31 32 33 32 33 32 32
27 26 26 30 33 36 25 25 32 32 31 32 27 28 27 28 26 27 28 29 30 30 28 28 30 32 29 29 28 29 30 30 29 29 30 30 31 31 31 32 32 32 32 32
27 24 21 32 33 30 30 33 33 33 32 29 28 27 25 24 23 26 26 28 29 29 28 28 30 30 28 27 31 34 32 30 30 30 30 31 30 31 31 30 31 30 31 31
26 25 31 33 31 33 36 34 33 33 33 32 28 24 24 23 23 24 26 27 28 28 28 28 28 28 26 27 31 32 33 32 31 31 31 31 30 30 31 31 29 29 29 29
28 30 30 32 33 33 33 32 35 35 32 32 28 27 25 25 25 25 26 26 27 27 26 25 28 28 28 28 32 33 31 32 33 31 31 31 32 32 31 30 30 29 28 28
28 29 30 31 32 33 32 33 32 32 31 30 29 27 27 25 25 25 25 25 26 25 25 24 26 26 27 28 31 32 31 31 31 31 31 30 29 28 28 28 29 28 27 28
28 32 32 30 32 34 31 30 30 30 27 28 29 26 27 25 25 25 24 24 24 24 24 24 24 24 24 26 29 30 29 30 28 29 29 29 29 30 27 27 27 28 28 27
32 33 32 32 32 33 30 29 29 28 28 26 26 26 25 24 24 23 24 23 22 22 22 23 22 20 20 22 25 25 25 27 28 27 27 26 25 24 23 26 24 24 24 26
35 34 30 32 30 31 30 29 28 27 27 26 25 25 23 22 22 21 20 22 22 21 20 20 19 16 17 19 20 20 23 20 25 25 24 23 22 21 21 19 19 20 21 20
34 36 34 31 30 29 29 29 26 25 25 24 25 23 22 19 18 17 20 22 21 19 17 17 16 15 17 19 20 20 23 24 23 23 22 20 22 22 21 20 19 19 20 20
32 32 31 30 28 28 28 26 25 24 23 23 22 21 20 19 17 16 16 17 18 16 14 11 15 14 15 15 17 21 22 20 19 23 23 22 22 21 21 20 19 18 17 16
29 27 28 27 27 26 26 25 24 22 19 18 16 16 16 15 15 14 12 12 12 11 11 11 11 11 12 14 17 21 22 23 18 24 23 22 21 20 20 20 18 17 16 13
34 34 33 32 28 25 23 23 22 20 17 16 14 10 9 11 13 11 10 7 9 12 13 12 11 14 14 15 18 20 21 21 22 21 22 21 20 21 20 19 19 18 17 15
31 30 30 29 28 25 23 21 19 17 13 10 10 10 8 6 8 9 6 8 10 14 17 14 17 16 17 16 18 20 19 19 20 20 19 17 19 18 19 19 18 17 17 16
26 26 25 24 24 22 16 14 13 11 7 8 5 8 12 10 7 7 6 12 17 20 16 16 17 17 16 16 13 19 18 17 17 17 17 17 17 17 16 15 17 17 16 15
19 18 16 15 12 12 12 11 11 12 7 6 11 11 10 10 9 6 14 19 21 15 17 15 18 19 18 14 17 17 16 16 16 15 15 14 14 15 15 15 15 16 16 15
15 14 11 11 13 11 9 11 12 8 9 7 3 2 5 13 14 14 12 16 22 14 18 20 19 13 15 6 18 16 16 15 15 15 15 15 14 13 13 14 14 14 14 14
14 14 13 12 14 16 12 13 10 12 11 10 10 12 13 18 18 17 17 21 20 20 18 19 14 9 8 14 15 14 14 13 14 14 13 13 12 11 12 12 13 13 13 13
14 15 15 15 15 17 18 19 16 18 12 14 14 12 16 20 19 22 21 17 14 15 18 18 14 9 4 15 13 13 13 14 13 13 13 6 12 11 12 12 12 13 11 9
16 16 16 16 19 21 22 23 23 23 22 23 22 21 19 20 17 19 17 17 15 16 19 17 11 9 11 12 12 11 12 13 13 13 13 13 13 12 13 12 11 12 12 11
19 21 21 22 23 24 24 23 23 22 22 21 21 19 18 16 16 15 16 12 14 13 16 16 14 13 14 14 13 12 12 12 12 11 10 12 13 12 11 12 12 12 11 12
21 19 22 23 23 24 23 21 22 21 18 17 16 17 15 14 13 13 10 14 14 13 13 12 12 10 10 11 12 13 13 14 12 12 12 11 12 12 12 12 12 11 10 9

GFSNGP_sfc_temp_120.txt.gz
Temp
37 35 37 34 31 34 32 33 31 28 27 28 30 30 29 30 30 30 30 30 30 30 30 32 31 31 36 37 38 39 40 40 41 40 40 41 40 40 41 41 42 42 43 41
32 37 36 31 31 35 35 33 30 32 27 31 32 31 30 29 31 31 31 30 30 31 31 31 32 33 33 35 36 39 39 37 39 41 41 38 39 39 39 38 39 39 39 38
33 36 37 31 28 30 32 36 35 31 31 33 31 30 28 29 32 30 31 30 28 28 30 30 32 34 32 34 36 36 36 37 38 39 39 39 38 37 35 36 36 36 36 37
35 34 26 30 38 39 35 35 37 36 34 34 32 30 30 31 30 30 31 31 30 29 30 31 33 34 36 35 35 33 32 33 35 36 37 38 37 37 36 35 34 33 33 35
31 33 29 31 33 34 33 30 35 34 35 34 33 36 29 31 32 31 31 33 34 34 32 32 32 34 34 33 32 32 30 30 31 33 34 35 34 34 35 35 34 33 33 33
35 29 26 31 35 37 37 28 36 37 35 36 34 32 29 30 30 32 35 35 35 37 36 35 35 36 32 31 31 30 31 31 31 32 31 32 33 32 34 35 33 35 33 32
32 31 30 34 34 36 27 27 38 39 39 39 34 33 29 32 30 33 36 35 37 38 36 36 38 38 33 32 31 33 34 34 32 32 32 32 32 33 32 33 33 32 32 32
33 30 25 36 34 30 33 38 39 39 38 34 31 30 28 28 28 32 35 36 37 36 36 37 38 38 34 31 37 39 39 36 35 35 34 34 33 34 33 33 32 32 32 33
32 30 34 34 33 37 41 37 38 39 40 38 32 28 27 27 27 31 35 36 37 36 35 36 37 37 34 33 39 40 40 39 38 38 38 37 35 34 34 34 34 32 32 32
32 31 32 32 34 37 40 38 40 41 39 37 32 31 29 31 32 33 35 35 36 35 34 33 35 35 35 37 40 40 39 39 40 39 39 39 38 37 33 31 31 30 29 29
29 31 32 32 33 35 36 37 37 39 38 36 36 34 34 33 33 34 34 34 34 33 32 32 34 33 34 35 37 38 38 37 37 38 37 37 37 33 32 29 28 27 27 28
31 33 33 32 33 34 34 35 36 35 34 35 35 33 34 32 33 33 32 33 33 32 31 31 31 30 30 33 34 34 34 35 34 35 35 35 35 35 27 27 26 26 26 27
34 36 33 33 33 37 35 36 36 35 35 33 33 34 33 32 32 28 31 31 30 29 29 29 28 25 25 27 29 28 30 30 33 32 33 31 31 30 29 31 28 26 24 24
40 37 31 34 33 37 36 35 34 34 34 33 32 32 30 29 28 28 26 28 28 28 26 26 24 21 22 24 25 25 28 28 30 30 30 29 28 28 28 26 26 26 27 25
40 40 40 38 37 35 36 35 33 32 31 31 32 30 29 26 24 24 26 27 28 26 24 23 21 20 22 23 24 26 28 28 27 29 29 28 28 28 28 27 26 26 26 26
39 39 38 36 35 34 34 34 32 30 29 28 28 27 27 26 25 23 23 23 24 22 20 17 20 19 19 20 22 27 28 27 26 28 28 28 28 27 27 26 26 25 24 21
36 34 35 34 34 32 32 32 30 28 25 24 22 23 23 21 21 20 19 18 19 18 18 19 18 18 17 19 21 26 27 27 25 28 28 27 26 26 26 25 24 24 23 19
43 41 40 38 34 31 29 29 28 26 24 23 21 17 17 18 19 18 17 17 17 18 20 20 18 20 20 20 22 26 26 26 26 26 26 25 25 25 25 24 24 23 23 22
41 39 38 36 35 32 30 28 26 23 19 17 17 17 17 16 18 18 17 16 17 20 23 21 21 22 23 21 22 26 25 24 25 25 24 23 24 24 23 23 23 22 21 21
35 36 35 33 32 29 24 22 20 18 17 17 15 16 18 17 16 16 17 19 23 26 24 23 23 24 23 23 20 26 24 23 23 23 22 21 21 20 21 21 21 21 20 20
28 27 24 22 20 20 20 19 19 17 16 16 18 19 19 19 18 16 21 25 27 24 24 22 24 26 26 22 24 24 23 21 21 20 20 19 19 20 19 19 19 19 20 20
24 22 19 18 19 18 18 21 21 18 17 16 14 14 15 21 22 22 21 23 27 23 24 26 27 24 23 16 25 23 23 22 21 21 20 19 19 18 18 18 18 19 19 18
23 22 21 20 20 21 20 20 18 19 18 18 19 21 23 26 26 24 23 27 27 25 25 25 24 19 17 19 23 23 22 21 21 20 20 20 19 18 18 17 17 17 17 17
23 23 23 24 23 23 22 23 23 24 20 22 21 20 23 26 26 29 28 25 23 21 23 24 23 20 16 21 22 21 21 21 21 21 21 19 19 19 19 18 17 17 17 16
23 23 23 22 25 27 28 28 28 28 27 28 27 27 25 28 24 25 24 24 22 22 23 23 20 19 20 21 21 20 19 20 19 19 19 19 19 19 19 19 18 17 17 17
25 28 28 28 31 32 32 31 31 30 30 28 28 26 26 25 24 23 23 21 22 20 21 21 19 18 19 19 18 18 18 18 18 18 17 17 18 18 18 19 19 18 18 17
28 28 29 29 31 31 32 30 29 27 26 25 25 25 24 23 22 20 18 20 19 18 18 18 17 16 15 15 16 16 16 16 16 16 16 16 16 16 17 17 18 18 18 17

GFSNGP_sfc_temp_123.txt.gz
Temp
42 43 42 37 32 37 35 38 32 30 29 30 32 32 32 33 35 34 32 31 30 30 30 31 33 33 34 36 38 41 41 41 42 44 43 42 41 40 39 39 40 40 41 39
33 42 41 32 33 38 37 35 33 35 29 34 36 36 33 34 36 35 34 33 31 31 31 31 34 35 37 37 37 39 39 38 41 42 41 40 39 39 39 38 38 38 38 38
35 43 40 32 31 34 37 41 40 36 35 37 35 34 31 32 35 33 33 33 30 30 31 32 33 36 35 37 37 36 35 36 38 40 40 40 41 39 37 36 36 35 35 36
37 38 26 32 45 45 41 41 43 39 37 39 37 35 34 34 34 33 34 35 34 32 32 33 35 36 36 36 37 35 33 34 36 37 37 38 37 38 37 37 35 35 34 34
34 36 31 33 39 40 39 35 41 39 39 39 38 38 31 34 35 35 36 38 40 40 37 37 36 37 36 35 35 34 32 32 33 35 35 35 35 35 36 36 35 34 34 34
37 31 28 33 40 44 44 32 41 41 39 39 39 30 32 33 32 36 41 41 41 42 42 41 41 40 37 35 34 33 34 33 33 34 33 33 34 34 36 36 34 36 34 33
35 34 33 37 39 40 29 31 41 43 43 41 35 33 32 34 32 38 41 41 43 43 41 41 43 43 38 39 35 36 39 39 36 34 34 34 34 35 34 34 34 34 33 34
37 33 29 39 35 31 37 41 42 41 41 37 34 32 31 30 30 37 41 41 43 41 40 41 42 42 39 38 43 44 43 41 40 40 38 38 36 35 34 34 33 33 33 34
36 32 36 35 36 40 41 39 40 41 41 39 33 29 29 29 31 37 41 42 42 41 40 40 40 40 38 39 43 44 43 42 42 41 42 41 38 36 34 34 33 32 32 31
35 34 35 35 36 38 38 38 42 43 41 40 34 34 33 35 37 39 41 40 41 40 38 36 38 38 37 39 42 43 41 41 41 41 41 42 40 38 35 30 30 30 28 28
32 34 35 34 35 36 36 39 41 43 42 41 41 39 40 39 39 39 39 39 39 37 36 36 36 35 36 37 38 38 39 39 38 39 39 39 39 35 34 29 28 27 26 27
34 37 36 33 34 36 34 36 39 39 38 40 41 38 39 38 38 38 37 38 37 36 35 34 34 32 32 33 35 34 35 35 36 36 37 37 36 36 28 28 27 27 26 25
37 38 34 33 35 35 34 38 40 39 39 37 39 39 38 36 35 33 37 35 34 33 33 32 30 27 27 28 30 30 30 33 34 34 34 33 32 32 30 33 30 28 27 27
41 38 32 34 33 39 41 39 39 39 39 38 37 37 35 33 33 31 30 31 32 32 30 29 27 23 23 24 25 26 29 30 30 31 31 30 30 29 30 28 28 29 30 28
41 43 40 41 41 39 40 39 36 35 35 35 36 34 32 30 29 29 31 31 32 30 27 25 23 22 23 24 24 26 29 30 29 30 30 30 30 30 30 29 29 29 29 29
43 41 40 39 38 38 38 38 36 34 34 34 32 32 32 31 29 28 27 26 27 25 23 20 22 21 21 22 23 28 30 29 29 29 30 30 29 29 29 28 28 28 27 24
39 37 39 37 37 37 36 37 35 32 30 29 26 27 26 25 24 23 22 22 23 21 22 24 21 21 20 21 22 27 29 29 28 30 29 29 28 27 27 27 26 26 26 21
47 45 43 41 38 36 34 34 33 31 28 27 25 22 21 22 23 21 21 21 21 21 23 25 22 22 23 23 23 27 29 29 28 28 28 27 26 26 26 25 25 25 25 25
46 44 43 41 39 37 34 32 30 29 24 21 20 21 21 21 23 23 22 20 20 22 25 24 24 24 27 25 24 28 28 27 27 27 26 25 24 25 24 23 23 23 23 24
42 42 41 39 38 34 29 26 23 21 21 22 20 20 22 21 21 20 21 21 25 28 27 27 26 27 28 27 25 27 27 25 25 25 24 23 22 22 22 22 22 22 22 22
32 32 29 27 25 25 24 23 21 20 20 21 23 22 22 23 23 21 22 27 28 26 27 25 27 28 29 27 26 27 26 24 23 23 22 22 21 21 21 21 21 21 20 20
29 25 23 22 22 22 23 25 24 21 20 20 18 19 20 22 24 24 24 26 30 28 28 29 30 28 26 21 26 25 25 24 24 23 22 21 21 20 19 20 19 19 19 20
27 25 24 23 23 24 25 24 22 23 21 21 21 22 25 29 29 27 26 29 30 27 27 28 27 25 22 22 23 23 23 22 22 22 21 21 21 20 20 20 19 19 19 19
27 27 26 28 26 25 24 24 26 26 24 26 25 24 26 28 29 32 32 29 27 23 25 26 24 23 21 22 22 22 22 22 21 21 21 21 21 21 21 20 20 20 19 19
27 27 27 26 28 30 31 30 31 31 29 31 30 29 28 30 26 27 26 26 25 24 24 24 22 20 21 21 21 20 20 20 20 20 20 19 19 18 19 20 20 20 20 20
29 31 31 32 35 35 35 34 34 33 33 30 31 29 29 28 27 26 26 24 24 22 22 21 20 19 19 18 17 17 17 18 17 17 17 17 17 18 18 18 19 19 19 20
33 32 33 33 36 36 36 34 32 30 29 28 27 27 27 26 25 23 22 21 20 19 19 19 18 17 16 15 15 15 14 15 14 13 13 13 14 15 15 15 15 17 18 18

GFSNGP_sfc_temp_126.txt.gz
Temp
41 43 44 41 36 39 37 37 32 31 30 31 32 31 32 36 37 36 34 33 32 30 30 31 32 32 33 33 35 37 37 36 36 36 38 36 36 36 36 36 37 38 37 36
33 41 43 37 33 35 39 37 34 35 30 36 37 37 34 35 36 35 34 34 33 33 33 32 33 34 35 36 34 36 36 36 38 37 37 38 37 37 37 36 36 36 36 35
32 44 41 32 33 34 39 43 40 34 36 38 36 33 31 33 34 34 34 35 32 32 33 34 34 35 34 36 36 35 34 35 36 37 37 37 38 37 36 35 35 34 35 35
34 37 26 33 45 45 43 43 43 40 39 41 36 34 34 35 34 34 35 36 36 33 33 35 36 37 37 37 36 34 33 34 35 36 36 36 37 36 35 36 34 33 33 34
31 34 32 36 42 42 40 38 44 41 41 40 38 35 30 34 36 37 38 39 40 40 37 37 36 38 38 35 35 35 33 32 34 35 35 35 34 34 35 35 34 33 33 33
35 30 28 34 44 47 47 31 44 44 41 39 39 30 27 33 34 37 41 41 41 41 41 40 40 39 38 36 34 34 35 33 33 34 33 32 33 33 35 35 33 34 33 32
32 31 33 39 41 44 29 30 44 45 44 42 36 32 33 35 34 39 41 42 43 41 39 39 41 40 37 38 35 36 38 38 36 34 33 33 33 33 32 33 32 32 32 33
35 31 27 40 37 31 37 43 43 42 39 34 33 32 31 31 31 39 41 41 42 39 38 38 39 38 36 35 41 42 40 38 37 37 37 36 33 31 30 30 29 28 28 28
32 30 36 36 37 42 44 39 39 37 38 36 33 30 30 30 32 39 41 41 41 38 37 37 37 36 34 35 39 41 39 37 37 37 38 36 33 30 27 27 26 25 25 24
35 33 34 35 37 38 39 37 38 39 39 36 31 32 31 34 37 39 39 39 40 38 35 34 34 34 33 35 37 38 36 36 36 35 36 36 34 33 27 25 24 23 22 21
32 34 35 35 35 36 36 37 38 40 41 38 37 38 40 39 38 39 39 38 37 35 33 32 32 30 31 32 33 33 35 34 33 34 33 33 31 28 29 24 25 23 21 21
33 37 38 33 35 36 34 33 36 38 38 41 41 39 39 37 38 37 36 36 35 33 32 31 29 27 27 28 29 29 30 31 30 31 31 31 31 30 29 27 28 28 28 23
38 39 34 34 35 35 33 34 37 38 39 38 39 39 37 34 34 34 34 33 32 30 30 29 26 23 23 25 26 25 26 29 29 29 29 28 28 27 25 30 28 27 29 28
41 38 32 35 33 36 37 40 40 40 39 38 37 36 34 32 31 29 28 29 30 29 27 26 24 20 20 22 22 21 25 27 26 26 27 27 26 26 26 24 23 24 29 25
41 45 40 40 38 40 40 39 36 35 35 34 34 31 31 29 27 28 29 30 32 28 24 22 21 19 21 22 22 22 27 27 25 25 26 25 26 25 25 25 24 24 24 23
42 42 41 39 39 38 38 38 35 33 34 33 32 31 31 30 28 25 24 24 23 21 21 16 20 19 19 20 20 24 26 24 23 25 25 25 25 24 23 23 23 23 22 19
38 36 38 37 36 37 36 37 35 33 31 27 25 26 25 24 23 21 19 20 20 17 19 19 17 15 16 17 19 22 25 26 22 25 25 24 23 22 22 22 21 21 21 16
45 44 43 41 37 36 36 35 33 31 28 27 24 20 18 18 20 18 18 19 17 17 20 21 17 17 18 20 20 23 25 25 25 24 25 23 22 23 22 21 21 20 20 22
46 44 42 41 39 36 34 32 31 28 22 20 18 18 18 18 20 20 19 16 16 20 22 22 25 22 25 24 23 25 24 24 23 24 23 21 20 21 20 19 19 19 19 19
40 40 40 38 38 35 28 24 23 20 20 20 19 17 18 17 17 16 18 20 22 25 25 26 26 26 26 27 22 25 24 23 23 22 21 20 20 18 19 17 18 18 18 18
32 30 26 25 23 23 22 22 19 18 19 18 19 18 19 20 19 17 20 26 24 23 25 23 26 27 28 24 23 24 22 21 22 21 20 19 19 20 19 19 18 18 17 17
28 25 23 22 22 21 22 22 22 19 18 17 14 15 16 20 21 21 21 25 28 22 24 26 27 23 23 16 23 21 21 21 21 21 20 20 20 19 18 18 17 17 15 15
27 24 23 22 22 23 24 23 21 20 18 17 16 20 24 26 28 26 24 27 28 21 25 25 21 20 19 21 21 20 20 20 20 20 19 19 19 18 17 17 18 18 16 14
26 26 25 26 25 24 22 22 24 24 22 23 22 20 25 26 27 29 28 24 22 19 22 22 20 18 13 19 19 18 16 16 17 17 16 16 16 16 17 16 16 16 18 17
27 26 27 24 26 27 28 27 29 28 28 30 28 27 27 29 25 25 25 24 23 20 21 20 16 17 17 17 16 14 14 14 14 14 13 12 12 12 13 13 14 13 14 16
28 29 29 31 32 33 32 31 31 32 31 29 29 27 27 27 26 25 23 20 21 18 19 18 17 16 15 14 12 12 11 12 11 10 9 9 9 9 9 9 9 9 11 12
32 31 32 33 36 35 35 33 32 29 29 28 27 26 26 25 23 22 18 19 18 17 16 15 14 13 11 10 11 10 9 9 7 6 6 7 8 6 6 5 6 8 9 10

GFSNGP_sfc_temp_129.txt.gz
Temp
37 40 40 39 34 38 35 34 30 28 27 30 32 31 32 34 32 32 31 31 30 30 30 32 33 33 34 35 35 35 35 35 35 36 36 36 35 35 35 34 33 34 34 34
29 39 38 34 32 33 36 35 32 33 28 35 35 34 33 31 33 32 33 32 32 33 32 32 34 34 35 35 34 35 35 35 36 37 37 35 34 34 34 34 34 34 33 34
28 39 35 30 32 31 36 38 37 29 32 34 34 32 31 31 32 32 33 32 30 29 32 32 33 35 34 35 35 34 34 34 35 36 35 36 36 35 34 33 33 32 32 32
28 31 21 32 43 41 41 43 37 34 33 35 32 32 32 32 31 32 33 33 32 30 30 32 34 35 34 34 35 34 33 34 34 34 33 34 35 34 34 34 32 31 31 31
25 26 30 35 40 39 39 35 39 35 33 32 32 31 29 33 33 32 34 34 34 34 32 32 34 35 34 32 32 33 31 31 33 33 32 31 31 32 32 32 33 31 31 30
28 25 21 30 37 43 44 27 41 39 34 32 31 26 25 32 32 32 37 36 35 36 35 34 34 35 34 31 32 31 32 31 30 32 30 28 28 28 30 30 29 30 30 28
28 26 28 36 38 41 27 26 42 43 40 36 29 27 30 33 32 34 37 37 37 35 33 33 34 34 30 32 31 32 34 35 33 32 30 28 26 27 26 26 26 25 25 25
28 26 23 37 35 30 34 38 35 35 33 29 30 30 30 30 29 33 35 35 35 33 31 32 32 32 29 28 34 36 34 33 32 32 32 30 26 26 25 24 22 21 22 22
29 27 33 36 36 39 40 33 32 32 32 31 28 28 29 28 28 34 35 32 33 31 30 30 30 29 26 28 32 35 33 30 31 31 31 30 26 24 23 22 20 20 20 18
29 32 32 35 37 38 37 35 35 34 32 31 29 30 30 31 32 34 34 31 32 30 28 26 26 26 26 27 30 32 30 30 30 29 29 26 27 25 22 20 20 20 18 14
29 32 33 34 35 35 35 37 35 35 34 34 34 34 35 36 35 35 34 32 31 27 26 24 24 23 24 25 26 27 29 28 27 28 27 26 25 21 23 19 23 19 13 13
26 32 31 32 34 36 33 33 34 34 33 37 39 36 36 34 34 33 31 30 28 26 25 23 22 21 21 23 24 24 25 26 25 25 25 25 24 24 29 25 28 29 28 19
31 34 33 34 35 34 32 33 34 34 37 36 37 35 33 31 31 31 29 29 26 25 24 22 20 19 18 21 23 22 21 25 24 24 24 24 24 23 19 24 30 27 28 28
35 34 31 33 32 36 35 35 38 38 37 35 33 32 29 27 27 26 26 26 26 24 22 22 19 14 14 14 16 14 17 20 18 17 17 17 16 16 14 11 11 14 22 25
36 41 36 38 37 34 37 37 34 33 32 30 30 28 28 26 24 24 25 26 27 22 19 16 13 11 14 18 18 16 21 16 11 13 13 11 14 14 10 10 10 9 10 13
40 37 36 33 33 34 35 34 31 29 30 29 28 28 27 26 23 21 21 21 21 18 17 10 15 11 14 13 12 15 17 16 14 16 15 14 12 12 15 14 15 12 10 12
35 33 32 32 32 31 32 31 30 28 24 23 22 22 21 19 18 16 14 15 12 10 10 9 8 7 8 6 7 9 13 16 14 18 15 15 11 13 12 12 11 11 10 5
39 36 35 34 31 30 30 30 28 27 23 22 21 18 16 16 15 11 11 9 8 10 8 9 9 10 8 8 11 16 16 18 18 16 16 12 12 15 11 10 12 10 9 12
40 37 34 34 31 30 30 28 26 24 20 17 14 12 10 8 9 8 7 6 6 12 13 10 19 19 20 16 19 18 16 14 16 18 15 12 9 12 8 5 7 4 7 9
36 35 35 33 31 28 20 20 20 18 16 15 13 12 8 7 7 7 6 10 12 16 17 19 22 22 22 20 17 18 16 12 16 16 13 13 5 3 6 8 8 5 1 3
29 27 24 22 17 17 18 17 17 15 13 13 13 11 10 9 8 6 9 16 15 14 18 19 19 19 21 17 17 12 11 10 9 11 12 10 13 10 9 9 10 11 7 3
20 20 18 18 18 14 13 15 15 12 11 8 5 5 7 10 8 9 11 17 19 12 17 19 19 14 15 10 16 10 14 15 15 16 15 14 13 11 12 12 12 12 10 12
18 18 17 17 17 15 16 14 10 12 10 8 10 9 12 17 18 16 16 22 21 14 18 16 10 7 7 7 6 7 5 7 10 11 10 10 11 10 10 10 10 11 10 10
18 19 19 21 21 20 16 14 19 18 15 16 13 12 18 14 17 22 22 15 8 9 8 13 12 9 4 4 5 2 1 -2 7 5 8 5 5 4 4 6 7 6 6 6
22 22 22 21 21 20 22 23 24 24 23 24 24 23 22 22 13 13 13 12 13 10 8 6 6 4 3 2 -3 -5 -4 -4 -3 3 1 -1 -3 -2 1 3 2 1 3 5
24 24 23 25 25 25 24 25 23 23 23 19 21 22 18 18 16 15 12 10 10 8 6 1 -0 -1 -4 -4 -6 -5 -5 -2 -0 -3 -8 -5 -0 0 -1 -3 -2 -1 3 4
26 25 25 25 27 28 26 25 23 21 21 22 18 18 17 12 11 10 6 4 3 1 -4 -5 -3 -1 -3 -5 -4 -6 -8 -6 -6 -6 -11 -3 -3 -12 -8 -5 -2 1 3 0

GFSNGP_sfc_temp_132.txt.gz
Temp
36 39 39 37 36 38 33 34 27 24 27 28 30 31 33 33 29 29 28 29 27 26 29 29 33 34 35 35 35 36 35 33 32 32 33 33 34 34 34 34 33 34 33 33
31 38 36 32 35 36 37 35 31 32 29 33 34 34 32 30 31 30 31 30 31 30 32 30 32 34 35 34 34 35 34 33 34 35 35 33 33 33 33 32 32 32 32 32
26 37 35 27 31 33 34 37 35 28 32 32 31 32 32 30 31 31 31 30 29 28 29 31 31 33 32 34 35 33 33 33 33 32 32 33 33 34 31 30 30 29 29 31
26 32 18 31 41 40 38 40 36 33 32 33 32 32 31 30 29 31 32 31 30 26 27 29 31 32 33 34 34 32 31 32 31 30 29 30 30 30 30 30 27 27 27 28
26 26 29 33 37 36 35 34 37 33 31 30 30 29 28 32 32 31 33 31 31 31 29 29 29 30 31 31 31 31 30 29 30 29 28 27 26 26 27 27 26 24 24 25
27 24 20 30 37 42 43 27 38 34 30 28 28 25 26 31 32 32 35 34 31 31 31 30 30 30 28 28 29 28 30 30 28 28 26 25 25 24 25 25 24 24 22 22
28 26 30 36 38 40 28 27 37 36 33 30 27 28 30 33 32 33 35 34 33 31 28 27 29 29 26 27 27 29 31 31 30 27 27 26 25 25 23 22 22 21 20 21
28 25 23 36 35 31 32 32 32 33 35 31 29 30 31 31 29 34 33 33 32 28 27 27 27 26 24 23 29 32 30 30 29 29 29 28 25 24 23 22 20 20 20 20
30 27 32 36 34 36 36 31 30 29 31 31 29 28 30 29 30 33 33 31 31 27 25 24 25 24 21 24 27 29 29 28 28 29 28 28 24 23 21 21 20 19 20 18
29 29 32 35 36 36 37 33 33 33 31 30 28 29 30 31 31 31 31 30 29 27 23 22 23 24 23 25 27 29 27 27 28 26 26 26 26 25 22 20 20 20 18 16
29 31 33 35 35 36 35 34 33 33 32 31 31 32 33 34 32 31 30 29 28 25 23 21 22 21 22 23 25 27 27 26 25 26 25 25 25 22 24 21 23 19 12 12
26 32 31 33 35 36 35 34 34 32 32 34 35 32 34 32 32 30 28 27 26 24 23 21 20 20 20 22 24 24 25 24 23 23 23 24 23 23 29 26 28 28 29 23
31 36 31 34 34 36 33 34 34 33 34 32 34 34 32 29 29 29 27 26 25 24 23 21 20 18 18 20 22 22 21 24 22 22 22 21 20 19 15 20 27 27 27 27
35 35 31 32 31 34 34 34 36 35 35 32 32 31 29 27 27 26 25 25 25 23 22 21 19 15 15 15 16 14 14 16 14 13 10 9 6 6 5 5 5 9 18 24
35 36 34 36 36 34 34 34 31 29 30 29 29 28 27 25 23 23 25 27 25 20 18 16 14 13 17 18 17 14 19 13 6 9 6 6 7 7 5 6 6 4 6 13
36 34 35 34 34 31 32 31 28 27 28 27 27 27 26 25 23 21 21 23 22 18 18 12 16 13 15 13 12 13 11 12 9 8 6 7 6 7 8 7 8 6 6 5
30 30 33 31 30 29 30 29 29 28 25 23 21 22 21 19 17 16 14 14 14 12 11 10 11 6 9 5 5 6 7 12 11 13 10 10 8 8 8 5 4 4 3 0
38 34 33 33 30 29 28 29 28 26 23 22 21 18 17 16 15 14 12 9 9 10 9 10 10 10 6 8 8 15 14 15 16 13 15 12 10 13 8 8 9 8 7 9
36 33 32 32 30 29 28 27 25 24 21 18 17 15 14 13 12 9 5 8 7 10 11 8 17 18 18 17 17 17 15 13 14 15 13 11 9 10 10 7 8 8 9 10
32 33 31 29 29 28 20 18 18 16 15 16 13 11 8 4 3 4 5 8 10 14 14 16 20 20 19 19 13 16 14 10 13 13 12 13 11 6 6 6 6 4 2 3
31 30 26 23 17 17 19 18 16 15 12 14 14 11 10 8 5 6 10 15 13 12 17 16 16 16 17 13 15 10 7 6 7 11 9 6 5 6 8 8 8 9 8 7
21 20 17 18 18 13 13 16 17 15 13 9 4 6 6 9 7 8 10 16 18 13 17 16 15 6 10 9 11 5 8 6 6 5 4 7 6 4 4 5 6 6 4 5
19 18 18 18 18 16 16 16 16 15 11 9 8 9 13 16 17 15 15 20 19 12 15 10 5 3 2 2 0 -3 -4 -4 -1 -1 -1 -6 -7 -8 -2 2 2 -1 -1 1
17 18 16 19 18 18 16 14 17 16 11 14 13 13 20 17 14 20 18 11 9 8 6 3 3 1 -2 -4 -7 -7 -7 -8 -9 -11 -9 -9 -15 -10 -5 -7 -7 -7 -5 -3
18 19 19 19 20 19 20 21 22 22 21 22 23 21 22 20 12 11 11 10 12 7 2 -1 -1 -4 -6 -10 -10 -13 -14 -13 -14 -15 -17 -16 -12 -13 -14 -14 -11 -11 -7 -1
22 21 22 24 23 22 22 23 20 21 21 16 17 16 13 15 15 14 10 7 6 2 -0 -8 -8 -8 -11 -12 -14 -15 -13 -9 -15 -16 -18 -13 -15 -12 -15 -12 -13 -5 -4 -6
23 22 23 24 26 25 23 23 20 19 18 18 18 17 14 13 10 8 1 -1 -4 -5 -7 -10 -12 -9 -11 -14 -13 -13 -12 -14 -16 -17 -19 -19 -20 -22 -18 -9 -11 -13 -16 -11